     2              OBSERVATION DATA    GPS                 RINEX VERSION / TYPE
TRRINEXO-V2.8.4-LH UCSD 19-MAY-1997                         PGM / RUN BY / DATE
                                                            COMMENT
BIT 2 OF LLI (+4) FLAGS DATA COLLECTED UNDER "AS" CONDITION COMMENT
BIT 2 OF LLI (+4) FLAGS DATA COLLECTED UNDER "AS" CONDITION COMMENT
Original Marker Name: MUNS                                  COMMENT
Campaign Name: Ventura Basin June 1990                      COMMENT
4-Character Station Name: MUNS                              COMMENT
6-Character Antenna Code: TRMSST                            COMMENT
Vertical Measurement Point: BGP                             COMMENT
Vertical Offset to Rinex Ref. Point: 0.0597                 COMMENT
Radial Measurement Point: NGP                               COMMENT
Radial Offset to Rinex Ref. Point: 0.2334                   COMMENT
Antenna Height from Field Measurement: 1.0050 m             COMMENT
Note: This data was collected with the Trimble              COMMENT
4000SST receivers set to "standard" mode as                 COMMENT
opposed to "compact" mode. This means the phase             COMMENT
data WERE NOT sampled at the correct times. Be-             COMMENT
cause Selective Availability (SA) was activated             COMMENT
during this experiment the data CANNOT be pro-              COMMENT
cessed simultaneous with "compact" data due to              COMMENT
this timing mismatch; it MUST be processed separ-           COMMENT
atly. See Feigl et al., A Scheme for reducing the           COMMENT
effect of selective availability on precise geo-            COMMENT
detic measurements from the global positioning              COMMENT
system, GRL 18, 1289-1292 (1991), for a process-            COMMENT
ing scheme.                                                 COMMENT
Original XYZ: -2571873.9099 -4582913.6167 3605869.3607      COMMENT
New XYZ position is based on association with SCEC monument COMMENT
E1E9J9S6+0011. Position of that monument is believed to be  COMMENT
valid to within 1 m horizontally; vertical accuracy         COMMENT
should be no worse than 3-times this value.                 COMMENT
                                                            COMMENT
Revised Rinex header created by UCSD GPS archive for        COMMENT
GSAC on 15-Apr-1999 (1999:105) 00:13:59 GMT                 COMMENT
For assistance contact dagnew@ucsd.edu or hjohnson@ucsd.edu COMMENT
                                                            COMMENT
MUNSON-TPC                                                  MARKER NAME
UNKNOWN OBSERVER CIT                                        OBSERVER / AGENCY
495 TRIMBLE 4000 SST 4.11 / 4.10                            REC # / TYPE / VERS
32 TR 4000SST L1/L2 GEO                                     ANT # / TYPE
 -2571862.0000 -4582901.0000  3605893.0000                  APPROX POSITION XYZ
        0.9178        0.0000        0.0000                  ANTENNA: DELTA H/E/N
     1     2     0                                          WAVELENGTH FACT L1/2
     5    C1    L1    L2    S1    S2                        # / TYPES OF OBSERV
     0                                                      INTERVAL
  1990     6    16    19     5   15.000000                  TIME OF FIRST OBS
  1990     6    17     3    15   30.000000                  TIME OF LAST OBS
     0                                                      # OF SATELLITES
                                                            END OF HEADER
 90  6 16 19  5 15.1360000  0  3 02 11 16
  21356686.607           0.599 8         0.414 9        28.000         206.000
  21798355.892           0.162 7         0.240 9        23.000         120.000
  24629601.137           0.384 3                         5.000
 90  6 16 19  5 30.2400000  0  3 02 11 16
  21361874.805       27257.374 8     21239.448 9        28.000         206.000
  21792033.347      -33209.354 7    -25877.233 9        23.000         113.000
  24630447.800        4449.269 3         0.41515         6.000          11.000
 90  6 16 19  5 45.0880000  0  3 02 11 16
  21366972.466       54057.382 8     42122.565 9        28.000         214.000
  21785836.817      -65782.831 7    -51259.096 9        23.000         114.000
  24631295.289        8893.603 3      3463.489 5         6.000           5.000
 90  6 16 19  6  0.1920000  0  3 02 11 16
  21372162.115       81327.724 7     63372.169 9        27.000         202.000
  21779547.217      -98839.116 7    -77017.168 9        23.000         114.000
  24632167.203       13491.693 3      7046.361 5         6.000          11.000
 90  6 16 19  6 15.0400000  0  3 02 11 16
  21377264.464      108141.192 7     84265.764 9        27.000         202.000
  21773376.398     -131260.413 7   -102280.442 9        23.000         125.000
  24633042.805       18084.578 4     10625.185 5         7.000           6.000
 90  6 16 19  6 30.1440000  0  3 02 11 16
  21382456.094      135420.835 7    105522.632 9        27.000         197.000
  21767114.338     -164165.019 7   -127920.334 9        23.000         122.000
  24633944.056       22830.207 3     14323.002 5         6.000          11.000
 90  6 16 19  6 45.2480000  0  3 02 11 16
  21387648.971      162707.571 7    126785.015 9        27.000         191.000
  21760867.324     -196989.529 7   -153497.809 9        24.000         124.000
  24634862.459       27654.055 3     18081.782 5         6.000           7.000
 90  6 16 19  7  0.0960000  0  3 02 11 16
  21392754.375      189537.288 7    147691.271 9        27.000         202.000
  21754744.047     -229177.968 7   -178579.646 9        24.000         122.000
  24635777.522       32472.745 3     21836.600 6         5.000          12.000
 90  6 16 19  7 15.2000000  0  3 02 11 16
  21397948.058      216829.877 7    168958.215 9        27.000         201.000
  21748528.313     -261842.159 7   -204032.200 9        24.000         117.000
  24636726.274       37449.184 3     25714.298 5         6.000           8.000
 90  6 16 19  7 30.0480000  0  3 02 11 16
  21403052.400      243658.613 7    189863.713 9        27.000         197.000
  21742432.852     -293874.032 7   -228992.037 9        25.000         124.000
  24637670.859       42416.018 3     29584.463 5         6.000           5.000
 90  6 16 19  7 45.1520000  0  3 02 11 16
  21408247.319      270950.481 7    211130.092 9        27.000         196.000
  21736246.343     -326376.089 7   -254318.254 9        24.000         120.000
  24638648.581       47546.587 3     33582.291 5         6.000           8.000
 90  6 16 19  8  0.2560000  0  3 02 11 16
  21413440.829      298247.196 7    232400.248 9        27.000         201.000
  21730078.528     -358790.879 7   -279576.472 9        25.000         122.000
  24639641.248       52759.325 3     37644.089 5         6.000           8.000
 90  6 16 19  8 15.1040000  0  3 02 11 16
  21418548.010      325082.763 7    253311.064 9        27.000         195.000
  21724029.873     -390575.052 7   -304343.298 9        25.000         118.000
  24640628.491       57958.785 3                         6.000
 90  6 16 19  8 30.2080000  0  3 02 11 16
  21423744.166      352387.056 7    274587.129 9        27.000         195.000
  21717894.154     -422820.004 7   -329469.176 9        25.000         117.000
  24641650.026       63328.257 3                         6.000
 90  6 16 19  8 45.0560000  0  3 02 11 16
  21428851.950      379231.193 7    295504.622 9        27.000         190.000
  21711877.932     -454435.603 7   -354104.644 9        25.000         118.000
  24642666.842       68682.079 3                         6.000
 90  6 16 19  9  0.1600000  0  3 02 11 16
  21434048.095      406537.608 8    316782.337 9        28.000         195.000
  21705773.656     -486513.560 7   -379100.395 9        24.000         125.000
  24643722.404       74202.494 3     54352.87415         6.000           8.000
 90  6 16 19  9 15.0080000  0  3 02 11 16
  21439156.727      433378.989 8    337697.684 9        28.000         193.000
  21699789.520     -517967.603 7   -403609.984 9        24.000         119.000
  24644766.085       79700.655 3     58637.083 5         5.000           5.000
 90  6 16 19  9 30.1120000  0  3 02 11 16
  21444353.179      460689.719 8    358978.762 9        29.000         205.000
  21693715.776     -549875.503 7   -428473.228 9        24.000         118.000
  24645849.626       85373.991 3     63057.758 5         5.000          10.000
 90  6 16 19  9 45.2160000  0  3 02 11 16
  21449551.377      488006.216 8    380264.327 9        28.000         199.000
  21687662.739     -581697.139 7   -453269.255 9        24.000         121.000
  24646939.256       91125.342 3     67539.317 5         5.000          11.000
 90  6 16 19 10  0.0640000  0  3 02 11 16
  21454663.820      514869.016 8    401196.366 9        29.000         202.000
  21681724.316     -612892.538 7   -477577.307 9        24.000         118.000
  24648032.736       96856.537 3     72005.117 5         5.000          10.000
 90  6 16 19 10 15.1680000  0  3 02 11 16
  21459864.510      542202.039 8    422494.813 9        29.000         203.000
  21675704.100     -644538.474 7   -502236.429 9        24.000         116.000
  24649154.165      102763.943 3     76608.235 4         5.000           4.000
 90  6 16 19 10 30.0160000  0  3 02 11 16
  21464978.659      569076.753 8    443436.143 9        28.000         205.000
  21669799.326     -675562.839 7   -526411.214 9        24.000         119.000
  24650273.193      108646.936 2     81192.359 5         4.000           6.000
 90  6 16 19 10 45.1200000  0  3 02 11 16
  21470183.466      596422.045 8    464744.150 9        29.000         200.000
  21663809.511     -707031.932 7   -550932.534 9        24.000         115.000
  24651428.005      114710.688 3     85917.275 5         5.000           8.000
 90  6 16 19 11  0.2240000  0  3 02 11 16
  21475387.416      623770.484 8    486054.607 9        29.000         194.000
  21657838.951     -738412.795 7   -575385.109 9        24.000         119.000
  24652597.333      120850.292 2     90701.308 5         4.000           8.000
 90  6 16 19 11 15.0720000  0  3 02 11 16
  21480503.515      650661.820 8    507008.881 9        29.000         183.000
  21651984.936     -769172.831 7   -599353.923 9        24.000         123.000
  24653752.023      126961.366 3     95463.168 5         5.000           9.000
 90  6 16 19 11 30.1760000  0  3 02 11 16
  21485710.672      678023.081 8    528329.331 9        29.000         184.000
  21646048.250     -800374.205 7   -623666.630 9        24.000         124.000
  24654959.341      133252.572 3    100365.345 2         5.000           2.000
 90  6 16 19 11 45.0240000  0  3 02 11 16
  21490830.510      704928.653 8    549294.701 9        29.000         195.000
  21640227.782     -830956.338 7   -647496.822 9        24.000         112.000
  24656146.504      139514.064 2    105244.404 5         4.000           9.000
 90  6 16 19 12  0.1280000  0  3 02 11 16
  21496040.905      732310.746 8    570631.382 9        28.000         189.000
  21634326.972     -861967.445 7   -671661.281 9        24.000         116.000
  24657371.178      145966.490 2    110272.250 5         4.000          11.000
 90  6 16 19 12 15.2320000  0  3 02 11 16
  21501253.967      759703.996 8    591976.760 9        29.000         183.000
  21628444.293     -892878.974 7   -695748.138 9        24.000         128.000
  24658623.187      152503.399 3    115365.836 5         5.000          11.000
 90  6 16 19 12 30.0800000  0  3 02 11 16
  21506380.393      786640.869 8    612966.523 9        29.000         191.000
  21622681.745     -923172.423 7   -719353.377 9        24.000         125.000
  24659858.678      159008.965 3    120435.058 3         5.000           3.000
 90  6 16 19 12 45.1840000  0  3 02 11 16
  21511597.990      814053.064 8    634326.669 9        29.000         184.000
  21616833.972     -953891.879 7   -743290.569 9        24.000         133.000
  24661136.123      165707.347 3                         5.000
 90  6 16 19 13  0.0320000  0  3 02 11 16
  21516727.063      841014.719 8    655335.738 9        29.000         186.000
  21611107.198     -983994.233 7   -766746.909 9        24.000         121.000
  24662401.146      172372.450 3                         6.000
 90  6 16 19 13 15.1360000  0  3 02 11 16
  21521950.635      868460.421 8    676721.990 9        29.000         185.000
  21605297.905    -1014513.931 7   -790528.449 9        24.000         131.000
  24663709.339      179238.670 3    136198.26715         5.000           8.000
 90  6 16 19 13 30.2400000  0  3 02 11 16
  21527176.047      895921.475 8    698120.209 9        29.000         191.000
  21599510.126    -1044935.808 7   -814233.769 9        24.000         125.000
  24665032.455      186187.663 3    141613.036 6         5.000          15.000
 90  6 16 19 13 45.0880000  0  3 02 11 16
  21532315.855      922933.021 8    719168.147 9        29.000         190.000
  21593834.815    -1074745.398 7   -837461.980 9        23.000         131.000
  24666343.498      193101.729 3    147000.503 5         5.000           8.000
 90  6 16 19 14  0.1920000  0  3 02 11 16
  21537548.928      950429.511 8    740593.977 9        29.000         182.000
  21588085.118    -1104967.532 7   -861011.656 9        23.000         127.000
  24667698.956      200220.719 3    152547.713 5         5.000           7.000
 90  6 16 19 14 15.0400000  0  3 02 11 16
  21542696.857      977481.563 8    761673.475 9        28.000         183.000
  21582452.856    -1134575.159 7   -884082.489 9        24.000         127.000
  24669051.697      207305.011 3    158067.866 6         5.000          13.000
 90  6 16 19 14 30.1440000  0  3 02 11 16
  21547936.416     1005018.145 8    783130.540 9        28.000         185.000
  21576740.943    -1164593.141 7   -907473.080 9        23.000         129.000
  24670437.677      214596.063 3    163749.170 6         5.000          14.000
 90  6 16 19 14 45.2480000  0  3 02 11 16
  21553180.337     1032577.826 8    804605.606 9        28.000         192.000
  21571047.592    -1194505.406 7   -930781.292 9        23.000         121.000
  24671845.130      221976.773 3    169500.265 6         6.000          13.000
 90  6 16 19 15  0.0960000  0  3 02 11 16
  21558337.767     1059687.027 7    825729.639 9        27.000         195.000
  21565471.889    -1223811.461 7   -953617.148 9        23.000         128.000
  24673236.106      229315.191 3    175218.421 6         5.000          12.000
 90  6 16 19 15 15.2000000  0  3 02 11 16
  21563589.493     1087279.095 7    847229.932 9        27.000         191.000
  21559817.253    -1253519.838 7   -976766.493 9        24.000         125.000
  24674677.902      236866.578 3    181102.551 5         5.000           9.000
 90  6 16 19 15 30.0480000  0  3 02 11 16
  21568752.520     1114418.419 7    868377.441 9        27.000         191.000
  21554277.844    -1282619.916 7   -999441.843 9        24.000         119.000
  24676103.620      244377.611 2    186955.227 5         4.000           7.000
 90  6 16 19 15 45.1520000  0  3 02 11 16
  21574009.435     1142032.122 7    889894.607 9        27.000         190.000
  21548665.213    -1312120.951 7  -1022429.612 9        24.000         117.000
  24677576.818      252100.230 3    192972.793 6         5.000          14.000
 90  6 16 19 16  0.2560000  0  3 02 11 16
  21579264.613     1169651.516 7    911416.199 9        27.000         190.000
  21543071.981    -1341518.963 7  -1045337.105 9        24.000         123.000
  24679059.904      259907.106 2    199056.052 5         4.000          10.000
 90  6 16 19 16 15.1040000  0  3 02 11 16
  21584431.911     1196808.478 7    932577.453 9        27.000         195.000
  21537591.422    -1370316.773 7  -1067776.922 9        24.000         116.000
  24680534.746      267664.890 2    205100.981 6         4.000          17.000
 90  6 16 19 16 30.2080000  0  3 02 11 16
  21589691.840     1224441.436 7    954109.617 9        27.000         184.000
  21532038.274    -1399504.317 7  -1090520.408 9        24.000         125.000
  24682053.186      275645.092 3    211319.270 5         5.000           8.000
 90  6 16 19 16 45.0560000  0  3 02 11 16
  21594861.559     1251613.286 7    975282.463 9        27.000         176.000
  21526597.074    -1428092.284 7  -1112796.713 9        24.000         119.000
  24683564.395      283575.852 3    217499.025 5         5.000           9.000
 90  6 16 19 17  0.1600000  0  3 02 11 16
  21600123.479     1279261.614 7    996826.604 9        27.000         182.000
  21521082.754    -1457065.063 7  -1135372.860 9        24.000         117.000
  24685117.546      291729.906 3    223852.701 5         5.000          10.000
 90  6 16 19 17 15.0080000  0  3 02 11 16
  21605295.945     1306446.618 7   1018009.711 9        27.000         172.000
  21515683.671    -1485442.945 7  -1157485.449 9        24.000         115.000
  24686654.742      299828.137 2    230162.966 5         4.000           9.000
 90  6 16 19 17 30.1120000  0  3 02 11 16
  21610558.377     1334106.933 7   1039563.184 9        26.000         182.000
  21510213.082    -1514203.141 7  -1179895.957 9        24.000         119.000
  24688241.276      308150.555 2    236647.887 5         4.000          11.000
 90  6 16 19 17 45.2160000  0  3 02 11 16
  21615824.281     1361772.032 7   1061120.391 9        26.000         185.000
  21504756.437    -1542858.965 7  -1202225.124 9        23.000         121.000
  24689836.075      316554.083 2    243196.052 6         4.000          12.000
 90  6 16 19 18  0.0640000  0  3 02 11 16
  21621002.529     1388982.665 7   1082323.455 9        27.000         182.000
  21499419.115    -1570920.548 7  -1224091.257 9        23.000         123.000
  24691434.837      324901.198 3    249700.181 6         5.000          12.000
 90  6 16 19 18 15.1680000  0  3 02 11 16
  21626273.745     1416678.307 7   1103904.459 9        27.000         188.000
  21494008.500    -1599355.411 7  -1246248.249 9        23.000         116.000
  24693054.275      333478.356 1    256383.585 5         3.000          10.000
 90  6 16 19 18 30.0160000  0  3 02 11 16
  21631456.570     1443916.993 7   1125129.398 9        27.000         180.000
  21488708.750    -1627203.949 7  -1267948.365 9        23.000         112.000
  24694682.998      341988.608 2    263014.900 6         4.000          13.000
 90  6 16 19 18 45.1200000  0  3 02 11 16
  21636733.711     1471641.757 7   1146733.095 9        27.000         181.000
  21483336.891    -1655422.512 7  -1289936.824 9        23.000         129.000
  24696342.826      350727.960 2    269824.719 6         4.000          16.000
 90  6 16 19 19  0.2240000  0  3 02 11 16
  21642011.914     1499382.077 7   1168348.909 9        27.000         181.000
  21477989.752    -1683530.372 7  -1311839.009 9        24.000         126.000
  24698024.392      359549.002 2    276698.165 5         4.000           8.000
 90  6 16 19 19 15.0720000  0  2 02 11
  21647203.758     1526666.724 7   1189609.653 9        27.000         182.000
  21472751.804    -1711053.330 7  -1333285.430 9        23.000         124.000
 90  6 16 19 19 30.1760000  0  2 02 11
  21652487.856     1554436.765 7   1211248.647 9        27.000         181.000
  21467444.076    -1738940.032 7  -1355015.259 9        24.000         131.000
 90  6 16 19 19 45.0240000  0  2 02 11
  21657684.205     1581750.794 7   1232532.281 9        27.000         182.000
  21462250.094    -1766246.055 7  -1376292.648 9        24.000         130.000
 90  6 16 19 20  0.1280000  0  2 02 11
  21662974.758     1609551.076 7   1254194.831 9        27.000         169.000
  21456982.767    -1793912.972 7  -1397851.249 9        23.000         134.000
 90  6 16 19 20 15.2320000  0  2 02 11
  21668267.998     1637365.089 7   1275868.074 9        27.000         173.000
  21451739.118    -1821469.158 7  -1419323.555 9        24.000         117.000
 90  6 16 19 20 30.0800000  0  2 02 11
  21673472.693     1664720.961 7   1297184.310 9        27.000         167.000
  21446605.150    -1848448.364 7  -1440346.279 9        23.000         120.000
 90  6 16 19 20 45.1840000  0  2 02 11
  21678772.788     1692564.313 8   1318880.413 9        28.000         172.000
  21441405.387    -1875777.149 7  -1461641.401 9        23.000         122.000
 90  6 16 19 21  0.0320000  0  2 02 11
  21683982.294     1719946.710 7   1340217.323 9        27.000         168.000
  21436313.801    -1902532.608 7  -1482489.765 9        23.000         121.000
 90  6 16 19 21 15.1360000  0  2 02 11
  21689285.729     1747809.085 7   1361928.249 9        27.000         160.000
  21431155.664    -1929640.208 7  -1503612.527 9        22.000         124.000
 90  6 16 19 21 30.2400000  0  2 02 11
  21694589.265     1775685.631 7   1383650.225 9        27.000         160.000
  21426019.613    -1956631.754 7  -1524644.862 9        22.000         126.000
 90  6 16 19 21 45.0880000  0  2 02 11
  21699807.107     1803101.163 7   1405012.961 9        27.000         156.000
  21420992.342    -1983055.022 7  -1545234.371 9        23.000         120.000
 90  6 16 19 22  0.1920000  0  2 02 11
  21705116.743     1831000.337 8   1426752.563 9        28.000         160.000
  21415896.876    -2009820.854 7  -1566090.825 9        22.000         119.000
 90  6 16 19 22 15.0400000  0  2 02 11
  21710338.548     1858441.515 8   1448135.284 9        28.000         155.000
  21410914.971    -2036015.616 7  -1586502.288 9        23.000         117.000
 90  6 16 19 22 30.1440000  0  2 02 11
  21715652.177     1886365.460 7   1469894.190 9        27.000         151.000
  21405863.654    -2062547.162 7  -1607176.175 9        23.000         131.000
 90  6 16 19 22 45.2480000  0  2 02 11
  21720968.708     1914302.112 7   1491662.989 9        27.000         158.000
  21400839.162    -2088959.813 7  -1627757.420 9        23.000         125.000
 90  6 16 19 23  0.0960000  0  2 02 11
  21726196.428     1941774.419 7   1513069.965 9        27.000         160.000
  21395918.998    -2114813.300 7  -1647902.948 9        23.000         123.000
 90  6 16 19 23 15.2000000  0  2 02 11
  21731517.054     1969736.643 7   1534858.694 9        27.000         162.000
  21390937.308    -2140991.905 7  -1668301.815 9        23.000         124.000
 90  6 16 19 23 30.0480000  0  2 02 11
  21736751.363     1997241.913 7   1556291.356 9        27.000         153.000
  21386063.490    -2166607.161 7  -1688261.707 9        23.000         120.000
 90  6 16 19 23 45.1520000  0  2 02 11
  21742077.026     2025234.616 7   1578103.833 9        27.000         164.000
  21381126.379    -2192546.326 7  -1708473.996 9        24.000         120.000
 90  6 16 19 24  0.2560000  0  2 02 11
  21747406.815     2053239.815 8   1599926.051 9        28.000         159.000
  21376210.342    -2218366.981 7  -1728593.936 9        23.000         120.000
 90  6 16 19 24 15.1040000  0  2 02 11
  21752648.183     2080784.638 7   1621389.556 9        27.000         157.000
  21371404.486    -2243632.661 7  -1748281.420 9        24.000         127.000
 90  6 16 19 24 30.2080000  0  2 02 11
  21757984.009     2108822.439 7   1643237.178 9        27.000         155.000
  21366535.163    -2269212.075 7  -1768213.390 9        23.000         126.000
 90  6 16 19 24 45.0560000  0  2 02 11
  21763232.231     2136400.650 7   1664726.673 9        27.000         161.000
  21361774.315    -2294240.311 7  -1787715.873 9        24.000         117.000
 90  6 16 19 25  0.1600000  0  2 02 11
  21768573.411     2164470.613 7   1686599.349 9        27.000         160.000
  21356952.370    -2319580.172 7  -1807461.176 9        23.000         121.000
 90  6 16 19 25 15.0080000  0  2 02 11
  21773828.487     2192082.174 7   1708114.831 9        27.000         160.000
  21352234.619    -2344370.344 7  -1826778.143 9        24.000         114.000
 90  6 16 19 25 30.1120000  0  2 02 11
  21779175.029     2220181.921 7   1730010.721 9        27.000         161.000
  21347457.457    -2369469.888 7  -1846336.196 9        23.000         112.000
 90  6 16 19 25 45.2160000  0  2 02 11
  21784525.923     2248300.633 7   1751921.393 9        26.000         160.000
  21342707.233    -2394444.130 7  -1865796.596 9        24.000         112.000
 90  6 16 19 26  0.0640000  0  2 02 11
  21789789.764     2275959.959 7   1773474.091 9        26.000         161.000
  21338056.678    -2418874.111 7  -1884832.904 9        24.000         108.000
 90  6 16 19 26 15.1680000  0  2 02 11
  21795149.687     2304123.781 7   1795419.910 9        27.000         159.000
  21333352.218    -2443592.094 7  -1904093.626 9        23.000         109.000
 90  6 16 19 26 30.0160000  0  2 02 11
  21800461.333     2332039.125 7   1817172.094 9        26.000         161.000
  21328794.212    -2467558.368 7  -1922768.612 9        23.000         107.000
 90  6 16 19 26 45.1200000  0  2 02 11
  21805881.454     2360526.153 7   1839369.762 9        26.000         164.000
  21324189.861    -2491740.830 7  -1941612.039 9        23.000         104.000
 90  6 16 19 27  0.2240000  0  2 02 11
  21811309.258     2389050.149 7   1861596.248 9        26.000         159.000
  21319617.146    -2515777.451 7  -1960341.820 9        23.000         103.000
 90  6 16 19 27 15.0720000  0  2 02 11
  21816649.753     2417113.915 7   1883464.099 9        26.000         164.000
  21315143.130    -2539277.218 7  -1978653.287 9        23.000         108.000
 90  6 16 19 27 30.1760000  0  2 02 11
  21822086.035     2445684.199 7   1905726.638 9        25.000         156.000
  21310620.122    -2563049.942 7  -1997177.449 9        23.000         105.000
 90  6 16 19 27 45.0240000  0  2 02 11
  21827435.631     2473791.754 7   1927628.601 9        26.000         157.000
  21306198.172    -2586291.165 7  -2015287.460 9        23.000         104.000
 90  6 16 19 28  0.1280000  0  2 02 11
  21832880.637     2502403.604 7   1949923.538 9        26.000         155.000
  21301724.350    -2609804.712 7  -2033609.666 9        23.000         111.000
 90  6 16 19 28 15.2320000  0  2 02 11
  21838329.515     2531032.270 7   1972231.576 9        26.000         150.000
  21297274.830    -2633191.471 7  -2051833.078 9        23.000         113.000
 90  6 16 19 28 30.0800000  0  2 02 11
  21843687.978     2559191.266 7   1994173.639 9        26.000         155.000
  21292922.222    -2656057.836 7  -2069650.983 9        23.000         112.000
 90  6 16 19 28 45.1840000  0  2 02 11
  21849141.217     2587850.732 7   2016505.666 9        25.000         143.000
  21288521.377    -2679191.889 7  -2087677.483 9        24.000         114.000
 90  6 16 19 29  0.0320000  0  2 02 11
  21854505.973     2616040.895 7   2038472.014 9        26.000         142.000
  21284216.732    -2701807.096 7  -2105299.686 9        23.000         116.000
 90  6 16 19 29 15.1360000  0  2 02 11
  21859965.781     2644733.931 7   2060830.205 9        26.000         143.000
  21279865.286    -2724683.379 7  -2123125.334 9        24.000         121.000
 90  6 16 19 29 30.2400000  0  2 02 11
  21865430.277     2673444.889 7   2083202.366 9        26.000         147.000
  21275536.171    -2747428.807 7  -2140849.005 9        23.000         119.000
 90  6 16 19 29 45.0880000  0  2 02 11
  21870806.545     2701692.513 7   2105213.483 9        26.000         152.000
  21271305.376    -2769655.751 7  -2158168.671 9        23.000         121.000
 90  6 16 19 30  0.1920000  0  2 02 11
  21876276.466     2730449.075 7   2127621.173 9        26.000         147.000
  21267029.584    -2792133.549 7  -2175683.802 9        24.000         119.000
 90  6 16 19 30 15.0400000  0  2 02 11
  21881661.723     2758738.854 7   2149665.135 9        26.000         147.000
  21262849.018    -2814099.337 7  -2192799.973 9        24.000         123.000
 90  6 16 19 30 30.1440000  0  2 02 11
  21887140.710     2787533.793 7   2172102.730 9        26.000         141.000
  21258622.585    -2836312.169 7  -2210108.636 9        24.000         126.000
 90  6 16 19 30 45.2480000  0  2 02 11
  21892622.807     2816342.434 7   2194551.004 9        26.000         139.000
  21254419.709    -2858395.531 7  -2227316.415 9        24.000         115.000
 90  6 16 19 31  0.0960000  0  2 02 11
  21898016.115     2844687.975 7   2216638.426 9        26.000         142.000
  21250315.164    -2879967.027 7  -2244125.341 9        24.000         116.000
 90  6 16 19 31 15.2000000  0  2 02 11
  21903507.385     2873542.192 7   2239122.207 9        26.000         146.000
  21246165.581    -2901776.054 7  -2261119.351 9        25.000         120.000
 90  6 16 19 31 30.0480000  0  2 02 11
  21908909.283     2901922.330 7   2261236.584 9        27.000         148.000
  21242109.946    -2923087.538 7  -2277725.668 9        24.000         111.000
 90  6 16 19 31 45.1520000  0  2 02 11
  21914405.058     2930808.815 7   2283745.514 9        26.000         144.000
  21238009.232    -2944633.979 7  -2294515.064 9        24.000         124.000
 90  6 16 19 32  0.2560000  0  2 02 11
  21919905.083     2959714.694 7   2306269.557 9        25.000         140.000
  21233935.915    -2966043.814 7  -2311198.027 9        24.000         113.000
 90  6 16 19 32 15.1040000  0  2 02 11
  21925315.613     2988150.549 7   2328427.349 9        25.000         141.000
  21229955.086    -2986955.094 7  -2327492.499 9        24.000         120.000
 90  6 16 19 32 30.2080000  0  2 02 11
  21930823.994     3017090.246 7   2350977.742 9        25.000         150.000
  21225932.988    -3008093.436 7  -2343963.901 9        24.000         112.000
 90  6 16 19 32 45.0560000  0  2 02 11
  21936238.651     3045554.731 7   2373157.846 9        24.000         151.000
  21222004.645    -3028742.122 7  -2360053.752 9        24.000         118.000
 90  6 16 19 33  0.1600000  0  2 02 11
  21941753.855     3074527.812 7   2395734.258 9        24.000         143.000
  21218031.947    -3049611.883 7  -2376315.874 9        23.000         116.000
 90  6 16 19 33 15.0080000  0  2 02 11
  21947177.184     3103029.343 7   2417943.211 9        24.000         152.000
  21214152.575    -3069993.050 7  -2392197.272 9        23.000         108.000
 90  6 16 19 33 30.1120000  0  2 02 11
  21952696.853     3132038.164 7   2440547.468 9        24.000         155.000
  21210235.029    -3090591.600 7  -2408248.054 9        23.000         110.000
 90  6 16 19 33 45.2160000  0  2 02 11
  21958222.211     3161065.254 7   2463165.964 9        24.000         149.000
  21206339.569    -3111053.366 7  -2424192.252 9        23.000         106.000
 90  6 16 19 34  0.0640000  0  2 02 11
  21963653.968     3189616.447 7   2485413.625 9        24.000         153.000
  21202537.608    -3131036.471 7  -2439763.476 9        23.000         109.000
 90  6 16 19 34 15.1680000  0  2 02 11
  21969183.933     3218679.417 7   2508060.072 9        23.000         146.000
  21198695.654    -3151227.269 7  -2455496.531 9        24.000         107.000
 90  6 16 19 34 30.0160000  0  2 02 11
  21974625.721     3247266.973 7   2530336.070 9        23.000         139.000
  21194942.174    -3170943.331 7  -2470859.662 9        23.000         109.000
 90  6 16 19 34 45.1200000  0  3 02 11 09
  21980162.408     3276365.120 7   2553009.921 9        23.000         141.000
  21191153.401    -3190866.454 7  -2486384.145 9        24.000         116.000
  24329082.622                                           0.621 3         6.000
 90  6 16 19 35  0.2240000  0  3 02 11 09
  21985703.028     3305484.332 7   2575700.198 9        23.000         137.000
  21187387.867    -3210652.620 7  -2501801.904 9        24.000         124.000
  24320415.581      -45553.599 3                                         6.000
 90  6 16 19 35 15.0720000  0  3 02 11 09
  21991153.468     3334127.629 7   2598019.625 9        23.000         139.000
  21183711.154    -3229970.980 7  -2516855.138 9        24.000         118.000
  24311890.081      -90361.637 4                                         7.000
 90  6 16 19 35 30.1760000  0  3 02 11 09
  21996703.445     3363284.219 7   2620739.028 9        23.000         140.000
  21179997.943    -3249485.107 7  -2532060.924 9        24.000         118.000
  24303207.308     -135966.020 3                                         6.000
 90  6 16 19 35 45.0240000  0  3 02 11 09
  22002160.229     3391963.830 7   2643086.754 9        23.000         144.000
  21176372.081    -3268535.147 7  -2546905.077 9        25.000         115.000
  24294674.607     -180822.426 3                                         6.000
 90  6 16 19 36  0.1280000  0  3 02 11 09
  22007716.304     3421156.828 7   2665834.520 9        24.000         141.000
  21172712.254    -3287775.411 7  -2561897.461 9        25.000         121.000
  24285983.131     -226475.377 3                                         6.000
 90  6 16 19 36 15.2320000  0  3 02 11 09
  22013273.237     3450362.672 7   2688592.296 9        24.000         141.000
  21169075.401    -3306880.894 7  -2576784.816 9        25.000         119.000
  24277295.449     -272156.347 3                                         5.000
 90  6 16 19 36 30.0800000  0  3 02 11 09
  22018738.152     3479086.192 7   2710974.238 9        24.000         132.000
  21165526.847    -3325530.095 7  -2591316.636 9        25.000         126.000
  24268738.813     -317089.100 3         0.49415         5.000           6.000
 90  6 16 19 36 45.1840000  0  3 02 11 09
  22024302.389     3508322.751 7   2733755.948 9        25.000         133.000
  21161943.512    -3344360.817 7  -2605989.888 9        24.000         119.000
  24260038.001     -362817.892 3    -35632.245 5         6.000           6.000
 90  6 16 19 37  0.0320000  0  3 02 11 09
  22029775.211     3537078.060 7   2756162.665 9        25.000         134.000
  21158449.334    -3362737.004 7  -2620308.972 9        25.000         121.000
  24251484.451     -407794.955 3    -70679.153 6         6.000          16.000
 90  6 16 19 37 15.1360000  0  3 02 11 09
  22035343.514     3566336.779 7   2778961.642 9        25.000         130.000
  21154915.194    -3381297.460 7  -2634771.628 9        24.000         117.000
  24242765.700     -453576.534 3   -106352.993 6         6.000          15.000
 90  6 16 19 37 30.2390000  0  3 02 11 09
  22040913.185     3595607.512 7   2801769.980 9        24.000         127.000
  21151408.217    -3399720.269 7  -2649127.031 9        24.000         120.000
  24234053.989     -499383.671 3   -142046.752 6         6.000          12.000
 90  6 16 19 37 45.0860000  0  3 02 11 09
  21746598.013     3624394.080 7   2824201.046 9        24.000         131.000
  20848196.867    -3417694.454 7  -2663132.864 9        24.000         118.000
  23925688.398                       17007.786 3         6.000
 90  6 16 19 38  0.1900000  0  3 02 11 09
  21752174.539     3653694.049 7   2847032.170 9        25.000         128.000
  20844742.743    -3435841.693 7  -2677273.532 9        23.000         118.000
  23916964.693                      -28847.148 3         6.000
 90  6 16 19 38 15.0380000  0  3 02 11 09
  21757656.105     3682506.180 7   2869483.164 9        24.000         122.000
  20841372.638    -3453552.051 7  -2691073.791 9        23.000         120.000
  23908378.801                      -73954.665 4         7.000
 90  6 16 19 38 30.1420000  0  3 02 11 09
  21763236.869     3711834.332 7   2892336.246 9        24.000         126.000
  20837970.295    -3471426.570 7  -2705001.956 9        23.000         119.000
  23899640.898     -119860.525 3    153685.53614         6.000           4.000
 90  6 16 19 38 45.2460000  0  3 02 11 09
  21768820.566     3741179.270 7   2915202.405 9        23.000         126.000
  20834597.126    -3489161.663 7  -2718821.490 9        24.000         115.000
  23890902.647     -165790.158 3    117896.286 5         6.000           7.000
 90  6 16 19 39  0.0940000  0  3 02 11 09
  21774314.737     3770048.627 7   2937697.987 9        24.000         125.000
  20831305.106    -3506455.743 7  -2732297.367 9        24.000         122.000
  23882306.815     -210960.082 3     82699.061 5         6.000           8.000
 90  6 16 19 39 15.1980000  0  3 02 11 09
  21779906.923     3799431.974 7   2960594.067 9        24.000         131.000
  20827983.943    -3523910.225 7  -2745898.244 9        24.000         117.000
  23873555.520     -256933.002 3     46876.143 6         6.000          13.000
 90  6 16 19 39 30.0460000  0  3 02 11 09
  21785407.499     3828337.350 7   2983117.718 9        24.000         120.000
  20824744.490    -3540930.248 7  -2759160.571 9        24.000         122.000
  23864953.253     -302147.261 3     11644.359 5         6.000           8.000
 90  6 16 19 39 45.1500000  0  3 02 11 09
  21791007.305     3857759.897 7   3006044.362 9        23.000         119.000
  20821476.333    -3558104.472 7  -2772543.057 9        24.000         119.000
  23856195.971     -348163.921 3    -24212.644 5         6.000          10.000
 90  6 16 19 40  0.2540000  0  3 02 11 09
  21796610.482     3887209.429 7   3028992.023 9        23.000         121.000
  20818238.199    -3575128.693 7  -2785808.665 9        25.000         120.000
  23847435.604     -394194.134 3    -60080.230 5         6.000           9.000
 90  6 16 19 40 15.1020000  0  3 02 11 09
  21802122.274     3916177.163 7   3051564.266 9        23.000         120.000
  20815078.742    -3591725.892 7  -2798741.528 9        24.000         119.000
  23838821.487     -439464.962 3    -95356.084 5         6.000           8.000
 90  6 16 19 40 30.2060000  0  3 02 11 09
  21807733.879     3945665.978 7   3074542.545 9        23.000         123.000
  20811894.247    -3608463.754 7  -2811783.994 9        25.000         119.000
  23830054.092     -485532.973 3   -131253.113 5         6.000           9.000
 90  6 16 19 40 45.0540000  0  3 02 11 09
  21813255.835     3974682.348 7   3097152.679 9        23.000         121.000
  20808790.605    -3624768.151 7  -2824488.702 9        24.000         118.000
  23821434.184     -530829.897 3   -166549.261 5         6.000           6.000
 90  6 16 19 41  0.1580000  0  3 02 11 09
  21818878.482     4004231.114 7   3120177.666 9        23.000         118.000
  20805664.756    -3641197.347 7  -2837290.652 9        25.000         122.000
  23812668.995     -576913.552 4   -202458.527 6         7.000          14.000
 90  6 16 19 41 15.0060000  0  3 02 11 09
  21824409.632     4033298.224 7   3142827.330 9        22.000         119.000
  20802618.738    -3657206.617 7  -2849765.387 9        25.000         124.000
  23804041.456     -622234.063 3   -237773.094 5         6.000           9.000
 90  6 16 19 41 30.1100000  0  3 02 11 09
  21830041.554     4062891.262 7   3165886.818 9        23.000         120.000
  20799549.470    -3673341.323 7  -2862337.860 9        25.000         121.000
  23795267.942     -668347.532 4   -273705.564 5         7.000          10.000
 90  6 16 19 41 45.2140000  0  3 02 11 09
  21835679.289     4092515.472 7   3188970.590 9        23.000         128.000
  20796507.978    -3689318.300 7  -2874787.430 9        24.000         117.000
  23786487.533     -714466.832 4   -309642.562 5         7.000           5.000
 90  6 16 19 42  0.0620000  0  3 02 11 09
  21841218.039     4121624.419 7   3211652.868 9        23.000         126.000
  20793539.667    -3704913.527 7  -2886939.529 9        24.000         121.000
  23777853.313     -759852.934 4   -345008.211 5         7.000          11.000
 90  6 16 19 42 15.1660000  0  3 02 11 09
  21846852.403     4151226.623 7   3234719.501 9        22.000         116.000
  20790542.192    -3720659.445 7  -2899209.051 9        24.000         117.000
  23769058.296     -806065.554 4   -381017.959 5         7.000           6.000
 90  6 16 19 42 30.0140000  0  3 02 11 09
  21852391.357     4180346.362 7   3257410.189 9        22.000         115.000
  20787625.651    -3735995.930 7  -2911159.538 9        24.000         125.000
  23760410.531     -851511.835 4   -416430.507 5         7.000          11.000
 90  6 16 19 42 45.1180000  0  3 02 11 09
  21858031.819     4209979.527 7   3280500.944 9        23.000         121.000
  20784682.796    -3751461.161 7  -2923210.341 9        25.000         127.000
  23751610.355     -897768.292 4   -452474.408 6         7.000          14.000
 90  6 16 19 43  0.2220000  0  3 02 11 09
  21863676.092     4239640.484 7   3303613.351 9        23.000         119.000
  20781767.267    -3766774.533 7  -2935142.819 9        24.000         122.000
  23742803.335     -944036.487 3   -488527.410 6         6.000          12.000
 90  6 16 19 43 15.0700000  0  3 02 11 09
  21869227.468     4268814.927 7   3326346.663 9        22.000         123.000
  20778930.538    -3781690.702 7  -2946765.793 9        24.000         120.000
  23734142.270     -989542.234 3   -523986.319 6         6.000          12.000
 90  6 16 19 43 30.1740000  0  3 02 11 09
  21874879.228     4298513.751 7   3349488.581 9        22.000         115.000
  20776069.731    -3796717.539 7  -2958474.987 9        24.000         124.000
  23725334.800    -1035848.353 4   -560068.897 5         7.000           6.000
 90  6 16 19 43 45.0220000  0  3 02 11 09
  21880438.009     4327728.227 7   3372253.084 9        22.000         128.000
  20773286.090    -3811348.337 7  -2969875.596 9        24.000         117.000
  23716667.064    -1081387.811 4   -595554.075 6         7.000          14.000
 90  6 16 19 44  0.1260000  0  3 02 11 09
  21886097.285     4357469.648 7   3395428.195 9        22.000         121.000
  20770483.214    -3826083.514 7  -2981357.541 9        25.000         125.000
  23707850.728    -1127726.776 4   -631662.248 5         7.000           8.000
 90  6 16 19 44 15.2300000  0  3 02 11 09
  21891761.916     4387233.893 7   3418621.097 9        22.000         117.000
  20767705.365    -3840669.324 7  -2992723.082 9        24.000         123.000
  23699026.976    -1174079.953 5   -667781.488 5         8.000           5.000
 90  6 16 19 44 30.0780000  0  3 02 11 09
  21897334.529     4416516.005 7   3441438.303 9        22.000         118.000
  20765005.100    -3854861.809 7  -3003782.144 9        24.000         121.000
  23690356.287    -1219660.718 4   -703298.866 5         7.000          11.000
 90  6 16 19 44 45.1820000  0  3 02 11 09
  21903007.241     4446325.446 7   3464666.416 9        22.000         124.000
  20762286.560    -3869150.149 7  -3014915.897 9        24.000         117.000
  23681531.271    -1266040.841 4   -739439.148 5         7.000          10.000
 90  6 16 19 45  0.0300000  0  3 02 11 09
  21908586.218     4475642.211 7   3487510.626 9        22.000         120.000
  20759639.434    -3883057.718 7  -3025752.942 9        24.000         115.000
  23672846.996    -1311655.651 4   -774983.017 6         7.000          13.000
 90  6 16 19 45 15.1340000  0  3 02 11 09
  21914265.426     4505488.853 7   3510767.721 9        22.000         115.000
  20756976.904    -3897050.397 7  -3036656.310 9        24.000         122.000
  23664017.932    -1358064.258 4   -811145.435 6         7.000          12.000
 90  6 16 19 45 30.2380000  0  3 02 11 09
  21919948.067     4535349.322 7   3534035.588 9        23.000         119.000
  20754342.844    -3910897.044 7  -3047445.891 9        24.000         113.000
  23655181.922    -1404490.346 4   -847321.509 6         7.000          19.000
 90  6 16 19 45 45.0860000  0  3 02 11 09
  21925535.748     4564719.150 7   3556921.151 9        22.000         117.000
  20751780.422    -3924365.663 7  -3057940.898 9        24.000         119.000
  23646495.461    -1450145.420 5   -882896.771 6         8.000          16.000
 90  6 16 19 46  0.1900000  0  3 02 11 09
  21931227.326     4594619.613 7   3580220.187 9        22.000         115.000
  20749201.902    -3937913.285 7  -3068497.469 9        24.000         116.000
  23637655.702    -1496596.629 4   -919092.377 5         7.000           9.000
 90  6 16 19 46 15.0380000  0  3 02 11 09
  21936821.678     4624025.545 7   3603133.894 9        23.000         114.000
  20746693.917    -3951091.263 7  -3078766.003 9        24.000         124.000
  23628959.629    -1542279.800 4   -954689.575 6         7.000          14.000
 90  6 16 19 46 30.1420000  0  3 02 11 09
  21942514.002     4653938.671 7   3626442.783 9        23.000         108.000
  20744167.667    -3964367.030 7  -3089110.739 9        24.000         117.000
  23620110.666    -1588783.161 4   -990925.848 6         7.000          15.000
 90  6 16 19 46 45.2460000  0  3 02 11 09
  21948209.064     4683861.780 7   3649759.472 9        23.000         107.000
  20741666.976    -3977502.781 7  -3099346.365 9        24.000         114.000
  23611259.323    -1635309.847 5  -1027180.313 6         8.000          14.000
 90  6 16 19 47  0.0940000  0  3 02 11 09
  21953804.559     4713279.544 7   3672682.383 9        22.000         112.000
  20739234.594    -3990287.183 7  -3109308.220 9        24.000         116.000
  23602548.591    -1681078.420 4  -1062844.023 6         7.000          13.000
 90  6 16 19 47 15.1980000  0  3 02 11 09
  21959503.708     4743220.328 7   3696012.843 9        22.000         104.000
  20736787.808    -4003147.570 7  -3119329.282 9        24.000         118.000
  23593684.703    -1727653.486 3  -1099136.167 6         6.000          15.000
 90  6 16 19 47 30.0460000  0  3 02 11 09
  21965108.131     4772669.729 7   3718960.407 9        22.000         106.000
  20734409.300    -4015647.207 7  -3129069.244 9        24.000         120.000
  23584971.786    -1773455.409 4  -1134825.852 6         7.000          13.000
 90  6 16 19 47 45.1500000  0  3 02 11 09
  21970811.723     4802649.036 7   3742320.882 9        22.000         105.000
  20732017.809    -4028211.588 7  -3138859.652 9        24.000         120.000
  23576100.972    -1820058.047 4  -1171139.484 6         7.000          18.000
 90  6 16 19 48  0.2540000  0  3 02 11 09
  21976522.557     4832647.596 7   3765696.360 9        22.000         107.000
  20729656.361    -4040624.863 7  -3148532.316 9        24.000         128.000
  23567232.835    -1866672.909 4  -1207462.612 6         7.000          18.000
 90  6 16 19 48 15.1020000  0  3 02 11 09
  21982136.378     4862154.298 7   3788688.572 9        22.000         105.000
  20727360.882    -4052681.329 7  -3157926.945 9        24.000         125.000
  23558507.444    -1912510.191 4  -1243179.891 6         7.000          15.000
 90  6 16 19 48 30.2060000  0  3 02 11 09
  21987852.432     4892193.587 7   3812095.790 9        22.000         102.000
  20725057.814    -4064788.516 7  -3167361.092 9        24.000         120.000
  23549635.149    -1959142.274 4  -1279516.471 5         7.000           9.000
 90  6 16 19 48 45.0540000  0  3 02 11 09
  21993476.213     4921747.393 7   3835124.701 9        22.000          98.000
  20722822.830    -4076535.445 7  -3176514.527 9        24.000         118.000
  23540910.964    -2004987.863 4  -1315240.209 5         7.000          11.000
 90  6 16 19 49  0.1580000  0  3 02 11 09
  21999202.278     4951836.686 7   3858570.883 9        21.000          97.000
  20720579.550    -4088323.124 7  -3185699.706 9        24.000         120.000
  23532035.809    -2051623.639 4  -1351579.637 6         7.000          15.000
 90  6 16 19 49 15.0060000  0  3 02 11 09
  22004837.285     4981444.775 7   3881642.101 9        22.000          92.000
  20718404.825    -4099749.090 7  -3194603.037 9        24.000         128.000
  23523313.615    -2097465.830 4  -1387300.729 5         7.000          10.000
 90  6 16 19 49 30.1100000  0  3 02 11 09
  22010571.349     5011585.302 7   3905128.210 9        22.000          91.000
  20716222.377    -4111214.211 7  -3203536.875 9        24.000         124.000
  23514435.171    -2144101.821 4  -1423640.350 5         7.000          10.000
 90  6 16 19 49 45.2140000  0  3 02 11 09
  22016314.228     5041750.789 7   3928633.758 9        22.000         104.000
  20714072.005    -4122518.524 7  -3212345.409 9        24.000         126.000
  23505560.802    -2190739.721 4  -1459981.445 6         7.000          13.000
 90  6 16 19 50  0.0620000  0  3 02 11 09
  22021960.063     5071422.801 7   3951754.780 9        22.000          96.000
  20711985.804    -4133481.343 7  -3220887.844 9        24.000         126.000
  23496834.452    -2236595.766 4  -1495713.325 6         7.000          16.000
 90  6 16 19 50 15.1660000  0  3 02 11 09
  22027707.477     5101626.184 7   3975289.869 9        23.000          92.000
  20709892.351    -4144480.177 7  -3229458.344 9        23.000         128.000
  23487959.531    -2283250.517 5  -1532067.606 5         8.000          11.000
 90  6 16 19 50 30.0140000  0  3 02 11 09
  22033360.759     5131336.822 7   3998440.982 9        22.000          92.000
  20707862.977    -4155143.435 7  -3237767.358 9        23.000         121.000
  23479228.778    -2329123.816 5  -1567812.897 6         8.000          13.000
 90  6 16 19 50 45.1180000  0  3 02 11 09
  22039115.529     5161582.517 7   4022009.041 9        22.000          92.000
  20705827.934    -4165836.572 7  -3246099.653 9        23.000         125.000
  23470348.515    -2375795.194 5  -1604180.110 6         8.000          13.000
 90  6 16 19 51  0.2220000  0  3 02 11 09
  22044860.094     5191764.068 7   4045527.100 9        21.000          91.000
  20703807.141    -4176462.749 7  -3254379.770 9        23.000         120.000
  23461449.375    -2422561.974 5  -1640621.650 6         8.000          12.000
 90  6 16 19 51 15.0700000  0  3 02 11 09
  22050503.651     5221421.002 7   4068636.373 9        21.000          90.000
  20701839.437    -4186796.161 7  -3262431.752 9        23.000         116.000
  23452690.948    -2468581.782 4  -1676481.132 6         7.000          12.000
 90  6 16 19 51 30.1740000  0  3 02 11 09
  22056254.447     5251640.574 7   4092184.072 9        21.000          88.000
  20699872.846    -4197129.093 7  -3270483.374 9        23.000         114.000
  23443788.396    -2515377.114 5  -1712944.916 6         8.000          14.000
 90  6 16 19 51 45.0220000  0  3 02 11 09
  22061915.012     5281391.126 7   4115366.285 9        21.000          89.000
  20697973.766    -4207118.168 7  -3278267.049 9        23.000         114.000
  23435032.462    -2561368.497 5  -1748782.249 5         8.000          10.000
 90  6 16 19 52  0.1260000  0  3 02 11 09
  22067676.707     5311669.548 7   4138959.831 9        20.000          94.000
  20696066.433    -4217136.283 7  -3286073.345 9        23.000         121.000
  23426129.695    -2608170.252 5  -1785251.056 5         8.000           6.000
 90  6 16 19 52 15.2300000  0  3 02 11 09
  22073451.376     5342012.491 7   4162603.658 9        20.000          93.000
  20694196.692    -4226959.080 7  -3293727.450 9        24.000         120.000
  23417226.611    -2654938.677 4  -1821693.890 5         7.000          10.000
 90  6 16 19 52 30.0780000  0  3 02 11 09
  22079135.364     5371886.670 7   4185882.215 9        20.000          89.000
  20692394.453    -4236442.247 7  -3301116.912 9        24.000         123.000
  23408478.563    -2700899.107 4  -1857507.121 6         7.000          13.000
 90  6 16 19 52 45.1820000  0  3 02 11 09
  22084923.772     5402304.427 7   4209584.342 9        20.000          88.000
  20690587.432    -4245929.816 7  -3308509.806 9        24.000         120.000
  23399585.675    -2747653.104 4  -1893938.705 6         7.000          18.000
 90  6 16 19 53  0.0300000  0  3 02 11 09
  22090607.812     5432174.751 7   4232859.897 9        20.000          88.000
  20688831.212    -4255159.760 7  -3315701.951 9        24.000         129.000
  23390828.249    -2793675.416 4  -1929800.155 5         7.000          11.000
 90  6 16 19 53 15.1340000  0  3 02 11 09
  22096392.706     5462568.338 7   4256543.183 9        21.000          88.000
  20687070.293    -4264408.116 7  -3322908.441 9        24.000         123.000
  23381915.265    -2840510.648 5  -1966295.044 6         8.000          12.000
 90  6 16 19 53 30.2380000  0  3 02 11 09
  22102180.001     5492985.470 7   4280244.819 9        20.000          94.000
  20685342.238    -4273497.571 7  -3329991.115 9        24.000         131.000
  23372999.280    -2887348.516 5  -2002791.988 6         8.000          20.000
 90  6 16 19 53 45.0860000  0  3 02 11 09
  22107873.346     5522903.819 7   4303557.802 9        20.000          87.000
  20683669.065    -4282283.076 7  -3336836.949 9        24.000         129.000
  23364236.787    -2933400.015 4  -2038676.192 6         7.000          22.000
 90  6 16 19 54  0.1900000  0  3 02 11 09
  22113668.721     5553356.209 7   4327286.900 9        20.000          92.000
  20681997.414    -4291067.586 7  -3343682.004 9        23.000         125.000
  23355318.626    -2980252.731 4  -2075184.692 6         7.000          19.000
 90  6 16 19 54 15.0380000  0  3 02 11 09
  22119369.473     5583311.571 7   4350628.706 9        20.000          94.000
  20680383.571    -4299552.147 7  -3350293.331 9        23.000         122.000
  23346554.500    -3026317.302 4  -2111079.084 6         7.000          20.000
 90  6 16 19 54 30.1420000  0  3 02 11 09
  22125170.425     5613799.475 7   4374385.478 9        20.000          87.000
  20678769.942    -4308033.266 7  -3356901.976 9        23.000         122.000
  23337638.893    -3073186.030 5  -2147600.075 6         8.000          20.000
 90  6 16 19 54 45.2460000  0  3 02 11 09
  22130975.340     5644303.286 7   4398154.666 9        20.000          91.000
  20677183.241    -4316364.466 7  -3363393.813 9        23.000         129.000
  23328716.809    -3120065.737 5  -2184129.615 6         8.000          17.000
 90  6 16 19 55  0.0940000  0  3 02 11 09
  22136684.764     5674304.959 7   4421532.573 9        21.000          99.000
  20675652.897    -4324408.690 7  -3369662.027 9        23.000         124.000
  23319942.804    -3166161.882 5  -2220048.604 6         8.000          21.000
 90  6 16 19 55 15.1980000  0  3 02 11 09
  22142495.635     5704844.359 7   4445329.478 9        21.000          94.000
  20674125.525    -4332438.048 7  -3375918.648 9        23.000         124.000
  23311021.844    -3213058.501 5  -2256591.351 6         8.000          22.000
 90  6 16 19 55 30.0460000  0  3 02 11 09
  22148212.557     5734883.611 7   4468736.659 9        21.000          93.000
  20672650.976    -4340183.833 7  -3381954.309 9        23.000         113.000
  23302246.205    -3259169.099 5  -2292521.579 6         8.000          17.000
 90  6 16 19 55 45.1500000  0  3 02 11 09
  22154031.468     5765459.572 7   4492562.063 9        21.000         103.000
  20671180.553    -4347912.937 7  -3387976.976 9        23.000         113.000
  23293320.536    -3306083.638 5  -2329078.283 7         8.000          26.000
 90  6 16 19 56  0.2540000  0  3 02 11 09
  22159852.268     5796056.820 7   4516404.047 9        20.000         108.000
  20669739.060    -4355486.970 7  -3393878.801 9        24.000         114.000
  23284389.687    -3353003.455 5  -2365639.095 6         8.000          21.000
 90  6 16 19 56 15.1020000  0  3 02 11 09
  22165579.803     5826150.627 7   4539853.739 9        21.000          98.000
  20668349.971    -4362785.905 7  -3399566.269 9        24.000         115.000
  23275610.545    -3399137.343 5  -2401587.475 6         8.000          22.000
 90  6 16 19 56 30.2060000  0  3 02 11 09
  22171408.581     5856778.197 7   4563719.349 9        21.000         100.000
  20666965.755    -4370061.011 7  -3405235.165 9        24.000         123.000
  23266679.328    -3446075.486 5  -2438162.578 7         8.000          29.000
 90  6 16 19 56 45.0540000  0  3 02 11 09
  22177140.213     5886901.109 7   4587191.730 9        21.000          95.000
  20665634.116    -4377065.862 7  -3410693.481 9        25.000         126.000
  23257893.341    -3492226.940 5  -2474124.653 6         8.000          25.000
 90  6 16 19 57  0.1580000  0  3 02 11 09
  22182974.181     5917558.206 7   4611080.352 9        21.000          86.000
  20664304.336    -4384041.151 7  -3416128.756 9        24.000         125.000
  23248960.409    -3539182.150 5  -2510713.030 6         8.000          24.000
 90  6 16 19 57 15.0060000  0  3 02 11 09
  22188712.022     5947711.003 7   4634576.006 9        21.000          96.000
  20663028.942    -4390748.051 7  -3421354.909 9        24.000         128.000
  23240174.483    -3585347.054 5  -2546685.613 6         8.000          21.000
 90  6 16 19 57 30.1100000  0  3 02 11 09
  22194552.660     5978396.010 7   4658486.375 9        21.000          94.000
  20661759.206    -4397422.172 7  -3426555.513 9        24.000         122.000
  23231237.822    -3632317.545 5  -2583285.892 7         8.000          28.000
 90  6 16 19 57 45.2140000  0  3 02 11 09
  22200393.390     6009096.207 7   4682408.573 9        21.000          95.000
  20660518.830    -4403943.005 7  -3431636.670 9        24.000         122.000
  23222297.627    -3679294.260 5  -2619891.026 6         8.000          18.000
 90  6 16 19 58  0.0620000  0  3 02 11 09
  22206139.231     6039290.696 7   4705936.720 9        20.000          89.000
  20659326.924    -4410202.468 7  -3436514.155 9        24.000         126.000
  23213508.872    -3725478.903 5  -2655878.957 6         8.000          22.000
 90  6 16 19 58 15.1660000  0  3 02 11 09
  22211987.592     6070019.762 7   4729881.411 9        20.000          83.000
  20658143.629    -4416418.565 7  -3441357.871 9        24.000         125.000
  23204566.848    -3772466.219 5  -2692492.374 6         8.000          21.000
 90  6 16 19 58 30.0140000  0  3 02 11 09
  22217738.735     6100244.355 7   4753433.010 9        20.000          84.000
  20657010.614    -4422379.865 7  -3446003.026 9        24.000         119.000
  23195775.416    -3818662.631 5  -2728489.480 6         8.000          20.000
 90  6 16 19 58 45.1180000  0  3 02 11 09
  22223592.601     6131007.953 7   4777404.618 9        20.000          85.000
  20655885.086    -4428291.100 7  -3450609.182 9        24.000         123.000
  23186831.543    -3865660.015 5  -2765110.737 6         8.000          20.000
 90  6 16 19 59  0.2220000  0  3 02 11 09
  22229449.655     6161787.640 7   4801388.759 9        20.000          85.000
  20654789.591    -4434049.951 7  -3455096.588 9        24.000         125.000
  23177889.070    -3912663.412 5  -2801736.660 7         8.000          27.000
 90  6 16 19 59 15.0700000  0  3 02 11 09
  22235212.627     6192061.024 7   4824978.383 9        21.000          80.000
  20653739.737    -4439563.166 7  -3459392.591 9        24.000         120.000
  23169092.919    -3958876.578 5  -2837746.839 7         8.000          27.000
 90  6 16 19 59 30.1740000  0  3 02 11 09
  22241074.512     6222877.284 7   4848991.021 9        20.000          79.000
  20652702.059    -4445016.454 7  -3463641.896 9        24.000         119.000
  23160147.442    -4005888.354 5  -2874379.318 7         8.000          31.000
 90  6 16 19 59 45.0220000  0  3 02 11 09
  22246842.858     6253188.931 7   4872610.456 9        20.000          72.000
  20651710.095    -4450228.281 7  -3467703.055 9        23.000         125.000
  23151354.458    -4052108.414 5  -2910394.869 7         9.000          27.000
 90  6 16 20  0  0.1260000  0  3 02 11 09
  22252713.610     6284036.950 7   4896647.839 9        20.000          70.000
  20650729.898    -4455382.412 7  -3471719.253 9        24.000         117.000
  23142403.261    -4099134.322 5  -2947038.348 7         9.000          34.000
 90  6 16 20  0 15.2300000  0  3 02 11 09
  22258586.282     6314903.595 7   4920699.739 9        20.000          80.000
  20649777.558    -4460383.046 7  -3475615.848 9        24.000         125.000
  23133454.965    -4146164.459 5  -2983685.114 7         9.000          33.000
 90  6 16 20  0 30.0780000  0  3 02 11 09
  22264364.638     6345264.390 6   4944357.469 9        19.000          76.000
  20648871.043    -4465150.108 7  -3479330.430 9        24.000         138.000
  23124657.281    -4192402.029 5  -3019714.298 6         9.000          25.000
 90  6 16 20  0 45.1820000  0  3 02 11 09
  22270243.848     6376161.832 6   4968433.365 9        19.000          73.000
  20647975.836    -4469850.464 7  -3482993.040 9        24.000         128.000
  23115703.162    -4239443.873 5  -3056370.187 6         9.000          19.000
 90  6 16 20  1  0.0300000  0  3 02 11 09
  22276027.568     6406551.331 6   4992113.476 9        19.000          77.000
  20647125.291    -4474321.775 7  -3486477.173 9        24.000         136.000
  23106905.346    -4285692.264 5  -3092407.835 7         9.000          26.000
 90  6 16 20  1 15.1340000  0  3 02 11 09
  22281913.019     6437480.109 6   5016213.797 9        19.000          73.000
  20646288.729    -4478719.104 7  -3489903.658 9        24.000         129.000
  23097950.788    -4332742.745 5  -3129070.449 6         9.000          25.000
 90  6 16 20  1 30.2380000  0  3 02 11 09
  22287801.025     6468424.840 6   5040326.532 9        19.000          79.000
  20645480.872    -4482963.149 7  -3493210.699 9        24.000         131.000
  23088994.126    -4379796.607 5  -3165735.715 7         9.000          29.000
 90  6 16 20  1 45.0860000  0  3 02 11 09
  22293592.088     6498851.976 6   5064035.962 9        19.000          78.000
  20644714.060    -4486994.054 7  -3496351.665 9        24.000         129.000
  23080193.031    -4426064.408 5  -3201788.458 7         9.000          26.000
 90  6 16 20  2  0.1900000  0  3 02 11 09
  22299483.710     6529816.672 6   5088164.272 9        19.000          75.000
  20643961.518    -4490944.156 7  -3499429.651 9        24.000         129.000
  23071232.467    -4473134.764 5  -3238466.569 6         9.000          22.000
 90  6 16 20  2 15.0380000  0  3 02 11 09
  22305278.604     6560268.498 6   5111892.934 9        18.000          75.000
  20643251.656    -4494679.825 7  -3502340.562 9        24.000         132.000
  23062426.254    -4519412.110 5  -3274526.750 6         9.000          20.000
 90  6 16 20  2 30.1420000  0  3 02 11 09
  22311175.916     6591259.128 6   5136041.457 9        18.000          72.000
  20642557.402    -4498328.199 7  -3505183.445 9        24.000         128.000
  23053466.680    -4566490.389 5  -3311211.057 7         9.000          28.000
 90  6 16 20  2 45.2460000  0  3 02 11 09
  22317076.710     6622265.095 6   5160201.920 9        18.000          69.000
  20641892.322    -4501823.674 7  -3507907.189 9        24.000         128.000
  23044511.673    -4613571.582 5  -3347897.638 7         9.000          27.000
 90  6 16 20  3  0.0940000  0  3 02 11 09
  22322878.898     6652759.989 6   5183964.153 9        18.000          74.000
  20641266.448    -4505112.580 7  -3510469.967 9        24.000         125.000
  23035701.098    -4659859.104 5  -3383965.749 6         9.000          25.000
 90  6 16 20  3 15.1980000  0  3 02 11 09
  22328785.158     6683794.159 6   5208146.588 9        18.000          82.000
  20640659.186    -4508309.675 7  -3512961.205 9        24.000         127.000
  23026740.308    -4706950.574 5  -3420660.313 6         9.000          21.000
 90  6 16 20  3 30.0460000  0  3 02 11 09
  22334594.803     6714321.639 6   5231934.209 9        18.000          73.000
  20640089.241    -4511300.234 7  -3515291.509 9        24.000         128.000
  23017931.940    -4753242.899 5  -3456732.169 7         9.000          26.000
 90  6 16 20  3 45.1500000  0  3 02 11 09
  22340504.751     6745386.462 6   5256140.524 9        18.000          77.000
  20639537.447    -4514197.378 7  -3517549.018 9        24.000         127.000
  23008968.362    -4800341.945 5  -3493432.635 6         9.000          21.000
 90  6 16 20  4  0.2540000  0  3 02 11 09
  22346422.053     6776469.347 6   5280360.923 9        18.000          78.000
  20639014.848    -4516941.778 7  -3519687.509 9        24.000         125.000
  23000003.007    -4847443.154 5  -3530134.807 7         9.000          27.000
 90  6 16 20  4 15.1020000  0  3 02 11 09
  22352237.500     6807044.006 6   5304185.297 9        18.000          65.000
  20638531.639    -4519489.482 7  -3521672.718 9        24.000         127.000
  22991192.748    -4893746.406 5  -3566215.173 6         9.000          24.000
 90  6 16 20  4 30.2060000  0  3 02 11 09
  22358159.726     6838159.780 6   5328431.333 9        18.000          74.000
  20638065.551    -4521933.161 7  -3523576.891 9        24.000         131.000
  22982231.030    -4940853.248 5  -3602921.722 6         9.000          23.000
 90  6 16 20  4 45.0540000  0  3 02 11 09
  22363983.356     6868763.434 6   5352278.299 9        18.000          74.000
  20637637.004    -4524188.725 7  -3525334.467 9        24.000         130.000
  22973415.786    -4987165.279 5  -3639008.965 6         9.000          22.000
 90  6 16 20  5  0.1580000  0  3 02 11 09
  22369911.364     6899912.353 6   5376550.157 9        18.000          75.000
  20637229.346    -4526330.633 7  -3527003.485 9        25.000         132.000
  22964450.553    -5034275.917 5  -3675718.468 7         9.000          26.000
 90  6 16 20  5 15.0060000  0  3 02 11 09
  22375738.711     6930541.173 6   5400416.738 9        18.000          75.000
  20636855.133    -4528294.136 7  -3528533.484 9        24.000         134.000
  22955638.099    -5080595.772 5  -3711811.774 6         9.000          24.000
 90  6 16 20  5 30.1100000  0  3 02 11 09
  22381671.622     6961710.082 6   5424704.174 9        17.000          81.000
  20636504.067    -4530142.617 7  -3529973.856 9        24.000         132.000
  22946670.823    -5127717.580 5  -3748529.972 7         9.000          36.000
 90  6 16 20  5 45.2140000  0  3 02 11 09
  22387604.268     6992889.909 6   5449000.100 9        18.000          84.000
  20636179.939    -4531842.072 7  -3531298.101 9        24.000         137.000
  22937704.017    -5174843.498 5  -3785251.384 7         9.000          27.000
 90  6 16 20  6  0.0620000  0  3 02 11 09
  22393439.226     7023553.580 6   5472893.837 9        18.000          78.000
  20635889.735    -4533365.261 7  -3532485.000 9        24.000         133.000
  22928886.914    -5221172.496 5  -3821351.827 6         9.000          22.000
 90  6 16 20  6 15.1660000  0  3 02 11 09
  22399376.856     7054753.272 6   5497205.253 9        18.000          74.000
  20635622.883    -4534769.974 7  -3533579.576 9        24.000         139.000
  22919917.197    -5268306.986 5  -3858079.927 7         9.000          30.000
 90  6 16 20  6 30.0140000  0  3 02 11 09
  22405214.920     7085436.078 6   5521113.900 9        17.000          77.000
  20635387.524    -4536003.949 7  -3534541.115 9        24.000         144.000
  22911102.005    -5314644.509 5  -3894186.989 7         9.000          33.000
 90  6 16 20  6 45.1180000  0  3 02 11 09
  22411156.851     7116659.265 6   5545443.627 9        18.000          77.000
  20635176.794    -4537110.397 7  -3535403.283 9        24.000         141.000
  22902128.283    -5361783.290 5  -3930918.424 7         9.000          30.000
 90  6 16 20  7  0.2220000  0  3 02 11 09
  22417100.590     7147892.789 6   5569781.403 9        18.000          76.000
  20634992.859    -4538068.533 7  -3536149.874 9        23.000         142.000
  22893158.280    -5408925.702 5  -3967652.705 6         9.000          24.000
 90  6 16 20  7 15.0700000  0  3 02 11 09
  22422945.171     7178609.446 6   5593716.427 9        18.000          80.000
  20634843.644    -4538864.512 7  -3536770.116 9        24.000         136.000
  22884339.257    -5455271.177 5  -4003765.984 7        10.000          28.000
 90  6 16 20  7 30.1740000  0  3 02 11 09
  22428893.884     7209871.216 6   5618076.212 9        18.000          75.000
  20634717.486    -4539525.078 7  -3537284.835 9        24.000         144.000
  22875366.230    -5502417.092 5  -4040502.975 7        10.000          27.000
 90  6 16 20  7 45.0220000  0  3 02 11 09
  22434746.014     7240617.974 6   5642034.693 9        18.000          82.000
  20634622.698    -4540028.105 7  -3537676.803 9        23.000         143.000
  22866546.992    -5548765.159 5  -4076618.269 6        10.000          24.000
 90  6 16 20  8  0.1260000  0  3 02 11 09
  22440698.947     7271904.474 6   5666413.745 9        17.000          71.000
  20634551.977    -4540395.117 7  -3537962.782 9        24.000         140.000
  22857575.048    -5595917.608 5  -4113360.357 6        10.000          20.000
 90  6 16 20  8 15.2300000  0  3 02 11 09
  22446653.391     7303200.664 6   5690800.358 9        17.000          77.000
  20634511.574    -4540616.620 7                        24.000
  22848599.478    -5643075.449 5  -4150106.654 6         9.000          23.000
 90  6 16 20  8 30.0780000  0  3 02 11 09
  22452510.608     7333983.584 6   5714787.007 9        17.000          70.000
  20634496.985    -4540684.932 7                        24.000
  22839779.474    -5689431.313 5  -4186228.026 7        10.000          29.000
 90  6 16 20  8 45.1820000  0  3 02 11 09
  22458473.031     7365310.619 6   5739197.655 9        17.000          80.000
  20634512.858    -4540606.110 7                        24.000
  22830805.160    -5736587.193 5  -4222972.794 7        10.000          30.000
 90  6 16 20  9  0.0300000  0  3 02 11 09
  22464339.073     7396126.005 6   5763209.609 9        17.000          75.000
  20634554.739    -4540376.272 7                        24.000
  22821984.860    -5782937.816 5  -4259090.085 7        11.000          28.000
 90  6 16 20  9 15.1340000  0  3 02 11 09
  22470304.060     7427486.309 6   5787646.181 9        17.000          77.000
  20634627.725    -4539993.030 7                        24.000
  22813012.671    -5830086.846 5  -4295829.513 7        11.000          35.000
 90  6 16 20  9 30.2380000  0  3 02 11 09
  22476276.565     7458859.844 6   5812093.053 9        17.000          73.000
  20634731.856    -4539459.209 7  -3537233.45619        24.000         133.000
  22804041.993    -5877234.876 5  -4332568.172 7        11.000          30.000
 90  6 16 20  9 45.0860000  0  3 02 11 09
  22482147.173     7489715.483 6   5836136.376 9        18.000          79.000
  20634858.277    -4538786.221 7  -3536709.046 9        24.000         133.000
  22795222.572    -5923581.007 5  -4368681.962 7        11.000          30.000
 90  6 16 20 10  0.1900000  0  3 02 11 09
  22488120.104     7521111.781 6   5860600.988 9        18.000          79.000
  20635017.244    -4537955.583 7  -3536061.789 9        24.000         132.000
  22786249.177    -5970728.128 5  -4405419.912 7        10.000          26.000
 90  6 16 20 10 15.0380000  0  3 02 11 09
  22494000.081     7551992.942 6   5884664.213 9        18.000          72.000
  20635201.513    -4536988.080 7  -3535307.882 9        24.000         128.000
  22777430.360    -6017070.322 5  -4441530.649 7        11.000          31.000
 90  6 16 20 10 30.1420000  0  3 02 11 09
  22499978.878     7583420.041 6   5909152.815 9        18.000          71.000
  20635417.297    -4535855.201 7  -3534425.107 9        24.000         121.000
  22768460.980    -6064209.942 5  -4478262.760 6        11.000          22.000
 90  6 16 20 10 45.2460000  0  4 02 11 09 13
  22505963.182     7614861.959 6   5933652.983 9        18.000          69.000
  20635660.712    -4534570.717 7  -3533424.215 9        23.000         130.000
  22759490.649    -6111346.141 5  -4514992.200 7        11.000          33.000
  24121928.400                                           0.277 4         7.000
 90  6 16 20 11  0.0940000  0  4 02 11 09 13
  22511846.263     7645784.064 6   5957748.093 9        17.000          66.000
  20635927.683    -4533161.739 7  -3532326.299 9        23.000         125.000
  22750673.976    -6157681.501 5  -4551097.586 7        11.000          32.000
  24109814.209      -63643.686 4                                         7.000
 90  6 16 20 11 15.1980000  0  4 02 11 09 13
  22517833.723     7677251.113 6   5982267.827 9        17.000          74.000
  20636227.588    -4531583.060 7  -3531096.161 9        23.000         127.000
  22741703.932    -6204816.794 5  -4587826.336 7        11.000          30.000
  24097496.552     -128371.528 4                                         7.000
 90  6 16 20 11 30.0460000  0  4 02 11 09 13
  22523725.753     7708203.895 6   6006386.848 9        17.000          71.000
  20636553.277    -4529881.516 7  -3529770.280 9        24.000         129.000
  22732885.736    -6251147.314 5  -4623927.965 7        11.000          27.000
  24085392.423     -191981.950 3                                         6.000
 90  6 16 20 11 45.1500000  0  4 02 11 09 13
  22529718.321     7739706.589 6   6030934.372 9        17.000          68.000
  20636911.285    -4528001.392 7  -3528305.242 9        24.000         127.000
  22723918.256    -6298273.168 5  -4660649.363 7        11.000          34.000
  24073081.508     -256671.099 3                                         6.000
 90  6 16 20 12  0.2540000  0  4 02 11 09 13
  22535717.160     7771224.847 6   6055494.017 9        17.000          66.000
  20637297.907    -4525970.035 7  -3526722.365 9        23.000         126.000
  22714953.350    -6345394.619 6  -4697367.306 7        12.000          34.000
  24060777.121     -321340.792 3                                         6.000
 90  6 16 20 12 15.1020000  0  4 02 11 09 13
  22541617.158     7802223.160 6   6079648.506 9        17.000          70.000
  20637705.827    -4523826.760 7  -3525052.281 9        24.000         130.000
  22706138.464    -6391713.896 6  -4733460.177 7        12.000          33.000
  24048683.697     -384895.908 4         0.12615         7.000           9.000
 90  6 16 20 12 30.2060000  0  4 02 11 09 13
  22547616.539     7833765.626 6   6104227.016 9        16.000          70.000
  20638148.468    -4521501.776 7  -3523240.602 9        24.000         138.000
  22697171.290    -6438832.042 6  -4770175.571 7        12.000          32.000
  24036382.078     -449531.668 3    -50365.295 5         6.000          10.000
 90  6 16 20 12 45.0540000  0  4 02 11 09 13
  22553518.590     7864782.538 6   6128396.006 9        16.000          71.000
  20638609.507    -4519073.439 7  -3521348.390 9        24.000         139.000
  22688360.082    -6485151.055 6  -4806268.232 7        12.000          30.000
  24024287.950     -513056.212 3    -99864.803 5         6.000          11.000
 90  6 16 20 13  0.1580000  0  4 02 11 09 13
  22559527.338     7896348.338 6   6152992.700 9        16.000          66.000
  20639107.749    -4516452.133 7  -3519305.813 9        24.000         134.000
  22679395.125    -6532261.955 6  -4842977.951 7        12.000          31.000
  24011998.671     -577653.907 3   -150200.571 5         6.000           7.000
 90  6 16 20 13 15.0060000  0  4 02 11 09 13
  22565432.730     7927388.184 6   6177179.558 9        16.000          75.000
  20639626.289    -4513732.048 7  -3517186.261 9        24.000         139.000
  22670579.575    -6578572.859 6  -4879064.302 7        12.000          30.000
  23999919.814     -641139.777 3   -199669.944 5         6.000           6.000
 90  6 16 20 13 30.1100000  0  4 02 11 09 13
  22571443.204     7958961.297 6   6201781.948 9        16.000          65.000
  20640177.824    -4510829.990 7  -3514924.911 9        24.000         131.000
  22661614.996    -6625691.013 6  -4915779.682 7        12.000          29.000
  23987629.626     -705713.082 3   -249986.683 5         6.000          10.000
 90  6 16 20 13 45.2140000  0  4 02 11 09 13
  22577450.308     7990540.471 6   6226389.056 9        16.000          66.000
  20640758.850    -4507781.498 7  -3512549.461 9        25.000         142.000
  22652648.353    -6672807.590 5  -4952493.827 7        11.000          32.000
  23975346.779     -770268.400 3   -300289.407 5         5.000          11.000
 90  6 16 20 14  0.0620000  0  4 02 11 09 13
  22583358.897     8021584.533 6   6250579.202 9        16.000          65.000
  20641354.729    -4504647.916 7  -3510107.704 9        25.000         140.000
  22643832.293    -6719129.611 6  -4988588.850 7        12.000          29.000
  23963272.141     -833717.557 3   -349730.183 5         5.000           6.000
 90  6 16 20 14 15.1660000  0  4 02 11 09 13
  22589371.046     8053174.536 6   6275194.746 9        17.000          65.000
  20641989.272    -4501312.260 7  -3507508.486 9        24.000         137.000
  22634867.060    -6766245.078 6  -5025302.144 7        12.000          35.000
  23950994.528     -898239.026 3   -400006.507 5         5.000           8.000
 90  6 16 20 14 30.0140000  0  4 02 11 09 13
  22595281.382     8084237.571 6   6299399.673 9        17.000          68.000
  20642641.497    -4497890.498 7  -3504842.177 9        25.000         141.000
  22626053.911    -6812559.646 5  -5061391.342 7        11.000          33.000
  23938926.611     -961648.041 3   -449415.992 1         5.000           1.000
 90  6 16 20 14 45.1180000  0  4 02 11 09 13
  22601295.503     8115848.452 6   6324031.483 9        16.000          66.000
  20643330.783    -4494261.258 7  -3502014.195 9        24.000         136.000
  22617089.638    -6859666.499 6  -5098097.922 8        12.000          41.000
  23926655.832    -1026127.232 3                         5.000
 90  6 16 20 15  0.2220000  0  4 02 11 09 13
  22607313.895     8147473.619 6   6348674.448 9        17.000          61.000
  20644050.398    -4490481.539 7  -3499068.955 9        24.000         138.000
  22608128.359    -6906766.155 6  -5134798.890 8        12.000          42.000
  23914390.824    -1090582.055 3                         5.000
 90  6 16 20 15 15.0700000  0  4 02 11 09 13
  22613233.352     8178570.258 6   6372905.550 9        17.000          59.000
  20644782.966    -4486626.773 7  -3496065.241 9        24.000         139.000
  22599314.453    -6953067.656 5  -5170877.899 7        11.000          31.000
  23902334.972    -1153927.739 3   -599244.45614         5.000           4.000
 90  6 16 20 15 30.1740000  0  4 02 11 09 13
  22619254.686     8210217.786 6   6397565.926 9        17.000          54.000
  20645558.866    -4482557.494 7  -3492894.367 9        24.000         137.000
  22590355.145    -7000160.802 5  -5207573.788 7        11.000          33.000
  23890078.821    -1218341.506 3   -649436.862 5         6.000           7.000
 90  6 16 20 15 45.0220000  0  4 02 11 09 13
  22625175.849     8241338.199 6   6421815.565 9        17.000          62.000
  20646345.881    -4478416.955 7  -3489667.974 9        24.000         149.000
  22581543.365    -7046454.045 5  -5243646.380 7        11.000          35.000
  23878036.892    -1281644.582 3   -698763.788 5         6.000           9.000
 90  6 16 20 16  0.1260000  0  4 02 11 09 13
  22631204.741     8273014.333 6   6446498.230 8        17.000          53.000
  20647174.215    -4474053.551 7  -3486267.911 9        24.000         139.000
  22572585.231    -7093534.787 5  -5280332.599 8        11.000          42.000
  23865788.708    -1346010.492 3   -748918.927 5         6.000           6.000
 90  6 16 20 16 15.2300000  0  4 02 11 09 13
  22637237.853     8304711.247 6   6471197.079 9        17.000          56.000
  20648036.137    -4469537.283 7  -3482748.742 9        24.000         146.000
  22563627.159    -7140604.170 5  -5317009.980 7        11.000          38.000
  23853540.259    -1410346.995 3   -799051.118 5         6.000          11.000
 90  6 16 20 16 30.0780000  0  4 02 11 09 13
  22643169.742     8335891.641 6   6495493.456 9        17.000          65.000
  20648908.642    -4464947.918 7  -3479172.608 9        24.000         143.000
  22554828.771    -7186863.960 6  -5353056.490 7        12.000          39.000
  23841513.449    -1473563.544 3   -848310.668 5         6.000          10.000
 90  6 16 20 16 45.1820000  0  4 02 11 09 13
  22649207.930     8367624.068 6   6520219.992 9        17.000          61.000
  20649825.297    -4460133.252 7  -3475420.919 9        25.000         138.000
  22545872.150    -7233914.891 6  -5389719.500 7        12.000          38.000
  23829283.469    -1537845.333 3   -898400.218 5         6.000          11.000
 90  6 16 20 17  0.0300000  0  4 02 11 09 13
  22655148.349     8398834.308 6   6544539.627 9        18.000          59.000
  20650753.995    -4455255.694 7  -3471620.222 9        24.000         137.000
  22537071.258    -7280160.743 5  -5425755.176 7        11.000          36.000
  23817263.513    -1601011.890 3   -947620.734 5         6.000          11.000
 90  6 16 20 17 15.1340000  0  4 02 11 09 13
  22661193.198     8430596.162 6   6569289.083 9        18.000          58.000
  20651727.160    -4450148.712 7  -3467640.751 9        25.000         132.000
  22528120.511    -7327197.567 6  -5462407.174 8        12.000          44.000
  23805040.092    -1665242.623 3   -997670.534 6         6.000          13.000
 90  6 16 20 17 30.2380000  0  4 02 11 09 13
  22667238.700     8462371.364 6   6594048.943 9        17.000          66.000
  20652725.342    -4444895.030 7  -3463546.969 9        25.000         134.000
  22519171.551    -7374227.594 6  -5499053.873 8        12.000          43.000
  23792822.738    -1729447.616 3  -1047700.244 6         6.000          13.000
 90  6 16 20 17 45.0860000  0  4 02 11 09 13
  22673185.646     8493622.559 6   6618400.493 8        17.000          53.000
  20653735.751    -4439585.136 7  -3459409.387 9        25.000         133.000
  22510374.368    -7420451.235 6  -5535072.241 8        12.000          43.000
  23780814.080    -1792536.591 3  -1096860.338 5         6.000          11.000
 90  6 16 20 18  0.1900000  0  4 02 11 09 13
  22679238.064     8525426.959 6   6643183.102 9        17.000          64.000
  20654792.364    -4434035.370 7  -3455084.890 9        25.000         138.000
  22501429.208    -7467461.469 6  -5571703.514 8        12.000          40.000
  23768607.013    -1856684.063 3  -1146845.201 6         6.000          15.000
 90  6 16 20 18 15.0380000  0  4 02 11 09 13
  22685188.933     8556700.817 6   6667552.298 9        15.000          58.000
  20655857.353    -4428439.104 7  -3450724.158 9        25.000         136.000
  22492635.570    -7513669.923 6  -5607710.042 8        13.000          41.000
  23756614.321    -1919720.524 3  -1195964.370 6         6.000          14.000
 90  6 16 20 18 30.1420000  0  4 02 11 09 13
  22691243.026     8588523.689 6   6692349.304 9        15.000          63.000
  20656967.452    -4422601.533 7  -3446175.400 9        25.000         136.000
  22483692.371    -7560667.511 6  -5644331.482 8        12.000          41.000
  23744416.918    -1983816.904 3  -1245909.432 6         6.000          12.000
 90  6 16 20 18 45.2460000  0  4 02 11 09 13
  22697303.810     8620357.841 6   6717155.099 9        16.000          61.000
  20658106.878    -4416616.042 7  -3441511.386 9        25.000         139.000
  22474750.163    -7607655.506 6  -5680945.431 8        13.000          46.000
  23732227.135    -2047883.736 4  -1295831.458 6         7.000          20.000
 90  6 16 20 19  0.0940000  0  4 02 11 09 13
  22703260.124     8651660.671 6   6741546.868 9        16.000          55.000
  20659253.425    -4410589.677 7  -3436815.513 9        25.000         138.000
  22465963.226    -7653838.979 6  -5716932.506 8        13.000          47.000
  23720246.539    -2110837.254 4  -1344885.988 6         7.000          15.000
 90  6 16 20 19 15.1980000  0  4 02 11 09 13
  22709318.998     8683512.748 6   6766366.627 9        15.000          60.000
  20660447.493    -4404314.157 7  -3431925.499 9        25.000         147.000
  22457025.553    -7700809.823 6  -5753533.094 7        13.000          36.000
  23708063.058    -2174847.395 4  -1394763.838 6         7.000          17.000
 90  6 16 20 19 30.0460000  0  4 02 11 09 13
  22715280.051     8714835.330 6   6790773.804 9        16.000          60.000
  20661649.569    -4398001.086 7  -3427006.226 9        25.000         138.000
  22448238.841    -7746974.289 6  -5789505.349 8        13.000          41.000
  23696095.640    -2237742.629 4  -1443772.936 6         7.000          13.000
 90  6 16 20 19 45.1500000  0  4 02 11 09 13
  22721347.761     8746707.398 6   6815609.146 9        16.000          64.000
  20662897.940    -4391435.064 7  -3421889.838 9        25.000         139.000
  22439306.061    -7793926.297 6  -5826091.271 7        13.000          34.000
  23683925.664    -2301693.487 4  -1493604.598 5         7.000           5.000
 90  6 16 20 20  0.2540000  0  4 02 11 09 13
  22727412.090     8778586.562 6   6840450.008 9        15.000          61.000
  20664174.791    -4384726.221 7  -3416662.167 9        25.000         141.000
  22430370.780    -7840871.842 6  -5862672.143 7        13.000          36.000
  23671756.779    -2365617.255 3  -1543415.160 6         6.000          13.000
 90  6 16 20 20 15.1020000  0  4 02 11 09 13
  22733379.569     8809940.010 6   6864881.229 9        15.000          57.000
  20665458.302    -4377985.314 7  -3411409.511 9        24.000         147.000
  22421592.689    -7887008.351 6  -5898622.618 8        13.000          43.000
  23659808.790    -2428424.049 3  -1592355.333 5         6.000          11.000
 90  6 16 20 20 30.2060000  0  4 02 11 09 13
  22739451.456     8841845.327 6   6889742.467 9        15.000          61.000
  20666789.518    -4370984.413 7  -3405954.267 9        24.000         147.000
  22412663.638    -7933931.071 6  -5935185.710 7        13.000          34.000
  23647658.917    -2492283.625 4  -1642115.832 5         7.000           9.000
 90  6 16 20 20 45.0540000  0  4 02 11 09 13
  22745421.509     8873221.158 6   6914191.131 8        15.000          49.000
  20668127.078    -4363960.376 7  -3400480.985 9        25.000         144.000
  22403888.407    -7980048.516 6  -5971121.310 8        13.000          43.000
  23635714.789    -2555030.222 4  -1691009.084 5         7.000          11.000
 90  6 16 20 21  0.1580000  0  4 02 11 09 13
  22751494.684     8905149.089 6   6939070.000 8        14.000          46.000
  20669513.935    -4356672.674 7  -3394802.250 9        25.000         140.000
  22394961.246    -8026952.268 6  -6007669.637 8        12.000          40.000
  23623574.294    -2618829.058 4  -1740722.272 5         7.000           9.000
 90  6 16 20 21 15.0060000  0  4 02 11 09 13
  22757470.192     8936545.602 6   6963534.775 8        14.000          51.000
  20670902.550    -4349370.787 7  -3389112.469 9        25.000         140.000
  22386187.456    -8073054.513 6  -6043593.396 8        13.000          43.000
  23611648.961    -2681519.080 4  -1789571.481 6         7.000          12.000
 90  6 16 20 21 30.1100000  0  4 02 11 09 13
  22763549.803     8968494.150 6   6988429.706 8        14.000          49.000
  20672344.437    -4341801.476 7  -3383214.297 9        25.000         146.000
  22377267.048    -8119943.080 6  -6080129.898 8        13.000          43.000
  23599515.791    -2745260.212 4  -1839239.681 5         7.000           9.000
 90  6 16 20 21 45.2140000  0  4 02 11 09 13
  22769634.276     9000456.293 6   7013335.236 8        15.000          48.000
  20673811.208    -4334086.203 7  -3377202.394 9        24.000         140.000
  22368343.861    -8166819.537 6  -6116656.938 8        12.000          42.000
  23587392.907    -2808967.566 4  -1888881.558 5         7.000           9.000
 90  6 16 20 22  0.0620000  0  4 02 11 09 13
  22775614.125     9031886.766 6   7037826.475 8        15.000          45.000
  20675281.932    -4326362.281 7  -3371183.749 9        24.000         145.000
  22359578.396    -8212892.074 6  -6152557.559 8        13.000          46.000
  23575482.438    -2871564.619 4  -1937658.277 5         7.000           6.000
 90  6 16 20 22 15.1660000  0  4 02 11 09 13
  22781696.749     9063861.287 6   7062741.634 8        14.000          49.000
  20676801.393    -4318370.726 7  -3364956.564 9        24.000         144.000
  22350659.325    -8259756.404 6  -6189075.175 7        13.000          38.000
  23563368.533    -2935216.664 4  -1987257.076 6         7.000          14.000
 90  6 16 20 22 30.0140000  0  4 02 11 09 13
  22787683.784     9095305.878 6   7087243.878 8        14.000          46.000
  20678324.643    -4310373.203 7  -3358724.723 9        25.000         146.000
  22341895.485    -8305814.408 6  -6224964.470 8        13.000          47.000
  23551465.031    -2997756.232 4  -2035989.037 5         7.000           7.000
 90  6 16 20 22 45.1180000  0  4 02 11 09 13
  22793772.108     9127306.965 6   7112179.751 8        14.000          52.000
  20679900.808    -4302091.199 7  -3352271.211 9        25.000         144.000
  22332983.667    -8352651.044 6  -6261460.495 8        13.000          44.000
  23539368.022    -3061336.566 4  -2085531.896 5         7.000           7.000
 90  6 16 20 23  0.2220000  0  4 02 11 09 13
  22799860.810     9159305.970 6   7137113.998 8        14.000          45.000
  20681501.602    -4293678.069 7  -3345715.526 9        25.000         137.000
  22324068.346    -8399488.453 6  -6297957.125 8        12.000          46.000
  23527274.364    -3124895.076 4  -2135057.832 5         7.000           8.000
 90  6 16 20 23 15.0700000  0  4 02 11 09 13
  22805847.790     9190770.093 6   7161631.453 8        14.000          45.000
  20683101.415    -4285270.597 7  -3339164.246 9        25.000         145.000
  22315309.418    -8445523.092 6  -6333828.209 8        12.000          46.000
  23515388.738    -3187345.560 4                         7.000
 90  6 16 20 23 30.1740000  0  4 02 11 09 13
  22811939.863     9222783.090 6   7186576.601 8        14.000          47.000
  20684754.653    -4276579.414 7  -3332391.902 9        24.000         142.000
  22306400.829    -8492342.641 6  -6370310.922 8        13.000          44.000
  23503309.535    -3250841.642 5                         8.000
 90  6 16 20 23 45.0220000  0  4 02 11 09 13
  22817929.468     9254260.995 6   7211104.790 8        14.000          45.000
  20686406.543    -4267897.962 7  -3325627.128 9        24.000         148.000
  22297643.005    -8538358.359 6  -6406167.267 8        13.000          44.000
  23491436.239    -3313228.840 5                         8.000
 90  6 16 20 24  0.1260000  0  4 02 11 09 13
  22824027.455     9286298.474 6   7236069.022 8        14.000          45.000
  20688115.741    -4258918.826 7  -3318630.393 9        25.000         148.000
  22288737.929    -8585148.762 6  -6442627.273 8        12.000          45.000
  23479366.055    -3376650.048 5                         8.000
 90  6 16 20 24 15.2300000  0  4 02 11 09 13
  22830124.993     9318343.661 6   7261039.259 8        14.000          44.000
  20689850.579    -4249800.592 7  -3311525.281 9        25.000         141.000
  22279836.817    -8631929.800 6  -6479079.967 8        13.000          44.000
  23467302.195    -3440038.617 5  -2380624.14315         8.000          11.000
 90  6 16 20 24 30.0780000  0  4 02 11 09 13
  22836120.584     9349856.914 6   7285594.994 8        14.000          48.000
  20691582.180    -4240698.325 7  -3304432.606 9        24.000         141.000
  22271087.349    -8677905.717 6  -6514905.296 8        13.000          45.000
  23455446.408    -3502318.006 4  -2429153.276 5         7.000           7.000
 90  6 16 20 24 45.1820000  0  4 02 11 09 13
  22842224.609     9381924.558 6   7310582.724 8        14.000          44.000
  20693369.820    -4231298.945 7  -3297108.412 9        24.000         138.000
  22262189.772    -8724662.106 6  -6551338.789 8        13.000          47.000
  23443399.331    -3565635.801 4  -2478491.624 5         7.000           8.000
 90  6 16 20 25  0.0300000  0  4 02 11 09 13
  22848224.868     9413459.494 6   7335155.357 8        14.000          49.000
  20695155.469    -4221921.221 7  -3289801.097 9        24.000         145.000
  22253446.525    -8770613.789 6  -6587145.242 8        13.000          45.000
  23431562.943    -3627845.192 4  -2526966.276 5         7.000          10.000
 90  6 16 20 25 15.1340000  0  4 02 11 09 13
  22854331.130     9445549.113 6   7360160.204 8        14.000          47.000
  20696997.484    -4212243.119 7  -3282259.719 9        24.000         139.000
  22244553.708    -8817346.152 6  -6623560.009 8        13.000          47.000
  23419527.798    -3691091.970 4  -2576249.246 5         7.000          10.000
 90  6 16 20 25 30.2380000  0  4 02 11 09 13
  22860439.762     9477649.768 6   7385173.663 8        13.000          48.000
  20698864.701    -4202425.109 7  -3274609.327 9        24.000         142.000
  22235663.495    -8864066.582 6  -6659965.483 8        13.000          43.000
  23407499.333    -3754302.866 4  -2625504.243 6         7.000          13.000
 90  6 16 20 25 45.0860000  0  4 02 11 09 13
  22866448.081     9509218.669 6   7409772.776 8        14.000          41.000
  20700728.781    -4192635.513 7  -3266981.074 9        24.000         138.000
  22226925.346    -8909981.262 6  -6695743.092 8        13.000          41.000
  23395678.022    -3816405.260 4  -2673895.517 6         7.000          14.000
 90  6 16 20 26  0.1900000  0  3 02 11 09
  22872561.616     9541347.609 6   7434808.280 8        14.000          49.000
  20702650.158    -4182533.089 7  -3259109.055 9        24.000         146.000
  22218039.638    -8956669.505 6  -6732123.491 8        14.000          52.000
 90  6 16 20 26 15.0380000  0  4 02 11 09 13
  22878571.835     9572940.610 6   7459426.156 8        13.000          46.000
  20704567.041    -4172467.532 7  -3251265.764 9        25.000         148.000
  22209309.457    -9002555.484 6  -6767878.745 8        13.000          45.000
  23371864.744    -3941562.736 4  -2771420.386 6         7.000          12.000
 90  6 16 20 26 30.1420000  0  4 02 11 09 13
  22884693.031     9605088.494 6   7484476.421 8        14.000          50.000
  20706541.925    -4162089.344 7  -3243178.862 9        25.000         142.000
  22200429.899    -9049218.566 6  -6804239.531 8        14.000          43.000
  23359866.394    -4004620.555 4  -2820556.132 6         7.000          13.000
 90  6 16 20 26 45.2460000  0  4 02 11 09 13
  22890809.774     9637242.613 6   7509531.537 8        13.000          48.000
  20708542.081    -4151575.015 7  -3234985.880 9        25.000         140.000
  22191551.577    -9095871.358 6  -6840592.293 8        13.000          47.000
  23347873.161    -4067643.395 5  -2869664.634 6         8.000          12.000
 90  6 16 20 27  0.0940000  0  4 02 11 09 13
  22896825.570     9668861.980 6   7534169.969 8        13.000          47.000
  20710534.463    -4141102.516 7  -3226825.490 9        24.000         143.000
  22182827.540    -9141719.211 6  -6876317.838 8        14.000          44.000
  23336092.425    -4129559.773 5  -2917910.954 5         8.000           8.000
 90  6 16 20 27 15.1980000  0  4 02 11 09 13
  22902948.850     9701036.715 6   7559241.136 8        13.000          46.000
  20712588.831    -4130310.683 7  -3218416.276 9        25.000         133.000
  22173955.388    -9188342.676 6  -6912647.759 8        13.000          50.000
  23324112.145    -4192504.131 5  -2966958.318 6         8.000          15.000
 90  6 16 20 27 30.0460000  0  4 02 11 09 13
  22908970.531     9732673.204 6   7583892.919 8        13.000          41.000
  20714632.770    -4119567.295 7  -3210044.804 9        25.000         135.000
  22165236.249    -9234162.668 6  -6948351.585 8        14.000          52.000
  23312342.216    -4254344.186 5  -3015145.152 6         8.000          12.000
 90  6 16 20 27 45.1500000  0  4 02 11 09 13
  22915094.475     9764859.927 6   7608973.428 8        13.000          43.000
  20716738.091    -4108503.078 7  -3201423.333 9        24.000         136.000
  22156366.998    -9280760.040 6  -6984661.175 8        13.000          46.000
  23300378.986    -4317212.916 5  -3064133.573 5         8.000           9.000
 90  6 16 20 28  0.2540000  0  4 02 11 09 13
  22921221.402     9797055.309 6   7634060.703 8        13.000          43.000
  20718870.982    -4097298.824 7  -3192692.749 9        25.000         135.000
  22147505.612    -9327341.069 6  -7020958.019 9        14.000          57.000
  23288424.571    -4380039.959 5  -3113089.515 5         9.000          10.000
 90  6 16 20 28 15.1020000  0  4 02 11 09 13
  22927245.861     9828713.201 6   7658729.145 8        13.000          42.000
  20720992.137    -4086148.399 7  -3184004.115 9        24.000         136.000
  22138794.043    -9373116.510 6  -7056627.137 8        14.000          53.000
  23276678.883    -4441761.426 5  -3161183.956 5         9.000           7.000
 90  6 16 20 28 30.2060000  0  4 02 11 09 13
  22933374.790     9860922.337 6   7683827.127 8        14.000          42.000
  20723176.717    -4074669.725 7  -3175059.691 9        25.000         134.000
  22129934.210    -9419666.928 6  -7092900.134 9        13.000          56.000
  23264740.098    -4504507.578 5  -3210076.865 5         9.000           7.000
 90  6 16 20 28 45.0540000  0  4 02 11 09 13
  22939402.334     9892594.788 6   7708506.918 8        14.000          40.000
  20725350.326    -4063248.398 7  -3166159.954 9        25.000         139.000
  22121231.476    -9465410.361 6  -7128544.312 8        14.000          49.000
  23253009.212    -4566147.185 5  -3258107.515 5         8.000          10.000
 90  6 16 20 29  0.1580000  0  4 02 11 09 13
  22945535.788     9924818.178 6   7733616.016 8        14.000          41.000
  20727587.515    -4051495.243 7  -3157001.654 9        25.000         138.000
  22112378.509    -9511928.286 6  -7164791.987 9        14.000          60.000
  23241082.470    -4628809.881 5  -3306935.352 5         8.000          11.000
 90  6 16 20 29 15.0060000  0  4 02 11 09 13
  22951563.536     9956497.575 6   7758301.215 7        14.000          38.000
  20729809.952    -4039809.868 7  -3147896.171 9        24.000         136.000
  22103678.278    -9557644.860 6  -7200415.244 9        14.000          59.000
  23229367.009    -4690372.227 5  -3354905.827 6         8.000          12.000
 90  6 16 20 29 30.1100000  0  4 02 11 09 13
  22957694.345     9988724.038 6   7783412.711 7        13.000          31.000
  20732097.358    -4027790.688 7  -3138530.572 9        25.000         139.000
  22094832.215    -9604137.198 6  -7236642.985 8        14.000          53.000
  23217459.472    -4752957.924 5  -3403673.698 6         8.000          13.000
 90  6 16 20 29 45.2140000  0  4 02 11 09 13
  22963828.606    10020956.743 6   7808529.058 7        13.000          38.000
  20734410.823    -4015633.770 7  -3129057.654 9        24.000         145.000
  22085988.513    -9650612.366 6  -7272857.348 9        14.000          56.000
  23205559.331    -4815500.278 5  -3452407.775 5         8.000          11.000
 90  6 16 20 30  0.0620000  0  4 02 11 09 13
  22969859.562    10052650.557 6   7833225.492 8        13.000          41.000
  20736711.723    -4003549.004 7  -3119640.962 9        25.000         144.000
  22077296.199    -9696282.910 6  -7308444.734 8        14.000          52.000
  23193863.504    -4876940.097 5  -3500282.782 5         8.000           9.000
 90  6 16 20 30 15.1660000  0  4 02 11 09 13
  22975995.907    10084902.748 6   7858357.031 8        13.000          47.000
  20739076.192    -3991115.298 7  -3109952.364 9        25.000         145.000
  22068461.904    -9742718.840 6  -7344628.515 8        14.000          44.000
  23181982.863    -4939390.970 5  -3548945.593 5         8.000          11.000
 90  6 16 20 30 30.0140000  0  4 02 11 09 13
  22982033.973    10116616.264 6   7883068.818 8        13.000          49.000
  20741428.423    -3978757.734 7  -3100323.096 9        25.000         146.000
  22059776.414    -9788349.322 6  -7380184.675 8        14.000          47.000
  23170308.559    -5000739.020 5  -3596749.075 6         8.000          17.000
 90  6 16 20 30 45.1180000  0  4 02 11 09 13
  22988172.831    10148886.190 6   7908214.164 8        13.000          45.000
  20743846.470    -3966050.603 7  -3090421.435 9        25.000         149.000
  22050948.800    -9834747.812 6  -7416339.296 8        14.000          50.000
  23158441.843    -5063099.708 5  -3645341.614 5         8.000          11.000
 90  6 16 20 31  0.2220000  0  4 02 11 09 13
  22994314.498    10181169.394 6   7933369.870 7        13.000          38.000
  20746290.504    -3953203.548 7  -3080410.745 9        25.000         144.000
  22042120.655    -9881124.764 6  -7452477.120 8        13.000          48.000
  23146586.791    -5125412.198 5  -3693896.593 6         9.000          17.000
 90  6 16 20 31 15.0700000  0  4 02 11 09 13
  23000356.190    10212916.835 6   7958108.092 8        13.000          47.000
  20748719.431    -3940440.105 7  -3070465.209 9        25.000         156.000
  22033449.272    -9926696.307 6  -7487987.359 8        14.000          53.000
  23134936.095    -5186623.153 5  -3741593.254 5         8.000          11.000
 90  6 16 20 31 30.1740000  0  4 02 11 09 13
  23006505.386    10245225.490 6   7983283.621 8        13.000          42.000
  20751216.758    -3927319.369 7  -3060241.263 9        25.000         149.000
  22024632.711    -9973032.792 6  -7524093.654 8        14.000          52.000
  23123093.322    -5248841.872 5  -3790075.150 5         9.000          11.000
 90  6 16 20 31 45.0220000  0  4 02 11 09 13
  23012554.371    10277001.729 6   8008044.283 8        13.000          46.000
  20753696.576    -3914287.405 7  -3050086.488 9        25.000         145.000
  22015967.487   -10018564.053 6  -7559572.498 8        14.000          48.000
  23111463.945    -5309960.082 5  -3837699.536 6         9.000          12.000
 90  6 16 20 32  0.1260000  0  4 02 11 09 13
  23018707.306    10309343.745 6   8033245.823 8        12.000          47.000
  20756245.336    -3900892.347 7  -3039648.786 9        24.000         152.000
  22007159.088   -10064857.481 6  -7595645.245 8        14.000          50.000
  23099644.300    -5372082.203 5  -3886106.188 6         9.000          13.000
 90  6 16 20 32 15.2300000  0  4 02 11 09 13
  23024864.837    10341699.398 6   8058457.964 8        13.000          46.000
  20758820.104    -3887361.672 7  -3029105.404 9        24.000         143.000
  21998351.731   -10111131.265 6  -7631702.688 8        15.000          51.000
  23087832.296    -5434157.422 5  -3934476.291 6         9.000          13.000
 90  6 16 20 32 30.0780000  0  4 02 11 09 13
  23030920.054    10373513.390 6   8083248.047 8        13.000          41.000
  20761374.840    -3873934.147 7  -3018642.394 9        24.000         153.000
  21989699.696   -10156607.105 6  -7667138.349 8        15.000          47.000
  23076225.775    -5495140.074 5  -3981995.028 6         9.000          12.000
 90  6 16 20 32 45.1820000  0  4 02 11 09 13
  23037080.200    10405884.875 6   8108472.543 8        13.000          40.000
  20763999.202    -3860146.584 7  -3007898.844 9        25.000         153.000
  21980897.406   -10202852.579 6  -7703173.736 8        14.000          49.000
  23064429.818    -5557132.247 5  -4030300.441 6         9.000          16.000
 90  6 16 20 33  0.0300000  0  4 02 11 09 13
  23043137.010    10437723.595 6   8133281.884 8        13.000          43.000
  20766604.155    -3846459.012 7  -2997233.207 9        25.000         161.000
  21972253.042   -10248292.197 6  -7738581.163 8        15.000          47.000
  23052841.138    -5618024.691 5  -4077748.886 5         9.000          11.000
 90  6 16 20 33 15.1340000  0  4 02 11 09 13
  23049303.102    10470126.169 6   8158530.615 8        13.000          41.000
  20769279.624    -3832399.404 7  -2986277.674 9        25.000         157.000
  21963460.374   -10294492.360 6  -7774581.227 8        15.000          43.000
  23041065.703    -5679916.400 5  -4125975.998 6         9.000          13.000
 90  6 16 20 33 30.2380000  0  4 02 11 09 13
  23055471.655    10502541.811 6   8183789.504 7        14.000          38.000
  20771980.743    -3818203.700 7  -2975216.091 9        25.000         155.000
  21954673.110   -10340669.970 6  -7810563.747 8        15.000          52.000
  23029293.640    -5741757.649 5  -4174163.782 6         8.000          15.000
 90  6 16 20 33 45.0860000  0  4 02 11 09 13
  23061538.926    10534419.809 6   8208629.465 8        14.000          40.000
  20774661.329    -3804115.812 7  -2964238.522 9        25.000         157.000
  21946039.187   -10386042.278 6  -7845918.733 9        15.000          54.000
  23017733.879    -5802500.843 5  -4221495.946 5         8.000           5.000
 90  6 16 20 34  0.1900000  0  4 02 11 09 13
  23067711.065    10566858.368 6   8233906.220 7        14.000          39.000
  20777414.831    -3789648.907 7  -2952965.611 9        24.000         148.000
  21937260.555   -10432172.514 6  -7881864.322 8        15.000          48.000
  23005987.742    -5864238.913 5  -4269603.335 6         8.000          15.000
 90  6 16 20 34 15.0380000  0  4 02 11 09 13
  23073781.308    10598755.192 6   8258760.849 8        14.000          48.000
  20780145.359    -3775294.438 7  -2941780.315 9        25.000         153.000
  21928635.058   -10477497.497 6  -7917182.430 9        15.000          57.000
  22994447.645    -5924879.676 5  -4316855.649 6         8.000          15.000
 90  6 16 20 34 30.1420000  0  4 02 11 09 13
  23079957.155    10631210.957 6   8284051.012 8        14.000          40.000
  20782951.091    -3760556.854 7  -2930296.491 9        25.000         156.000
  21919865.661   -10523578.931 6  -7953089.999 8        15.000          51.000
  22982716.831    -5986512.745 5  -4364881.221 6         8.000          13.000
 90  6 16 20 34 45.2460000  0  4 02 11 09 13
  23086136.037    10663680.505 6   8309351.906 7        14.000          39.000
  20785782.126    -3745678.234 7  -2918702.767 9        24.000         158.000
  21911102.617   -10569630.531 6  -7988974.304 8        16.000          51.000
  22970996.160    -6048087.613 5  -4412861.475 5         8.000          11.000
 90  6 16 20 35  0.0940000  0  4 02 11 09 13
  23092213.195    10695616.436 6   8334237.005 8        13.000          40.000
  20788592.057    -3730911.043 7  -2907195.872 9        24.000         160.000
  21902494.691   -10614868.792 6  -8024224.853 9        16.000          58.000
  22959491.858    -6108558.232 5  -4459981.205 6         8.000          16.000
 90  6 16 20 35 15.1980000  0  4 02 11 09 13
  23098396.571    10728108.942 6   8359555.795 7        14.000          36.000
  20791475.832    -3715755.615 7  -2895386.449 9        24.000         151.000
  21893740.984   -10660862.737 6  -8060064.230 9        16.000          57.000
  22947795.622    -6170018.855 5  -4507872.417 5         8.000          10.000
 90  6 16 20 35 30.0460000  0  4 02 11 09 13
  23104476.764    10760061.932 6   8384454.185 7        14.000          32.000
  20794337.604    -3700721.266 7  -2883671.383 9        24.000         153.000
  21885146.083   -10706048.327 6  -8095273.742 8        17.000          51.000
  22936309.809    -6230381.020 5  -4554907.716 6         8.000          15.000
 90  6 16 20 35 45.1500000  0  4 02 11 09 13
  23110663.235    10792574.704 6   8409788.768 7        13.000          29.000
  20797272.864    -3685293.258 7  -2871649.561 9        24.000         159.000
  21876402.740   -10751986.869 6  -8131069.945 9        16.000          58.000
  22924638.876    -6291729.195 5  -4602711.254 5         9.000          10.000
 90  6 16 20 36  0.2540000  0  4 02 11 09 13
  23116853.649    10825099.023 6   8435132.340 7        13.000          31.000
  20800235.031    -3669728.385 7  -2859521.099 9        24.000         154.000
  21867666.246   -10797897.160 6  -8166844.144 9        16.000          57.000
  22912968.894    -6353020.001 5  -4650470.133 5         8.000           8.000
 90  6 16 20 36 15.1020000  0  4 02 11 09 13
  23122938.888    10857082.015 6   8460054.117 7        13.000          38.000
  20803171.945    -3654296.869 7  -2847496.553 9        24.000         156.000
  21859082.019   -10843004.317 6  -8201992.522 9        16.000          55.000
  22901515.820    -6413218.639 5  -4697377.989 5         9.000           9.000
 90  6 16 20 36 30.2060000  0  4 02 11 09 13
  23129131.580    10889628.454 6   8485414.939 7        13.000          26.000
  20806183.390    -3638465.922 7  -2835160.760 9        24.000         154.000
  21850356.526   -10888862.480 6  -8237726.110 9        17.000          67.000
  22889875.523    -6474399.567 5  -4745051.226 6         9.000          16.000
 90  6 16 20 36 45.0540000  0  4 02 11 09 13
  23135223.009    10921634.307 6   8510354.521 7        13.000          29.000
  20809169.919    -3622773.170 7  -2822932.645 9        24.000         156.000
  21841782.821   -10933917.956 6  -8272834.219 9        16.000          59.000
  22878441.746    -6534489.487 5  -4791874.375 6         9.000          15.000
 90  6 16 20 37  0.1580000  0  4 02 11 09 13
  23141420.635    10954205.337 6   8535734.483 7        13.000          33.000
  20812233.205    -3606676.552 7  -2810389.838 9        24.000         159.000
  21833065.806   -10979722.710 6  -8308526.172 9        16.000          62.000
  22866818.427    -6595558.822 5  -4839460.637 6         9.000          18.000
 90  6 16 20 37 15.0060000  0  4 02 11 09 13
  23147516.119    10986237.899 6   8560694.886 7        13.000          34.000
  20815269.707    -3590721.360 7  -2797957.221 9        25.000         158.000
  21824502.725   -11024723.335 6  -8343591.560 9        16.000          60.000
  22855405.111    -6655536.479 5  -4886196.292 6         9.000          17.000
 90  6 16 20 37 30.1100000  0  4 02 11 09 13
  23153721.233    11018836.827 6   8586096.605 7        13.000          33.000
  20818382.884    -3574358.874 7  -2785207.240 9        25.000         156.000
  21815796.825   -11070472.475 6  -8379240.181 9        16.000          58.000
  22843808.341    -6716491.542 5  -4933693.550 6        10.000          14.000
 90  6 16 20 37 45.2140000  0  4 02 11 09 13
  23159926.224    11051452.829 6   8611511.615 7        13.000          34.000
  20821521.200    -3557861.120 7  -2772351.856 9        25.000         151.000
  21807096.104   -11116191.606 6  -8414865.429 9        15.000          57.000
  22832218.814    -6777386.942 5  -4981144.303 6        10.000          17.000
 90  6 16 20 38  0.0620000  0  4 02 11 09 13
  23166032.189    11083527.062 6   8636504.481 7        13.000          32.000
  20824632.906    -3541516.443 7  -2759615.749 9        25.000         156.000
  21798547.293   -11161111.287 6  -8449867.731 9        15.000          64.000
  22820835.276    -6837196.847 5  -5027749.206 6         9.000          13.000
 90  6 16 20 38 15.1660000  0  4 02 11 09 13
  23172242.809    11116166.377 6   8661937.662 7        13.000          32.000
  20827820.255    -3524759.391 7  -2746558.308 9        25.000         160.000
  21789858.084   -11206778.294 6  -8485452.364 9        15.000          65.000
  22809269.029    -6897981.202 5  -5075113.462 5         9.000           8.000
 90  6 16 20 38 30.0140000  0  4 02 11 09 13
  23178349.213    11148268.012 6   8686951.881 7        13.000          37.000
  20830981.361    -3508154.469 7  -2733619.413 9        25.000         154.000
  21781320.367   -11251640.430 6  -8520409.817 9        15.000          60.000
  22797912.224    -6957675.276 5  -5121628.103 6         9.000          16.000
 90  6 16 20 38 45.1180000  0  4 02 11 09 13
  23184565.982    11180935.056 6   8712406.679 7        13.000          36.000
  20834220.685    -3491132.650 7  -2720355.671 9        25.000         159.000
  21772641.690   -11297247.660 6  -8555947.879 9        15.000          66.000
  22786365.968    -7018340.565 5  -5168899.555 6         9.000          15.000
 90  6 16 20 39  0.2220000  0  4 02 11 09 13
  23190784.947    11213612.451 6   8737869.533 7        13.000          36.000
  20837484.044    -3473982.026 7  -2706991.545 9        24.000         151.000
  21763967.315   -11342828.655 6  -8591465.474 9        15.000          63.000
  22774834.154    -7078949.376 5  -5216126.969 6         9.000          20.000
 90  6 16 20 39 15.0700000  0  4 02 11 09 13
  23196902.354    11245750.471 6   8762912.100 7        13.000          39.000
  20840715.911    -3456992.708 7  -2693753.129 9        24.000         147.000
  21755446.585   -11387607.196 6  -8626357.802 9        15.000          61.000
  22763503.867    -7138471.531 5  -5262507.683 6         9.000          20.000
 90  6 16 20 39 30.1740000  0  4 02 11 09 13
  23203124.036    11278452.372 6   8788394.051 8        13.000          41.000
  20844031.102    -3439582.793 7  -2680186.967 9        24.000         156.000
  21746781.730   -11433130.846 6  -8661830.720 9        15.000          58.000
  22751994.222    -7198962.848 5  -5309643.558 6        10.000          21.000
 90  6 16 20 39 45.0220000  0  4 02 11 09 13
  23209243.332    11310608.109 6   8813450.423 7        13.000          32.000
  20847308.926    -3422343.856 7  -2666754.029 9        24.000         155.000
  21738271.890   -11477857.374 6  -8696682.505 9        15.000          58.000
  22740690.607    -7258373.582 5  -5355937.425 6        10.000          20.000
 90  6 16 20 40  0.1260000  0  4 02 11 09 13
  23215470.122    11343326.550 6   8838945.274 7        13.000          39.000
  20850671.934    -3404679.524 7  -2652989.624 9        24.000         149.000
  21729619.517   -11523326.480 6  -8732112.940 9        15.000          62.000
  22729202.833    -7318749.988 5  -5402983.790 6        10.000          23.000
 90  6 16 20 40 15.2300000  0  4 02 11 09 13
  23221695.952    11376056.043 6   8864448.724 7        12.000          36.000
  20854058.202    -3386882.791 7  -2639122.043 9        24.000         150.000
  21720975.041   -11568763.277 6  -8767518.179 9        15.000          61.000
  22717724.487    -7379063.710 5  -5449981.277 6        10.000          17.000
 90  6 16 20 40 30.0780000  0  4 02 11 09 13
  23227821.582    11408237.915 6   8889525.455 8        13.000          41.000
  20857410.954    -3369263.155 7  -2625392.459 9        24.000         152.000
  21712478.859   -11613402.281 6  -8802301.773 9        15.000          61.000
  22706449.710    -7438297.693 5  -5496137.431 6        10.000          23.000
 90  6 16 20 40 45.1820000  0  4 02 11 09 13
  23234052.835    11440988.865 6   8915045.629 8        12.000          44.000
  20860846.929    -3351207.121 7  -2611322.828 9        24.000         158.000
  21703844.210   -11658776.495 6  -8837658.258 8        15.000          53.000
  22694995.564    -7498487.993 5  -5543038.748 6        10.000          17.000
 90  6 16 20 41  0.0300000  0  4 02 11 09 13
  23240181.662    11473193.454 6   8940140.053 8        13.000          43.000
  20864249.010    -3333332.025 7  -2597394.192 9        24.000         156.000
  21695362.401   -11703352.487 6  -8872392.750 9        16.000          55.000
  22683747.509    -7557598.827 5  -5589098.932 6        11.000          15.000
 90  6 16 20 41 15.1340000  0  4 02 11 09 13
  23246417.421    11505964.565 6   8965675.952 7        12.000          31.000
  20867733.517    -3315019.058 7  -2583124.348 9        24.000         152.000
  21686740.081   -11748664.454 6  -8907700.732 9        16.000          57.000
  22672319.361    -7617665.827 5  -5635904.187 6        11.000          14.000
 90  6 16 20 41 30.2380000  0  4 02 11 09 13
  23252656.674    11538746.429 6   8991220.203 7        13.000          37.000
  20871243.542    -3296574.050 7  -2568751.627 9        24.000         163.000
  21678123.135   -11793941.878 6  -8942981.793 9        16.000          56.000
  22660895.698    -7677667.408 5  -5682658.456 6        10.000          18.000
 90  6 16 20 41 45.0860000  0  4 02 11 09 13
  23258789.239    11570983.785 6   9016340.169 7        12.000          36.000
  20874718.957    -3278313.138 7  -2554522.351 9        24.000         159.000
  21669660.285   -11838417.817 6  -8977638.321 9        17.000          59.000
  22649685.603    -7736587.513 5  -5728570.020 6        10.000          19.000
 90  6 16 20 42  0.1900000  0  4 02 11 09 13
  23265033.568    11603787.553 6   9041901.502 7        12.000          28.000
  20878278.719    -3259607.701 7  -2539946.686 9        25.000         157.000
  21661058.172   -11883626.334 6  -9012865.697 9        17.000          67.000
  22638289.184    -7796458.033 5  -5775222.167 6        10.000          20.000
 90  6 16 20 42 15.0380000  0  4 02 11 09 13
  23271170.608    11636037.170 6   9067031.036 7        12.000          35.000
  20881798.938    -3241101.741 7  -2525526.464 9        25.000         154.000
  21652604.863   -11928044.315 6  -9047477.057 9        17.000          61.000
  22627103.156    -7855259.174 5  -5821041.013 6        10.000          18.000
 90  6 16 20 42 30.1420000  0  4 02 11 09 13
  23277413.038    11668847.903 6   9092597.778 7        12.000          33.000
  20885404.637    -3222155.853 7  -2510763.441 9        25.000         153.000
  21644010.319   -11973201.760 6  -9082664.638 9        16.000          61.000
  22615731.948    -7915016.730 5  -5867605.127 6         9.000          20.000
 90  6 16 20 42 45.2460000  0  4 02 11 09 13
  23283661.085    11701670.467 6   9118173.765 7        12.000          31.000
  20889034.710    -3203081.739 7  -2495900.504 9        25.000         150.000
  21635423.610   -12018325.678 6  -9117826.086 9        16.000          59.000
  22604370.505    -7974709.402 5  -5914118.680 6        10.000          20.000
 90  6 16 20 43  0.0940000  0  4 02 11 09 13
  23289798.380    11733948.266 5   9143325.232 8        11.000          40.000
  20892627.191    -3184205.989 7  -2481192.124 9        26.000         155.000
  21626989.628   -12062651.586 6  -9152365.704 9        17.000          55.000
  22593217.248    -8033326.750 5  -5959794.318 6         9.000          20.000
 90  6 16 20 43 15.1980000  0  4 02 11 09 13
  23296052.148    11766795.566 5   9168920.481 7        11.000          36.000
  20896305.714    -3164876.325 7  -2466130.062 9        26.000         152.000
  21618416.832   -12107706.182 6  -9187473.145 9        16.000          67.000
  22581883.938    -8092887.926 5  -6006205.408 6        10.000          15.000
 90  6 16 20 43 30.0460000  0  4 02 11 09 13
  23302198.412    11799096.253 5   9194089.805 7        11.000          38.000
  20899944.929    -3145751.052 7  -2451227.253 9        26.000         159.000
  21609993.627   -12151964.721 6  -9221960.281 9        17.000          67.000
  22570751.571    -8151376.208 5  -6051780.482 6         9.000          18.000
 90  6 16 20 43 45.1500000  0  4 02 11 09 13
  23308452.957    11831965.960 5   9219702.517 7        11.000          34.000
  20903670.390    -3126170.012 7  -2435969.299 9        24.000         163.000
  21601433.672   -12196952.086 6  -9257015.325 9        17.000          61.000
  22559444.372    -8210807.391 5  -6098090.257 6        10.000          21.000
 90  6 16 20 44  0.2540000  0  4 02 11 09 13
  23314712.588    11864849.685 5   9245326.154 7        11.000          35.000
  20907422.268    -3106461.430 7  -2420611.979 9        26.000         154.000
  21592879.253   -12241903.736 6  -9292042.548 9        17.000          70.000
  22548147.510    -8270171.196 5  -6144347.541 6        10.000          18.000
 90  6 16 20 44 15.1020000  0  4 02 11 09 13
  23320865.625    11897196.639 5   9270531.531 7        11.000          34.000
  20911132.386    -3086955.588 7  -2405412.615 9        25.000         162.000
  21584479.005   -12286051.305 6  -9326443.203 9        17.000          69.000
  22537056.596    -8328455.640 5  -6189763.786 6        10.000          13.000
 90  6 16 20 44 30.2060000  0  4 02 11 09 13
  23327133.500    11930118.174 6   9296184.613 7        12.000          35.000
  20914933.552    -3066985.294 7  -2389851.359 9        25.000         163.000
  21575940.399   -12330922.037 6  -9361407.368 9        17.000          70.000
  22525787.540    -8387675.338 5  -6235908.796 6        10.000          21.000
 90  6 16 20 44 45.0540000  0  4 02 11 09 13
  23333290.786    11962491.753 5   9321410.715 7        11.000          36.000
  20918690.986    -3047233.477 7  -2374460.338 9        24.000         159.000
  21567550.823   -12375000.208 6  -9395753.961 9        17.000          68.000
  22514721.306    -8445828.093 5  -6281222.405 6        10.000          15.000
 90  6 16 20 45  0.1580000  0  4 02 11 09 13
  23339562.747    11995437.045 5   9347082.324 7        11.000          35.000
  20922539.029    -3027016.391 7  -2358706.766 9        24.000         158.000
  21559027.090   -12419802.700 6  -9430664.951 9        17.000          76.000
  22503476.093    -8504916.188 5  -6327264.868 6        10.000          19.000
 90  6 16 20 45 15.0060000  0  4 02 11 09 13
  23345729.799    12027841.904 5   9372332.816 7        11.000          38.000
  20926344.454    -3007014.532 7  -2343120.912 9        24.000         164.000
  21550652.315   -12463805.184 6  -9464952.563 9        17.000          81.000
  22492435.234    -8562931.155 5  -6372471.114 5        10.000          11.000
 90  6 16 20 45 30.1100000  0  4 02 11 09 13
  23352003.895    12060814.882 6   9398026.001 7        12.000          28.000
  20930239.926    -2986545.982 7  -2327171.397 9        24.000         162.000
  21542140.881   -12508532.484 6  -9499804.967 9        16.000          71.000
  22481216.300    -8621880.728 5  -6418405.640 6        10.000          15.000
 90  6 16 20 45 45.2140000  0  4 02 11 09 13
  23358279.033    12093799.866 5   9423728.516 7        11.000          38.000
  20934158.678    -2965951.877 7  -2311124.045 9        24.000         157.000
  21533634.943   -12553222.299 6  -9534628.164 9        16.000          77.000
  22470012.713    -8680760.688 5  -6464285.914 5        10.000          10.000
 90  6 16 20 46  0.0620000  0  4 02 11 09 13
  23364452.888    12126238.130 5   9449005.034 7        11.000          37.000
  20938036.253    -2945583.367 7  -2295252.483 9        24.000         165.000
  21525284.297   -12597116.516 6  -9568831.414 9        17.000          78.000
  22459013.460    -8738573.038 5  -6509334.288 6        11.000          18.000
 90  6 16 20 46 15.1660000  0  4 02 11 09 13
  23370735.831    12159246.493 5   9474725.784 8        11.000          41.000
  20942000.983    -2924739.522 7  -2279010.532 9        24.000         165.000
  21516794.673   -12641729.480 6  -9603594.718 9        16.000          81.000
  22447834.736    -8797312.206 5  -6555104.853 6        11.000          24.000
 90  6 16 20 46 30.0140000  0  4 02 11 09 13
  23376911.443    12191703.273 5   9500016.715 7        11.000          36.000
  20945923.546    -2904129.307 7  -2262950.633 9        24.000         160.000
  21508456.192   -12685550.931 6  -9637741.274 9        17.000          75.000
  22436858.038    -8854988.767 5  -6600047.438 6        11.000          21.000
 90  6 16 20 46 45.1180000  0  4 02 11 09 13
  23383195.733    12224730.178 5   9525751.915 7        11.000          37.000
  20949937.390    -2883039.271 7  -2246516.840 9        24.000         160.000
  21499979.878   -12730088.449 6  -9672445.792 9        16.000          72.000
  22425708.744    -8913588.267 5  -6645709.185 6        11.000          19.000
 90  6 16 20 47  0.2220000  0  4 02 11 09 13
  23389481.217    12257767.339 5   9551495.098 7        11.000          34.000
  20953973.177    -2861822.971 7  -2229984.666 9        24.000         166.000
  21491512.289   -12774584.883 6  -9707118.300 9        17.000          81.000
  22414570.105    -8972114.222 5  -6691313.619 6        11.000          22.000
 90  6 16 20 47 15.0700000  0  4 02 11 09 13
  23395665.052    12290250.968 5   9576806.953 7        10.000          30.000
  20957965.754    -2840847.314 7  -2213640.006 9        24.000         156.000
  21483196.578   -12818290.528 6  -9741174.619 9        17.000          74.000
  22403635.085    -9029580.029 5  -6736091.979 6        11.000          20.000
 90  6 16 20 47 30.1740000  0  4 02 11 09 13
  23401954.410    12323298.514 5   9602558.241 8        10.000          42.000
  20962048.162    -2819391.128 7  -2196920.905 9        24.000         158.000
  21474742.247   -12862714.186 6  -9775790.421 9        17.000          83.000
  22392522.362    -9087968.738 5  -6781589.478 6        11.000          20.000
 90  6 16 20 47 45.0220000  0  4 02 11 09 13
  23408136.539    12355794.183 5   9627879.477 7        10.000          38.000
  20966085.440    -2798179.315 7  -2180392.234 9        25.000         161.000
  21466437.896   -12906347.129 6  -9809790.076 9        17.000          75.000
  22381614.739    -9145298.179 5  -6826261.584 6        11.000          20.000
 90  6 16 20 48  0.1260000  0  4 02 11 09 13
  23414427.644    12388860.532 5   9653645.424 7         9.000          33.000
  20970214.103    -2776480.332 7  -2163483.938 9        24.000         161.000
  21458000.400   -12950693.134 6  -9844345.381 9        17.000          74.000
  22370528.729    -9203544.508 5  -6871648.147 6        11.000          24.000
 90  6 16 20 48 15.2300000  0  4 02 11 09 13
  23420720.720    12421936.818 5   9679419.102 7        10.000          34.000
  20974365.586    -2754660.715 7  -2146481.649 9        25.000         154.000
  21449569.656   -12995000.968 6  -9878870.921 9        18.000          67.000
  22359456.744    -9261719.906 5  -6916979.445 6        11.000          18.000
 90  6 16 20 48 30.0780000  0  4 02 11 09 13
  23426914.198    12454465.657 5   9704766.186 7        10.000          30.000
  20978470.948    -2733091.763 7  -2129674.686 9        25.000         157.000
  21441287.329   -13038518.514 6  -9912780.662 9        17.000          77.000
  22348589.625    -9318838.204 5  -6961487.020 6        11.000          20.000
 90  6 16 20 48 45.1820000  0  4 02 11 09 13
  23433213.893    12487566.082 5   9730558.664 7        10.000          30.000
  20982668.961    -2711033.353 7  -2112486.321 9        25.000         150.000
  21432871.438   -13082749.263 6  -9947246.151 9        17.000          77.000
  22337546.692    -9376871.964 5  -7006707.948 6        11.000          21.000
 90  6 16 20 49  0.0300000  0  4 02 11 09 13
  23439406.677    12520116.829 5   9755922.842 7        10.000          36.000
  20986817.016    -2689233.497 7  -2095499.431 9        26.000         159.000
  21424602.952   -13126193.772 6  -9981098.976 9        17.000          79.000
  22326703.150    -9433853.345 5  -7051108.853 7        11.000          27.000
 90  6 16 20 49 15.1340000  0  4 02 11 09 13
  23445708.824    12553242.185 5   9781734.749 7        10.000          34.000
  20991059.344    -2666939.721 7  -2078127.668 9        25.000         156.000
  21416200.587   -13170348.443 6 -10015505.168 9        17.000          75.000
  22315685.694    -9491745.644 5  -7096219.544 6        11.000          23.000
 90  6 16 20 49 30.2380000  0  4 02 11 09 13
  23452019.286    12586383.298 5   9807558.927 7        11.000          37.000
  20995325.259    -2644524.723 7  -2060661.438 9        26.000         155.000
  21407806.710   -13214461.385 6 -10049878.856 9        17.000          75.000
  22304683.418    -9549563.122 5  -7141271.930 6        11.000          24.000
 90  6 16 20 49 45.0860000  0  4 02 11 09 13
  23458219.302    12618977.536 5   9832956.984 7        10.000          34.000
  20999540.710    -2622373.056 7  -2043400.409 9        25.000         154.000
  21399560.738   -13257787.018 6 -10083639.051 9        17.000          81.000
  22293880.174    -9606328.900 5  -7185504.835 6        11.000          18.000
 90  6 16 20 50  0.1900000  0  4 02 11 09 13
  23464530.541    12652145.940 5   9858802.439 7        10.000          28.000
  21003849.426    -2599723.659 7  -2025751.537 9        26.000         161.000
  21391183.175   -13301821.449 6 -10117951.564 9        18.000          79.000
  22282905.622    -9664002.475 5  -7230445.097 6        11.000          23.000
 90  6 16 20 50 15.0380000  0  4 02 11 09 13
  23470737.809    12684760.791 5   9884216.559 7        10.000          31.000
  21008109.028    -2577346.011 7  -2008314.421 9        26.000         155.000
  21382952.914   -13345073.116 6 -10151654.120 9        18.000          75.000
  22272129.061    -9720629.812 5  -7274570.113 7        11.000          29.000
 90  6 16 20 50 30.1420000  0  4 02 11 09 13
  23477053.614    12717949.454 5   9910077.796 7        10.000          33.000
  21012462.506    -2554464.873 7  -1990484.969 9        26.000         156.000
  21374587.783   -13389029.186 6 -10185905.561 9        18.000          82.000
  22261182.652    -9778159.383 5  -7319398.178 6        11.000          22.000
 90  6 16 20 50 45.2460000  0  4 02 11 09 13
  23483370.195    12751149.798 5   9935948.131 7        10.000          32.000
  21016839.286    -2531464.088 7  -1972562.287 9        26.000         156.000
  21366230.456   -13432942.213 6 -10220123.461 9        18.000          77.000
  22250250.942    -9835612.742 5  -7364166.847 6        11.000          21.000
 90  6 16 20 51  0.0940000  0  4 02 11 09 13
  23489583.154    12783794.711 5   9961385.674 7        10.000          33.000
  21021164.274    -2508739.451 7  -1954854.785 9        26.000         159.000
  21358024.160   -13476071.045 6 -10253730.316 9        18.000          86.000
  22239515.242    -9892020.304 5  -7408120.623 6        11.000          23.000
 90  6 16 20 51 15.1980000  0  4 02 11 09 13
  23495902.503    12817009.097 5   9987266.953 7        10.000          36.000
  21025583.926    -2485507.066 7  -1936751.641 9        26.000         159.000
  21349681.604   -13519902.319 6 -10287884.515 9        18.000          84.000
  22228609.255    -9949326.182 5  -7452774.369 7        11.000          29.000
 90  6 16 20 51 30.0460000  0  4 02 11 09 13
  23502117.147    12849664.278 5  10012712.492 7        10.000          32.000
  21029952.155    -2462556.146 7  -1918867.814 9        26.000         156.000
  21341489.917   -13562951.352 6 -10321429.174 9        18.000          86.000
  22217902.300   -10005588.945 5  -7496615.326 7        11.000          26.000
 90  6 16 20 51 45.1500000  0  4 02 11 09 13
  23508441.113    12882887.168 5  10038600.402 7        10.000          32.000
  21034417.336    -2439093.851 7  -1900585.514 9        26.000         160.000
  21333165.176   -13606700.577 6 -10355519.450 9        18.000          82.000
  22207025.048   -10062746.799 5  -7541153.733 6        11.000          22.000
 90  6 16 20 52  0.2540000  0  4 02 11 09 13
  23514759.697    12916116.417 5  10064493.268 7         9.000          27.000
  21038903.734    -2415514.144 7  -1882211.728 9        26.000         159.000
  21324848.996   -13650405.954 6 -10389575.548 9        19.000          83.000
  22196164.283   -10119827.502 6  -7585632.046 6        12.000          25.000
 90  6 16 20 52 15.1020000  0  4 02 11 09 13
  23520981.552    12948789.915 5  10089953.090 7        10.000          34.000
  21043336.553    -2392218.496 7  -1864059.284 9        26.000         162.000
  21316682.049   -13693326.039 6 -10423019.738 9        19.000          83.000
  22185500.723   -10175863.861 5  -7629296.575 7        11.000          30.000
 90  6 16 20 52 30.2060000  0  4 02 11 09 13
  23527306.040    12982030.955 5  10115855.122 6         9.000          24.000
  21047868.889    -2368408.326 7  -1845505.927 9        26.000         158.000
  21308382.162   -13736944.922 6 -10457008.443 9        19.000          85.000
  22174667.010   -10232792.052 5  -7673656.022 6        11.000          20.000
 90  6 16 20 52 45.0540000  0  4 02 11 09 13
  23533524.739    13014714.177 5  10141322.518 7         9.000          26.000
  21052342.200    -2344889.830 7  -1827179.819 9        25.000         160.000
  21300230.355   -13779782.403 7 -10490388.256 9        20.000          84.000
  22164032.899   -10288680.659 6  -7717205.429 6        12.000          23.000
 90  6 16 20 53  0.1580000  0  4 02 11 09 13
  23539854.140    13047968.365 5  10167234.827 7        10.000          27.000
  21056917.889    -2320850.504 7  -1808447.894 9        25.000         160.000
  21291946.128   -13823313.757 6 -10524308.763 9        19.000          84.000
  22153228.593   -10345454.975 6  -7761444.989 7        12.000          26.000
 90  6 16 20 53 15.0060000  0  4 02 11 09 13
  23546075.108    13080664.146 5  10192711.984 7        10.000          30.000
  21061435.933    -2297108.215 7  -1789947.422 9        26.000         158.000
  21283810.303   -13866065.774 6 -10557621.983 9        19.000          78.000
  22142621.399   -10401192.919 6  -7804876.995 6        12.000          21.000
 90  6 16 20 53 30.1100000  0  4 02 11 09 13
  23552404.396    13113928.474 5  10218632.188 6         9.000          25.000
  21066052.236    -2272846.144 7  -1771041.921 9        26.000         161.000
  21275541.276   -13909513.714 6 -10591477.486 9        19.000          86.000
  22131843.765   -10457817.677 6  -7849000.014 7        12.000          28.000
 90  6 16 20 53 45.2140000  0  4 02 11 09 13
  23558736.044    13147199.557 5  10244557.639 7         9.000          29.000
  21070690.809    -2248472.659 7  -1752049.600 9        25.000         157.000
  21267281.657   -13952919.615 6 -10625300.232 9        19.000          89.000
  22121085.887   -10514366.685 6  -7893064.020 7        12.000          27.000
 90  6 16 20 54  0.0620000  0  4 02 11 09 13
  23564962.191    13179919.094 5  10270053.333 6         9.000          18.000
  21075272.094    -2224400.092 7  -1733291.773 9        25.000         157.000
  21259169.667   -13995544.670 6 -10658514.527 9        18.000          91.000
  22110521.444   -10569879.154 6  -7936320.332 7        12.000          27.000
 90  6 16 20 54 15.1660000  0  4 02 11 09 13
  23571300.458    13213211.332 5  10295995.288 6         9.000          19.000
  21079951.333    -2199803.138 7  -1714125.322 9        25.000         156.000
  21250926.352   -14038862.898 6 -10692268.941 9        19.000          96.000
  22099790.779   -10626273.601 6  -7980263.908 6        12.000          22.000
 90  6 16 20 54 30.0140000  0  4 02 11 09 13
  23577527.095    13245950.493 5  10321506.256 6         8.000          21.000
  21084575.706    -2175512.766 7  -1695197.780 9        26.000         158.000
  21242832.627   -14081402.307 6 -10725416.498 9        19.000          89.000
  22089253.989   -10681635.224 6  -8023402.676 7        12.000          27.000
 90  6 16 20 54 45.1180000  0  4 02 11 09 13
  23583869.060    13279264.990 5  10347465.557 6         9.000          24.000
  21089297.358    -2150691.126 7  -1675856.250 9        25.000         155.000
  21234605.482   -14124629.073 6 -10759099.658 9        19.000          96.000
  22078554.695   -10737871.907 6  -8067223.329 7        12.000          26.000
 90  6 16 20 55  0.2220000  0  4 02 11 09 13
  23590209.984    13312584.873 5  10373429.041 6         9.000          21.000
  21094042.566    -2125762.478 7  -1656431.346 9        25.000         162.000
  21226388.348   -14167815.178 6 -10792751.128 9        19.000          96.000
  22067864.738   -10794034.073 6  -8110985.895 7        12.000          30.000
 90  6 16 20 55 15.0700000  0  4 02 11 09 13
  23596446.846    13345354.148 5  10398963.502 6         9.000          21.000
  21098726.800    -2101145.343 7  -1637249.174 9        25.000         155.000
  21218318.537   -14210222.349 6 -10825795.641 9        19.000          97.000
  22057373.579   -10849164.816 6  -8153944.782 7        12.000          28.000
 90  6 16 20 55 30.1740000  0  4 02 11 09 13
  23602791.252    13378703.065 5  10424949.596 6         9.000          23.000
  21103512.644    -2075991.308 7  -1617648.648 9        25.000         156.000
  21210119.413   -14253312.801 6 -10859372.573 9        19.000          96.000
  22046718.007   -10905164.874 6  -8197581.034 7        12.000          29.000
 90  6 16 20 55 45.0220000  0  4 02 11 09 13
  23609029.667    13411494.401 5  10450501.233 6         9.000          22.000
  21108237.718    -2051160.339 7  -1598299.848 9        25.000         153.000
  21202065.875   -14295632.377 6 -10892348.837 9        19.000          91.000
  22036256.308   -10960142.345 6  -8240420.471 6        13.000          25.000
 90  6 16 20 56  0.1260000  0  4 02 11 09 13
  23615380.336    13444861.096 5  10476501.219 6         9.000          17.000
  21113065.025    -2025793.465 7  -1578533.466 9        25.000         151.000
  21193882.083   -14338637.101 7 -10925858.979 9        20.000         103.000
  22025628.715   -11015989.798 6  -8283937.822 7        13.000          27.000
 90  6 16 20 56 15.2300000  0  4 02 11 09 13
  23621730.453    13478234.896 5  10502506.718 6         9.000          23.000
  21117912.333    -2000319.507 7  -1558683.640 9        25.000         152.000
  21185706.790   -14381597.890 7 -10959334.886 9        20.000         100.000
  22015016.721   -11071759.537 6  -8327394.600 7        13.000          31.000
 90  6 16 20 56 30.0780000  0  4 02 11 09 13
  23627977.081    13511055.000 5  10528080.762 6         8.000          18.000
  21122699.995    -1975166.539 7  -1539083.936 9        25.000         149.000
  21177680.527   -14423780.752 7 -10992204.615 9        20.000         105.000
  22004598.928   -11126501.410 6  -8370050.463 6        12.000          22.000
 90  6 16 20 56 45.1820000  0  4 02 11 09 13
  23634327.351    13544447.246 5  10554100.630 6         8.000          14.000
  21127588.194    -1949472.214 7  -1519062.403 9        25.000         157.000
  21169523.131   -14466644.846 7 -11025605.176 9        20.000         109.000
  21994016.496   -11182107.416 6  -8413379.671 7        12.000          33.000
 90  6 16 20 57  0.0300000  0  4 02 11 09 13
  23640582.324    13577281.295 5  10579685.558 6         9.000          22.000
  21132416.339    -1924107.145 7  -1499297.426 9        25.000         153.000
  21161512.610   -14508735.913 7 -11058403.376 9        20.000         110.000
  21983630.646   -11236691.521 6  -8455912.582 7        12.000          27.000
 90  6 16 20 57 15.1340000  0  4 02 11 09 13
  23646935.108    13610692.968 5  10605720.572 6         9.000          24.000
  21137346.522    -1898194.259 7  -1479105.574 9        25.000         154.000
  21153375.491   -14551502.531 7 -11091727.977 9        20.000         103.000
  21973076.980   -11292133.125 6  -8499113.680 7        12.000          26.000
 90  6 16 20 57 30.2380000  0  4 02 11 09 13
  23653295.736    13644107.495 5  10631757.847 6         8.000          17.000
  21142297.432    -1872177.235 7  -1458832.590 9        25.000         152.000
  21145246.433   -14594225.165 7 -11125018.311 9        20.000         104.000
  21962544.542   -11347497.001 6  -8542254.205 6        12.000          25.000
 90  6 16 20 57 45.0860000  0  4 02 11 09 13
  23659547.032    13676959.916 5  10657357.050 7         8.000          26.000
  21147184.191    -1846497.684 7  -1438822.557 9        26.000         158.000
  21137263.155   -14636178.041 7 -11157708.840 9        20.000         108.000
  21952202.076   -11401844.084 6  -8584602.427 6        13.000          24.000
 90  6 16 20 58  0.1900000  0  4 02 11 09 13
  23665905.771    13710380.780 5  10683399.225 6         8.000          22.000
  21152174.960    -1820272.534 7  -1418387.385 9        26.000         152.000
  21129149.286   -14678809.880 7 -11190928.420 9        20.000         109.000
  21941693.981   -11457050.190 6  -8627620.016 7        12.000          26.000
 90  6 16 20 58 15.0380000  0  4 02 11 09 13
  23672162.971    13743244.022 5  10709006.911 6         8.000          20.000
  21157101.742    -1794384.398 7  -1398214.824 9        26.000         155.000
  21121183.201   -14720668.434 6 -11223545.439 9        19.000         110.000
  21931385.092   -11511237.095 6  -8669843.436 7        12.000          28.000
 90  6 16 20 58 30.1420000  0  4 02 11 09 13
  23678520.913    13776679.707 5  10735060.624 6         8.000          19.000
  21162132.861    -1767944.661 7  -1377612.446 9        26.000         154.000
  21113091.091   -14763200.610 7 -11256687.359 9        20.000         106.000
  21920912.086   -11566276.685 6  -8712731.265 6        13.000          23.000
 90  6 16 20 58 45.2460000  0  4 02 11 09 13
  23684887.397    13810124.237 5  10761121.247 6         8.000          14.000
  21167184.461    -1741397.444 7  -1356926.315 9        26.000         153.000
  21105005.508   -14805682.272 7 -11289789.921 9        20.000         119.000
  21910454.556   -11621231.915 6  -8755553.358 7        13.000          30.000
 90  6 16 20 59  0.0940000  0  4 02 11 09 13
  23691145.047    13843013.097 4  10786748.857 6         7.000          20.000
  21172170.225    -1715194.774 7  -1336508.664 9        26.000         147.000
  21097069.700   -14847393.291 7 -11322291.979 9        20.000         115.000
  21900188.040   -11675172.124 6  -8797584.539 7        13.000          28.000
 90  6 16 20 59 15.1980000  0  4 02 11 09 13
  23697516.197    13876477.936 4  10812825.329 6         7.000          17.000
  21177262.379    -1688436.575 7  -1315658.130 9        26.000         158.000
  21089003.455   -14889774.971 7 -11355316.631 9        20.000         112.000
  21889765.272   -11729960.182 6  -8840276.386 7        13.000          26.000
 90  6 16 20 59 30.0460000  0  4 02 11 09 13
  23703773.806    13909382.889 4  10838465.484 6         7.000          15.000
  21182288.074    -1662030.089 7  -1295081.662 9        26.000         152.000
  21081085.442   -14931390.165 7 -11387744.018 9        20.000         112.000
  21879527.853   -11783738.323 6  -8882181.264 7        13.000          32.000
 90  6 16 20 59 45.1500000  0  4 02 11 09 13
  23710150.963    13942866.821 5  10864556.802 6         8.000          14.000
  21187419.597    -1635061.518 7  -1274067.206 9        26.000         147.000
  21073038.892   -14973670.186 7 -11420689.456 9        20.000         108.000
  21869138.315   -11838357.527 6  -8924741.534 7        13.000          29.000
 90  6 16 21  0  0.2540000  0  4 02 11 09 13
  23716521.234    13976364.718 5  10890658.987 6         8.000          13.000
  21192572.675    -1607984.560 7  -1252968.301 9        26.000         151.000
  21065003.486   -15015895.475 7 -11453592.249 9        20.000         111.000
  21858761.678   -11892888.550 6  -8967233.075 7        13.000          29.000
 90  6 16 21  0 15.1020000  0  4 02 11 09 13
  23722791.694    14009305.813 5  10916327.321 6         8.000          16.000
  21197656.575    -1581264.155 7  -1232147.210 9        26.000         147.000
  21057114.229   -15057354.518 7 -11485897.956 9        20.000         104.000
  21848572.224   -11946411.700 6  -9008939.280 7        13.000          31.000
 90  6 16 21  0 30.2060000  0  4 02 11 09 13
  23729166.287    14042827.585 4  10942448.126 6         7.000          16.000
  21202849.389    -1553977.723 7  -1210885.074 9        26.000         150.000
  21049099.336   -15099475.173 6 -11518719.220 9        19.000         110.000
  21838229.666   -12000771.058 6  -9051297.065 7        13.000          29.000
 90  6 16 21  0 45.0540000  0  4 02 11 09 13
  23735442.834    14075790.999 5  10968133.844 6         8.000          19.000
  21207973.813    -1527053.145 7  -1189904.892 9        26.000         152.000
  21041230.356   -15140832.044 7 -11550945.316 9        20.000         115.000
  21828076.017   -12054126.612 6  -9092872.664 7        13.000          29.000
 90  6 16 21  1  0.1580000  0  4 02 11 09 13
  23741825.558    14109331.652 4  10994269.349 6         7.000          17.000
  21213204.157    -1499563.847 7  -1168484.677 9        26.000         150.000
  21033233.472   -15182852.310 6 -11583688.341 9        19.000         109.000
  21817762.479   -12108318.808 6  -9135100.195 7        13.000          29.000
 90  6 16 21  1 15.0060000  0  4 02 11 09 13
  23748101.360    14142311.888 4  11019968.187 6         7.000          14.000
  21218365.059    -1472441.894 7  -1147350.698 9        26.000         146.000
  21025383.043   -15224111.054 7 -11615837.975 9        20.000         106.000
  21807639.568   -12161510.336 6  -9176547.986 7        13.000          31.000
 90  6 16 21  1 30.1100000  0  4 02 11 09 13
  23754488.661    14175867.468 4  11046115.335 6         7.000          14.000
  21223634.374    -1444752.817 7  -1125774.812 9        26.000         146.000
  21017403.749   -15266031.230 7 -11648503.014 9        20.000         109.000
  21797361.110   -12215535.488 6  -9218645.358 7        13.000          38.000
 90  6 16 21  1 45.2140000  0  4 02 11 09 13
  23760874.418    14209432.476 4  11072269.852 6         7.000          18.000
  21228923.762    -1416962.675 7  -1104120.174 9        26.000         148.000
  21009436.877   -15307899.746 7 -11681127.803 9        20.000         110.000
  21787097.024   -12269475.054 6  -9260676.034 7        14.000          35.000
 90  6 16 21  2  0.0620000  0  4 02 11 09 13
  23767155.277    14242440.643 4  11097990.441 6         7.000          17.000
  21234140.183    -1389543.115 7  -1082754.297 9        25.000         147.000
  21001614.009   -15349005.657 6 -11713158.341 9        19.000         116.000
  21777023.258   -12322414.653 6  -9301927.514 7        14.000          37.000
 90  6 16 21  2 15.1660000  0  4 02 11 09 13
  23773549.309    14276027.813 4  11124162.207 6         7.000          16.000
  21239466.427    -1361549.873 7  -1060941.396 9        25.000         141.000
  20993667.986   -15390766.993 7 -11745699.611 9        20.000         104.000
  21766789.113   -12376180.456 6  -9343822.789 7        14.000          36.000
 90  6 16 21  2 30.0140000  0  4 02 11 09 13
  23779828.788    14309049.490 4  11149893.342 6         7.000          16.000
  21244721.267    -1333936.978 7  -1039424.864 9        25.000         141.000
  20985864.986   -15431772.545 7 -11777651.946 9        20.000         108.000
  21756747.811   -12428954.203 6  -9384945.050 8        14.000          40.000
 90  6 16 21  2 45.1180000  0  4 02 11 09 13
  23786226.641    14342643.380 5  11176070.341 6         8.000          14.000
  21250084.786    -1305752.417 7  -1017462.887 9        25.000         141.000
  20977937.161   -15473435.883 7 -11810116.869 9        20.000         110.000
  21746548.848   -12482555.252 6  -9426711.946 7        14.000          33.000
 90  6 16 21  3  0.2220000  0  4 02 11 09 13
  23792615.095    14376243.932 5  11202252.541 6         8.000          18.000
  21255467.929    -1277466.649 7   -995422.042 9        25.000         144.000
  20970018.790   -15515044.367 7 -11842539.029 9        20.000         112.000
  21736363.777   -12536067.662 6  -9468409.771 7        14.000          34.000
 90  6 16 21  3 15.0700000  0  4 02 11 09 13
  23798904.514    14409275.652 5  11227991.531 6         8.000          12.000
  21260777.144    -1249566.755 7   -973681.881 9        24.000         141.000
  20962245.557   -15555898.341 6 -11874373.266 9        19.000         116.000
  21726370.956   -12588591.311 6  -9509337.151 7        15.000          34.000
 90  6 16 21  3 30.1740000  0  4 02 11 09 13
  23805299.098    14442876.852 5  11254174.207 6         8.000          12.000
  21266195.416    -1221090.955 7   -951492.964 9        25.000         148.000
  20954345.972   -15597406.329 6 -11906717.113 9        19.000         102.000
  21716218.432   -12641936.726 6  -9550904.859 8        14.000          43.000
 90  6 16 21  3 45.0220000  0  4 02 11 09 13
  23811585.871    14475909.526 5  11279913.865 6         8.000          13.000
  21271540.415    -1193004.294 7   -929607.269 9        24.000         142.000
  20946589.726   -15638160.340 6 -11938473.461 9        19.000         104.000
  21706254.571   -12694294.816 6  -9591703.224 7        14.000          35.000
 90  6 16 21  4  0.1260000  0  4 02 11 09 13
  23817979.116    14509519.921 5  11306103.737 6         8.000          18.000
  21276997.361    -1164331.339 7   -907264.724 9        24.000         146.000
  20938714.076   -15679558.106 7 -11970731.436 9        20.000         107.000
  21696135.920   -12747463.587 6  -9633133.285 8        14.000          42.000
 90  6 16 21  4 15.2300000  0  4 02 11 09 13
  23824375.682    14543133.125 5  11332295.811 5         8.000           7.000
  21282472.388    -1135559.046 7   -884844.767 9        25.000         140.000
  20930844.493   -15720899.552 6 -12002945.523 9        19.000         109.000
  21686034.593   -12800542.438 6  -9674493.277 7        15.000          31.000
 90  6 16 21  4 30.0780000  0  4 02 11 09 13
  23830664.140    14576178.916 4  11358045.704 6         7.000          14.000
  21287873.301    -1107178.528 7   -862730.096 9        25.000         139.000
  20923123.735   -15761485.567 6 -12034570.959 9        19.000         108.000
  21676122.942   -12852633.982 6  -9715083.956 8        14.000          43.000
 90  6 16 21  4 45.1820000  0  4 02 11 09 13
  23837062.054    14609796.227 4  11384240.972 6         7.000          14.000
  21293384.685    -1078212.653 7   -840159.295 9        25.000         145.000
  20915276.820   -15802716.418 6 -12066698.860 9        19.000         114.000
  21666055.040   -12905535.553 6  -9756305.812 7        14.000          35.000
 90  6 16 21  5  0.0300000  0  4 02 11 09 13
  23843347.775    14642837.981 4  11409987.724 5         7.000          11.000
  21298819.435    -1049652.534 7   -817904.674 9        25.000         144.000
  20907571.895   -15843203.131 6 -12098246.913 9        19.000         112.000
  21656175.343   -12957462.546 6  -9796768.250 8        14.000          40.000
 90  6 16 21  5 15.1340000  0  4 02 11 09 13
  23849744.657    14676452.222 5  11436180.582 6         8.000          12.000
  21304366.286    -1020507.794 7   -795194.500 9        25.000         148.000
  20899744.164   -15884335.772 6 -12130298.298 9        19.000         110.000
  21646138.965   -13010199.445 6  -9837861.800 8        15.000          44.000
 90  6 16 21  5 30.2380000  0  4 02 11 09 13
  23856143.705    14710074.576 5  11462379.753 5         8.000           8.000
  21309929.532     -991266.813 7   -772409.338 9        25.000         142.000
  20891927.394   -15925411.914 6 -12162305.652 9        19.000         110.000
  21636119.258   -13062846.559 6  -9878885.378 8        15.000          43.000
 90  6 16 21  5 45.0860000  0  4 02 11 09 13
  23862437.025    14743141.419 4  11488146.026 6         7.000          12.000
  21315418.085     -962422.319 7   -749933.117 9        25.000         147.000
  20884256.455   -15965730.673 7 -12193722.842 9        20.000         117.000
  21626289.922   -13114507.701 6  -9919140.677 8        15.000          42.000
 90  6 16 21  6  0.1900000  0  4 02 11 09 13
  23868840.128    14776785.789 4  11514362.441 6         7.000          12.000
  21321020.363     -932988.421 7   -726997.635 9        25.000         146.000
  20876461.515   -16006690.539 7 -12225639.582 9        20.000         118.000
  21616305.019   -13166972.540 6  -9960022.227 8        15.000          42.000
 90  6 16 21  6 15.0380000  0  4 02 11 09 13
  23875136.156    14809867.750 3  11540140.499 6         6.000          12.000
  21326543.106     -903961.527 7   -704379.293 9        25.000         142.000
  20868809.189   -16046901.114 7 -12256972.470 9        20.000         119.000
  21606508.606   -13218460.385 6 -10000142.483 8        15.000          46.000
 90  6 16 21  6 30.1420000  0  4 02 11 09 13
  23881541.129    14843530.510 3  11566371.131 5         6.000          11.000
  21332179.942     -874339.511 7   -681297.214 9        25.000         148.000
  20861035.639   -16087747.065 7 -12288800.451 9        20.000         114.000
  21596556.892   -13270745.019 6 -10040883.617 7        14.000          37.000
 90  6 16 21  6 45.2460000  0  4 02 11 09 13
  23887946.428    14877204.133 3  11592610.271 5         6.000          11.000
  21337834.562     -844624.021 7   -658142.309 9        25.000         148.000
  20853274.337   -16128535.892 7 -12320583.925 9        20.000         121.000
  21586625.833   -13322939.329 6 -10081554.373 8        14.000          43.000
 90  6 16 21  7  0.0940000  0  4 02 11 09 13
  23894251.966    14910323.507 4  11618417.524 6         7.000          12.000
  21343413.519     -815316.990 7   -635305.679 9        25.000         151.000
  20845655.844   -16168572.972 7 -12351781.621 9        20.000         116.000
  21576879.027   -13374156.246 6 -10121463.528 8        14.000          52.000
 90  6 16 21  7 15.1980000  0  4 02 11 09 13
  23900661.382    14944027.714 3  11644680.513 5         6.000           5.000
  21349103.882     -785411.102 7   -612002.411 9        25.000         146.000
  20837918.394   -16209241.572 7 -12383471.403 9        20.000         119.000
  21566983.740   -13426164.555 6 -10161989.341 8        14.000          40.000
 90  6 16 21  7 30.0460000  0  4 02 11 09 13
  23906970.924    14977171.508 3  11670506.777 6         6.000          12.000
  21354714.342     -755921.101 7   -589023.203 9        24.000         156.000
  20830320.781   -16249163.468 7 -12414579.349 9        21.000         131.000
  21557269.416   -13477201.633 6 -10201758.366 8        14.000          43.000
 90  6 16 21  7 45.1500000  0  4 02 11 09 13
  23913390.596    15010903.824 3  11696791.632 5         6.000           6.000
  21360442.623     -725821.880 7   -565569.281 9        24.000         153.000
  20822605.662   -16289706.264 7 -12446171.107 9        21.000         127.000
  21547411.640   -13529018.618 6 -10242135.101 8        14.000          48.000
 90  6 16 21  8  0.2540000  0  4 02 11 09 13
  23919814.007    15044655.851 4  11723091.860 6         7.000          14.000
  21366189.496     -695618.489 7   -542034.197 9        24.000         161.000
  20814903.843   -16330178.106 7 -12477707.586 9        21.000         128.000
  21537568.767   -13580731.444 6 -10282430.677 8        14.000          47.000
 90  6 16 21  8 15.1020000  0  4 02 11 09 13
  23926129.454    15077844.000 4  11748952.701 6         7.000          24.000
  21371856.262     -665836.217 7   -518827.241 9        24.000         157.000
  20807343.689   -16369904.751 7 -12508663.382 9        21.000         124.000
  21527912.087   -13631476.515 6 -10321972.158 8        14.000          45.000
 90  6 16 21  8 30.2060000  0  3 11 09 13
  21377638.714     -635450.477 7   -495150.063 9        24.000         152.000
  20799665.028   -16410257.876 7 -12540107.353 9        21.000         125.000
  21518103.865   -13683005.370 6 -10362124.383 7        14.000          37.000
 90  6 16 21  8 45.0540000  0  3 11 09 13
  21383340.692     -605489.447 7   -471803.824 9        24.000         149.000
  20792128.195   -16449867.081 7 -12570971.639 9        21.000         130.000
  21508484.726   -13733568.624 6 -10401524.182 7        14.000          39.000
 90  6 16 21  9  0.1580000  0  3 11 09 13
  21389157.661     -574919.478 7   -447983.086 9        24.000         154.000
  20784471.323   -16490097.065 7 -12602319.656 9        20.000         133.000
  21498717.038   -13784908.948 6 -10441529.494 8        15.000          40.000
 90  6 16 21  9 15.0060000  0  3 11 09 13
  21394894.145     -544779.564 7   -424497.463 9        24.000         148.000
  20776956.790   -16529586.007 7 -12633090.230 9        21.000         129.000
  21489128.197   -13835288.091 6 -10480785.840 8        14.000          44.000
 90  6 16 21  9 30.1100000  0  3 11 09 13
  21400743.761     -514031.266 7   -400537.767 9        24.000         149.000
  20769324.465   -16569695.878 7 -12664344.654 9        21.000         126.000
  21479394.382   -13886443.547 6 -10520647.106 8        14.000          41.000
 90  6 16 21  9 45.2140000  0  3 11 09 13
  21406612.715     -483194.877 7   -376509.433 9        24.000         153.000
  20761703.510   -16609746.079 7 -12695552.577 9        22.000         141.000
  21469676.024   -13937506.613 6 -10560436.377 8        14.000          45.000
 90  6 16 21 10  0.0620000  0  3 11 09 13
  21412397.425     -452792.350 7   -352819.170 9        24.000         150.000
  20754223.606   -16649055.810 7 -12726183.507 9        22.000         127.000
  21460142.273   -13987610.495 6 -10599478.225 8        14.000          42.000
 90  6 16 21 10 15.1660000  0  3 11 09 13
  21418301.386     -421774.865 7   -328649.723 9        24.000         144.000
  20746625.799   -16688979.349 7 -12757292.732 9        21.000         126.000
  21450461.026   -14038482.122 6 -10639118.318 8        14.000          52.000
 90  6 16 21 10 30.0140000  0  3 11 09 13
  21424119.509     -391193.461 7   -304820.073 9        24.000         143.000
  20739169.573   -16728162.454 7 -12787824.993 9        21.000         121.000
  21440960.731   -14088396.077 6 -10678012.174 8        14.000          47.000
 90  6 16 21 10 45.1180000  0  3 11 09 13
  21430056.873     -359995.015 7   -280509.614 9        24.000         144.000
  20731597.937   -16767956.833 7 -12818833.573 9        21.000         123.000
  21431318.465   -14139074.107 6 -10717501.425 8        14.000          40.000
 90  6 16 21 11  0.2220000  0  3 11 09 13
  21436011.307     -328707.484 7   -256129.742 9        24.000         136.000
  20724035.945   -16807687.186 7 -12849792.255 9        21.000         128.000
  21421693.249   -14189655.581 6 -10756915.424 8        14.000          48.000
 90  6 16 21 11 15.0700000  0  3 11 09 13
  21441880.189     -297864.619 7   -232096.363 9        24.000         135.000
  20716615.871   -16846682.353 7 -12880178.076 9        22.000         122.000
  21412249.791   -14239286.312 6 -10795588.591 8        14.000          42.000
 90  6 16 21 11 30.1740000  0  3 11 09 13
  21447867.352     -266399.811 7   -207578.340 9        25.000         132.000
  20709080.673   -16886283.227 7 -12911035.885 9        21.000         131.000
  21402657.406   -14289673.905 6 -10834851.521 8        14.000          46.000
 90  6 16 21 11 45.0220000  0  3 11 09 13
  21453769.096     -235383.771 7   -183410.017 9        24.000         135.000
  20701683.818   -16925151.026 7 -12941322.436 9        22.000         119.000
  21393253.021   -14339114.117 6 -10873376.234 8        14.000          52.000
 90  6 16 21 12  0.1260000  0  3 11 09 13
  21459790.521     -203746.987 7   -158757.998 9        24.000         137.000
  20694172.125   -16964625.184 7 -12972081.498 9        22.000         129.000
  21383698.811   -14389310.936 6 -10912490.515 8        14.000          46.000
 90  6 16 21 12 15.2300000  0  3 11 09 13
  21465828.617     -172021.625 7   -134036.950 9        25.000         140.000
  20686674.641   -17004032.490 7 -13002788.461 9        22.000         125.000
  21374167.247   -14439408.783 6 -10951527.662 8        14.000          48.000
 90  6 16 21 12 30.0780000  0  3 11 09 13
  21471777.708     -140752.129 7   -109671.125 9        24.000         140.000
  20679312.973   -17042710.563 7 -13032927.194 9        22.000         128.000
  21364811.507   -14488565.080 6 -10989831.146 8        14.000          42.000
 90  6 16 21 12 45.1820000  0  3 11 09 13
  21477847.072     -108853.895 7    -84815.386 9        24.000         139.000
  20671839.208   -17081986.179 7 -13063531.551 9        22.000         135.000
  21355314.941   -14538467.921 6 -11028716.357 8        14.000          41.000
 90  6 16 21 13  0.0300000  0  3 11 09 13
  21483831.548      -77409.980 7    -60313.650 9        25.000         135.000
  20664505.636   -17120528.972 7 -13093564.861 9        22.000         125.000
  21345999.950   -14587426.626 6 -11066865.869 8        15.000          51.000
 90  6 16 21 13 15.1340000  0  3 11 09 13
  21489933.590      -45340.265 7    -35324.278 9        24.000         140.000
  20657055.713   -17159671.517 7 -13124065.524 9        22.000         130.000
  21336541.037   -14637133.034 6 -11105598.015 8        15.000          52.000
 90  6 16 21 13 30.2380000  0  3 11 09 13
  21496051.956      -13189.526 7    -10271.770 9        25.000         138.000
  20649619.846   -17198751.421 7 -13154517.369 9        22.000         132.000
  21327099.694   -14686744.961 6 -11144256.532 8        15.000          46.000
 90  6 16 21 13 45.0860000  0  3 11 09 13
  21502082.339       18500.821 7     14421.989 9        25.000         142.000
  20642321.180   -17237101.657 7 -13184400.649 9        22.000         132.000
  21317837.454   -14735417.951 6 -11182183.424 8        15.000          48.000
 90  6 16 21 14  0.1900000  0  3 11 09 13
  21508233.026       50822.835 7     39607.954 9        24.000         136.000
  20634911.924   -17276044.856 7 -13214745.970 9        22.000         128.000
  21308435.236   -14784830.515 6 -11220686.597 8        15.000          53.000
 90  6 16 21 14 15.0380000  0  3 11 09 13
  21514296.230       82681.140 7     64432.594 9        25.000         130.000
  20627638.070   -17314259.932 7 -13244523.921 9        22.000         133.000
  21299210.006   -14833306.741 6 -11258460.165 8        15.000          49.000
 90  6 16 21 14 30.1410000  0  3 11 09 13
  21520477.848      115170.234 7     89748.765 9        24.000         127.000
  20620254.372   -17353067.954 7 -13274763.913 9        22.000         139.000
  21289844.868   -14882521.511 6 -11296809.215 8        16.000          43.000
 90  6 16 21 14 45.2440000  0  3 11 09 13
  21226882.994      147738.702 7    115126.766 9        24.000         126.000
  20313090.005   -17391806.857 7 -13304950.037 9        22.000         130.000
  20980705.063   -14931634.962 6 -11335079.317 8        15.000          52.000
 90  6 16 21 15  0.0920000  0  3 11 09 13
  21232992.575      179840.908 7    140141.460 9        24.000         126.000
  20305855.428   -17429822.009 7 -13334572.213 9        22.000         129.000
  20971537.139   -14979818.752 6 -11372625.013 8        16.000          53.000
 90  6 16 21 15 15.1960000  0  3 11 09 13
  21239221.745      212580.823 7    165653.066 9        24.000         123.000
  20298510.313   -17468421.918 7 -13364650.039 9        22.000         139.000
  20962226.897   -15028731.446 6 -11410738.678 8        16.000          44.000
 90  6 16 21 15 30.0440000  0  3 11 09 13
  21245362.144      244848.119 7    190796.395 9        24.000         122.000
  20291302.163   -17506297.959 7 -13394163.814 9        22.000         134.000
  20953098.434   -15076714.847 6 -11448128.236 8        16.000          49.000
 90  6 16 21 15 45.1480000  0  3 11 09 13
  21251624.298      277755.408 7    216438.424 9        24.000         119.000
  20283984.844   -17544755.537 7 -13424130.727 9        22.000         140.000
  20943828.073   -15125423.358 6 -11486082.799 8        16.000          53.000
 90  6 16 21 16  0.2520000  0  3 11 09 13
  21257902.520      310745.781 7    242145.193 9        24.000         114.000
  20276679.834   -17583141.691 7 -13454041.983 9        22.000         137.000
  20934580.287   -15174029.224 6 -11523957.384 8        16.000          52.000
 90  6 16 21 16 15.1000000  0  3 11 09 13
  21264090.298      343259.170 7    267480.290 9        24.000         120.000
  20269512.658   -17620805.801 7 -13483390.621 9        22.000         143.000
  20925507.251   -15221709.692 6 -11561110.879 8        16.000          42.000
 90  6 16 21 16 30.2040000  0  3 11 09 13
  21270399.104      376413.116 7    293314.521 9        23.000         115.000
  20262234.922   -17659049.444 7 -13513190.840 9        22.000         147.000
  20916295.596   -15270111.743 6 -11598826.648 8        17.000          46.000
 90  6 16 21 16 45.0520000  0  3 11 09 13
  21276616.975      409086.738 7    318774.463 9        24.000         118.000
  20255094.652   -17696572.762 7 -13542429.765 9        22.000         149.000
  20907260.378   -15317591.169 6 -11635823.493 8        17.000          48.000
 90  6 16 21 17  0.1560000  0  3 11 09 13
  21282956.457      442405.019 7    344736.746 9        24.000         107.000
  20247844.600   -17734670.661 7 -13572116.427 9        21.000         141.000
  20898087.582   -15365786.354 6 -11673378.064 8        17.000          48.000
 90  6 16 21 17 15.0040000  0  3 11 09 13
  21289204.108      475236.707 7    370319.868 9        23.000         113.000
  20240731.401   -17772052.616 7 -13601245.195 9        22.000         140.000
  20889091.130   -15413064.797 6 -11710218.296 8        17.000          49.000
 90  6 16 21 17 30.1080000  0  3 11 09 13
  21295573.930      508712.724 7    396405.058 9        24.000         119.000
  20233508.470   -17810008.403 7 -13630821.109 9        22.000         150.000
  20879959.706   -15461057.351 6 -11747614.975 8        17.000          42.000
 90  6 16 21 17 45.2120000  0  3 11 09 13
  21301960.628      542272.679 7    422555.653 9        24.000         119.000
  20226300.719   -17847887.229 7 -13660337.047 9        22.000         149.000
  20870844.820   -15508942.487 6 -11784927.942 8        16.000          51.000
 90  6 16 21 18  0.0600000  0  3 11 09 13
  21308244.224      575292.957 7    448285.727 9        23.000         108.000
  20219220.167   -17885100.955 7 -13689334.732 9        22.000         152.000
  20861898.494   -15555963.310 6 -11821567.437 8        17.000          51.000
 90  6 16 21 18 15.1640000  0  3 11 09 13
  21314656.674      608992.522 7    474545.118 9        23.000         119.000
  20212034.961   -17922851.807 7 -13718750.957 9        22.000         156.000
  20852821.792   -15603660.164 6 -11858733.695 8        17.000          48.000
 90  6 16 21 18 30.0120000  0  3 11 09 13
  21320976.758      642200.448 7    500421.406 9        23.000         124.000
  20204987.496   -17959888.074 7 -13747610.368 9        22.000         155.000
  20843920.792   -15650444.327 6 -11895188.776 8        17.000          53.000
 90  6 16 21 18 45.1160000  0  3 11 09 13
  21327418.372      676052.914 7    526799.934 9        24.000         124.000
  20197830.474   -17997494.949 7 -13776914.392 9        22.000         155.000
  20834880.701   -15697937.299 6 -11932196.168 9        16.000          60.000
 90  6 16 21 19  0.2200000  0  3 11 09 13
  21333875.564      709986.139 7    553241.389 9        23.000         125.000
  20190688.478   -18035024.579 7 -13806158.235 9        22.000         153.000
  20825864.852   -15745323.152 6 -11969120.091 9        16.000          57.000
 90  6 16 21 19 15.0680000  0  3 11 09 13
  21340238.869      743424.276 7    579297.062 9        24.000         127.000
  20183682.824   -18071840.913 7 -13834846.265 9        22.000         149.000
  20817020.586   -15791799.372 6 -12005335.215 9        16.000          59.000
 90  6 16 21 19 30.1720000  0  3 11 09 13
  21346728.249      777524.372 7    605868.549 9        24.000         121.000
  20176572.526   -18109208.555 7 -13863963.887 9        22.000         152.000
  20808046.098   -15838964.022 6 -12042086.771 8        17.000          52.000
 90  6 16 21 19 45.0200000  0  4 12 11 09 13
  23389607.844                                           0.752 3         5.000
  21353121.678      811123.199 7    632049.438 9        23.000         122.000
  20169596.087   -18145867.460 7 -13892529.235 9        22.000         157.000
  20799241.212   -15885224.972 6 -12078134.145 9        17.000          56.000
 90  6 16 21 20  0.1240000  0  4 12 11 09 13
  23379626.155      -52424.048 3                                         5.000
  21359639.619      845377.863 7    658741.369 9        23.000         129.000
  20162513.432   -18183082.940 7 -13921528.296 9        22.000         155.000
  20790307.237   -15932178.402 6 -12114721.116 9        17.000          59.000
 90  6 16 21 20 15.2280000  0  4 12 11 09 13
  23369652.050     -104861.907 3                                         6.000
  21366172.168      879708.481 7    685492.472 9        22.000         125.000
  20155446.068   -18220222.561 7 -13950468.241 9        22.000         162.000
  20781393.509   -15979026.324 6 -12151225.871 8        17.000          49.000
 90  6 16 21 20 30.0760000  0  4 12 11 09 13
  23359842.664     -156421.988 3                                         6.000
  21372609.716      913532.535 7    711848.850 9        23.000         119.000
  20148514.403   -18256656.956 7 -13978858.652 9        22.000         158.000
  20772647.136   -16024975.621 6 -12187030.401 8        17.000          52.000
 90  6 16 21 20 45.1800000  0  4 12 11 09 13
  23349857.679     -208880.160 3                                         6.000
  21379171.214      948017.805 7    738720.478 9        23.000         122.000
  20141476.010   -18293640.125 7 -14007676.684 9        22.000         152.000
  20763774.943   -16071608.776 6 -12223367.808 9        17.000          54.000
 90  6 16 21 21  0.0280000  0  4 12 11 09 13
  23340043.420     -260454.797 3                                         6.000
  21385637.201      981997.982 7    765198.519 9        22.000         125.000
  20134572.835   -18329915.076 7 -14035942.858 9        22.000         148.000
  20755071.494   -16117341.772 6 -12259003.799 9        17.000          56.000
 90  6 16 21 21 15.1320000  0  4 12 11 09 13
  23330055.555     -312928.937 3                                         6.000
  21392230.244     1016639.818 7    792192.136 9        22.000         123.000
  20127566.854   -18366737.107 7 -14064635.331 9        23.000         151.000
  20746240.274   -16163755.882 6 -12295170.519 8        17.000          53.000
 90  6 16 21 21 30.2360000  0  4 12 11 09 13
  23320068.598     -365413.670 3                                         5.000
  21398835.974     1051357.482 7    819244.834 9        22.000         118.000
  20120573.714   -18403480.065 7 -14093266.186 9        23.000         151.000
  20737427.043   -16210061.820 6 -12331252.950 9        17.000          55.000
 90  6 16 21 21 45.0840000  0  4 12 11 09 13
  23310251.112     -417011.596 3                                         5.000
  21405347.244     1085567.589 7    845902.042 9        23.000         117.000
  20113716.599   -18439515.529 7 -14121345.749 9        22.000         148.000
  20728785.274   -16255470.071 6 -12366635.882 9        17.000          61.000
 90  6 16 21 22  0.1880000  0  4 12 11 09 13
  23300260.365     -469513.409 3                                         6.000
  21411981.331     1120437.610 7    873073.469 9        22.000         108.000
  20106754.841   -18476097.483 7 -14149851.131 9        23.000         157.000
  20720013.793   -16301557.704 6 -12402548.220 9        17.000          60.000
 90  6 16 21 22 15.0360000  0  4 12 11 09 13
  23290434.615     -521139.678 3                                         6.000
  21418517.220     1154784.624 7    899837.355 9        22.000         114.000
  20099926.308   -18511985.992 7 -14177816.195 9        23.000         155.000
  20711413.364   -16346762.923 6 -12437772.957 9        17.000          63.000
 90  6 16 21 22 30.1400000  0  4 12 11 09 13
  23280436.892     -573663.621 3                                         5.000
  21425181.646     1189799.498 7    927121.651 9        22.000         105.000
  20092994.224   -18548411.659 7 -14206199.815 9        22.000         154.000
  20702684.368   -16392637.508 6 -12473519.277 9        17.000          68.000
 90  6 16 21 22 45.2440000  0  3 12 11 13
  23270440.660     -626193.015 3                                         5.000
  21431859.310     1224892.396 7    954466.746 9        23.000         111.000
  20693975.117   -16438398.891 6 -12509177.388 9        17.000          60.000
 90  6 16 21 23  0.0920000  0  3 12 11 09
  23260616.554     -677838.875 3                                         5.000
  21438438.726     1259464.529 7    981406.054 9        23.000         119.000
  20079296.254   -18620396.204 7 -14262291.629 9        22.000         148.000
 90  6 16 21 23 15.1960000  0  4 12 11 09 13
  23250615.827     -730385.666 3                                         5.000
  21445144.063     1294703.908 7   1008865.290 9        23.000         115.000
  20072411.292   -18656575.270 7 -14290483.081 9        23.000         154.000
  20676768.859   -16528819.682 6 -12579634.936 9        17.000          67.000
 90  6 16 21 23 30.0440000  0  4 12 11 09 13
  23240783.130     -782053.482 3                                         5.000
  21451749.129     1329413.987 7   1035912.084 9        23.000         117.000
  20065657.044   -18692064.437 7 -14318136.960 9        22.000         153.000
  20668269.641   -16573487.322 6 -12614440.793 9        17.000          60.000
 90  6 16 21 23 45.1480000  0  4 12 11 09 13
  23230779.369     -834617.523 3                                         5.000
  21458482.803     1364797.470 7   1063483.612 9        23.000         115.000
  20058804.882   -18728081.199 7 -14346201.942 9        22.000         153.000
  20659642.315   -16618812.941 6 -12649759.349 9        17.000          64.000
 90  6 16 21 24  0.2520000  0  4 12 11 09 13
  23220777.202     -887178.564 3                                         5.000
  21465232.024     1400264.727 7   1091120.418 9        23.000         115.000
  20051968.034   -18764004.118 7 -14374193.802 9        22.000         149.000
  20651040.180   -16664016.674 6 -12684982.943 9        17.000          65.000
 90  6 16 21 24 15.1000000  0  4 12 11 09 13
  23210948.203     -938855.062 3                                         6.000
  21471879.493     1435202.696 7   1118344.789 9        23.000         109.000
  20045264.299   -18799235.852 7 -14401647.081 9        23.000         148.000
  20642606.320   -16708344.838 6 -12719524.276 9        17.000          66.000
 90  6 16 21 24 30.2040000  0  4 12 11 09 13
  23200942.655     -991431.966 3                                         6.000
  21478656.775     1470812.579 7   1146092.727 9        23.000         114.000
  20038459.118   -18834994.184 7 -14429510.697 9        22.000         150.000
  20634046.139   -16753328.922 6 -12754576.699 9        17.000          69.000
 90  6 16 21 24 45.0520000  0  4 12 11 09 13
  23191102.143    -1043128.872 3                                         6.000
  21485331.120     1505884.944 7   1173421.829 9        22.000         108.000
  20031784.813   -18870068.644 7 -14456841.418 9        22.000         155.000
  20625650.064   -16797445.993 6 -12788953.543 9        17.000          63.000
 90  6 16 21 25  0.1560000  0  4 12 11 09 13
  23181095.666    -1095721.301 3                                         6.000
  21492133.388     1541635.473 7   1201279.363 9        22.000         117.000
  20025011.748   -18905661.539 7 -14484576.124 9        23.000         156.000
  20617132.061   -16842210.256 6 -12823834.691 9        17.000          72.000
 90  6 16 21 25 15.0040000  0  4 12 11 09 13
  23171254.439    -1147425.283 3                                         5.000
  21498835.416     1576852.735 7   1228721.364 9        22.000         104.000
  20018371.889   -18940565.134 7 -14511773.709 9        23.000         153.000
  20608779.187   -16886103.157 6 -12858036.863 9        17.000          73.000
 90  6 16 21 25 30.1080000  0  4 12 11 09 13
  23161244.692    -1200027.095 3                                         6.000
  21505665.673     1612747.397 7   1256691.212 9        22.000         106.000
  20011629.358   -18975986.374 7 -14539374.649 9        23.000         154.000
  20600303.649   -16930641.666 6 -12892742.100 9        17.000          63.000
 90  6 16 21 25 45.2120000  0  4 12 11 09 13
  23151236.080    -1252636.781 3                                         6.000
  21512509.017     1648710.932 7   1284714.723 9        22.000         107.000
  20004904.427   -19011323.734 7 -14566910.233 9        22.000         155.000
  20591849.389   -16975069.244 6 -12927360.896 9        18.000          60.000
 90  6 16 21 26  0.0600000  0  4 12 11 09 13
  23141392.350    -1304359.527 3                                         6.000
  21519250.934     1684134.406 7   1312317.409 9        22.000         110.000
  19998311.129   -19045977.539 7 -14593913.172 9        22.000         159.000
  20583559.676   -17018632.882 6 -12961306.503 9        17.000          60.000
 90  6 16 21 26 15.1640000  0  4 12 11 09 13
  23131380.325    -1356980.011 3                                         6.000
  21526119.938     1720237.612 7   1340449.758 9        22.000         106.000
  19991619.704   -19081143.709 7 -14621315.359 9        23.000         155.000
  20575147.921   -17062836.039 6 -12995750.425 9        17.000          61.000
 90  6 16 21 26 30.0120000  0  4 12 11 09 13
  23121532.724    -1408718.002 3                                         6.000
  21532887.128     1755792.829 7   1368155.101 9        22.000         108.000
  19985054.825   -19115633.474 7 -14648190.471 9        23.000         157.000
  20566898.129   -17106183.695 6 -13029527.719 9        17.000          66.000
 90  6 16 21 26 45.1160000  0  4 12 11 09 13
  23111517.645    -1461353.338 3                                         6.000
  21539782.344     1792029.581 7   1396391.505 9        22.000         113.000
  19978395.874   -19150631.970 7 -14675462.011 9        23.000         160.000
  20558528.512   -17150166.274 6 -13063799.779 9        18.000          68.000
 90  6 16 21 27  0.2200000  0  4 12 11 09 13
  23101494.752    -1513994.070 3         0.14816         6.000          12.000
  21546690.941     1828334.741 7   1424681.225 9        22.000         105.000
  19971752.818   -19185543.695 7 -14702665.923 9        23.000         156.000
  20550181.114   -17194035.697 6 -13097983.651 9        18.000          73.000
 90  6 16 21 27 15.0680000  0  4 12 11 09 13
  23091653.392    -1565747.326 3    -40326.983 5         6.000           9.000
  21553495.385     1864091.238 7   1452543.410 9        21.000         109.000
  19965238.187   -19219778.494 7 -14729342.373 9        23.000         159.000
  20541994.237   -17237050.821 6 -13131501.835 9        18.000          62.000
 90  6 16 21 27 30.1720000  0  4 12 11 09 13
  23081632.643    -1618395.627 4    -81351.543 6         7.000          13.000
  21560429.776     1900533.532 7   1480939.976 9        21.000         100.000
  19958627.247   -19254514.555 7 -14756409.407 9        23.000         157.000
  20533690.723   -17280692.580 6 -13165508.311 9        18.000          68.000
 90  6 16 21 27 45.0200000  0  4 12 11 09 13
  23071781.579    -1670154.382 4   -121682.948 6         7.000          12.000
  21567259.850     1936425.590 7   1508907.793 9        21.000          98.000
  19952145.581   -19288574.428 7 -14782949.543 9        23.000         152.000
  20525548.353   -17323481.712 6 -13198850.403 9        18.000          72.000
 90  6 16 21 28  0.1240000  0  4 12 11 09 13
  23061762.884    -1722804.873 4   -162709.188 6         7.000          17.000
  21574220.738     1973007.995 7   1537413.548 9        21.000         107.000
  19945569.608   -19323129.105 7 -14809875.246 9        23.000         153.000
  20517289.112   -17366890.379 6 -13232675.249 9        18.000          71.000
 90  6 16 21 28 15.2280000  0  4 12 11 09 13
  23051745.343    -1775459.350 4   -203738.531 5         7.000           9.000
  21581194.804     2009657.543 7   1565971.618 9        20.000         100.000
  19939011.481   -19357594.997 7 -14836731.765 9        23.000         153.000
  20509049.617   -17410184.538 6 -13266410.855 9        18.000          77.000
 90  6 16 21 28 30.0760000  0  4 12 11 09 13
  23041892.328    -1827220.516 4   -244071.787 5         7.000          10.000
  21588063.484     2045755.388 7   1594099.786 9        20.000          95.000
  19932581.595   -19391385.385 7 -14863061.911 9        23.000         161.000
  20500972.103   -17452628.878 6 -13299484.280 9        18.000          75.000
 90  6 16 21 28 45.1800000  0  4 12 11 09 13
  23031873.153    -1879876.815 4   -285102.538 6         7.000          15.000
  21595063.712     2082542.049 7   1622764.693 9        20.000          94.000
  19926057.751   -19425668.937 7 -14889776.341 9        23.000         163.000
  20492775.134   -17495690.440 6 -13333038.651 9        17.000          73.000
 90  6 16 21 29  0.0280000  0  4 12 11 09 13
  23022022.763    -1931642.821 4   -325439.607 6         7.000          14.000
  21601958.908     2118770.465 7   1650994.606 9        20.000         101.000
  19919662.055   -19459282.963 7 -14915969.067 9        23.000         160.000
  20484744.733   -17537908.871 6 -13365936.037 9        18.000          79.000
 90  6 16 21 29 15.1320000  0  4 12 11 09 13
  23012002.168    -1984303.874 4   -366474.101 6         7.000          13.000
  21608984.367     2155689.099 7   1679762.347 9        21.000          94.000
  19913171.175   -19493386.767 7 -14942543.436 9        23.000         161.000
  20476592.588   -17580740.490 6 -13399311.237 9        18.000          75.000
 90  6 16 21 29 30.2360000  0  4 12 11 09 13
  23001982.880    -2036965.299 4   -407508.859 5         7.000           7.000
  21616022.749     2192675.530 7   1708582.922 9        20.000          94.000
  19906698.815   -19527397.609 7 -14969045.367 9        23.000         165.000
  20468462.416   -17623454.174 6 -13432594.534 9        18.000          74.000
 90  6 16 21 29 45.0840000  0  5 12 11 09 13 18
  22992126.913    -2088738.121 4   -447851.214 5         7.000           7.000
  21622952.594     2229096.969 7   1736963.239 9        20.000          95.000
  19900352.571   -19560745.060 7 -14995030.375 9        23.000         166.000
  20460495.340   -17665332.611 6 -13465226.989 9        18.000          78.000
  23641519.889                                           0.534 3         5.000
 90  6 16 21 30  0.1880000  0  5 12 11 09 13 18
  22982106.880    -2141402.389 5   -488888.183 6         8.000          13.000
  21630017.515     2266214.008 7   1765885.584 9        20.000          97.000
  19893915.923   -19594573.460 7 -15021390.148 9        23.000         163.000
  20452409.747   -17707814.513 6 -13498329.681 9        18.000          78.000
  23635519.612      -31531.947 3                                         5.000
 90  6 16 21 30 15.0360000  0  5 12 11 09 13 18
  22972253.333    -2193176.726 4   -529231.721 6         7.000          13.000
  21636972.755     2302763.997 7   1794366.075 9        21.000          94.000
  19887603.758   -19627739.946 7 -15047234.141 9        23.000         174.000
  20444486.095   -17749463.801 6 -13530783.575 9        18.000          81.000
  23629643.185      -62412.320 3                                         5.000
 90  6 16 21 30 30.1400000  0  5 12 11 09 13 18
  22962232.156    -2245846.585 4   -570273.072 6         7.000          17.000
  21644059.127     2340006.570 7   1823386.235 9        20.000          97.000
  19881201.484   -19661388.375 7 -15073453.665 9        23.000         172.000
  20436444.356   -17791716.785 6 -13563707.891 9        18.000          75.000
  23623685.730      -93706.552 3                                         5.000
 90  6 16 21 30 45.2440000  0  5 12 11 09 13 18
  22952210.774    -2298522.846 5   -611319.391 6         8.000          18.000
  21651157.890     2377307.830 7   1852452.122 9        21.000         102.000
  19874814.288   -19694949.365 7 -15099605.066 9        22.000         162.000
  20428424.324   -17833858.247 6 -13596545.307 9        18.000          80.000
  23617754.774     -124884.483 2                                         4.000
 90  6 16 21 31  0.0920000  0  5 12 11 09 13 18
  22942353.714    -2350302.661 5   -651667.191 6         8.000          17.000
  21658148.055     2414043.438 7   1881077.252 9        21.000          97.000
  19868554.444   -19727846.423 7 -15125239.125 9        22.000         166.000
  20420564.456   -17875166.795 6 -13628733.697 9        18.000          76.000
  23611937.604     -155409.386 3                                         5.000
 90  6 16 21 31 15.1960000  0  5 12 11 09 13 18
  22932330.524    -2402972.469 5   -692708.485 6         8.000          16.000
  21665272.632     2451478.665 7   1910247.534 9        21.000          92.000
  19862204.442   -19761214.924 7 -15151240.530 9        22.000         167.000
  20412591.271   -17917067.793 6 -13661383.738 9        18.000          79.000
  23606060.104     -186336.351 3                                         5.000
 90  6 16 21 31 30.0440000  0  5 12 11 09 13 18
  22922477.049    -2454752.182 5   -733056.235 6         8.000          17.000
  21672286.047     2488338.723 7   1938969.634 9        20.000         104.000
  19855981.066   -19793928.717 7 -15176731.777 9        23.000         165.000
  20404773.051   -17958146.435 6 -13693392.976 9        18.000          79.000
  23600292.069     -216623.028 3         0.35715         5.000           9.000
 90  6 16 21 31 45.1480000  0  5 12 11 09 13 18
  22912453.083    -2507424.473 4   -774099.480 6         7.000          18.000
  21679433.107     2525896.862 7   1968235.684 9        20.000         105.000
  19849664.355   -19827112.939 7 -15202589.599 9        22.000         168.000
  20396845.272   -17999816.238 6 -13725862.870 9        18.000          77.000
  23594455.144     -247311.428 3    -23912.616 6         5.000          16.000
 90  6 16 21 32  0.2520000  0  5 12 11 09 13 18
  22902432.141    -2560096.157 4   -815142.213 6         7.000          16.000
  21686591.791     2563518.095 7   1997550.898 9        21.000         106.000
  19843368.197   -19860202.147 7 -15228373.380 9        22.000         164.000
  20388938.670   -18041367.508 6 -13758240.389 9        19.000          73.000
  23588637.331     -277879.209 2    -47731.599 6         4.000          15.000
 90  6 16 21 32 15.1000000  0  5 12 11 09 13 18
  22892578.390    -2611878.586 5   -855492.049 6         8.000          21.000
  21693640.755     2600558.527 7   2026413.544 9        21.000         104.000
  19837194.243   -19892642.048 7 -15253651.208 9        23.000         163.000
  20381185.807   -18082103.040 6 -13789982.267 9        18.000          73.000
  23582939.781     -307817.175 3    -71059.818 6         5.000          12.000
 90  6 16 21 32 30.2040000  0  5 12 11 09 13 18
  22882554.986    -2664555.759 5   -896539.099 6         9.000          17.000
  21700820.718     2638296.255 7   2055819.537 9        20.000         100.000
  19830932.387   -19925549.539 7 -15279293.389 9        22.000         169.000
  20373322.005   -18123425.979 6 -13822181.871 9        19.000          70.000
  23577162.073     -338157.070 2    -94701.249 5         4.000           8.000
 90  6 16 21 32 45.0520000  0  5 12 11 09 13 18
  22872699.733    -2716337.875 5   -936888.707 6         9.000          15.000
  21707893.371     2675455.619 7   2084774.850 9        20.000         103.000
  19824795.994   -19957805.040 7 -15304427.524 9        23.000         163.000
  20365614.414   -18163931.677 6 -13853744.654 9        18.000          75.000
  23571511.196     -367866.048 2   -117851.071 5         4.000           9.000
 90  6 16 21 33  0.1560000  0  5 12 11 09 13 18
  22862677.013    -2769007.688 5   -977930.019 6         9.000          20.000
  21715098.370     2713320.236 7   2114279.726 9        21.000          94.000
  19818569.657   -19990517.634 7 -15329917.839 9        23.000         162.000
  20357796.008   -18205013.941 6 -13885756.722 9        19.000          79.000
  23565784.452     -397965.013 2   -141304.740 5         4.000          10.000
 90  6 16 21 33 15.0040000  0  5 12 11 09 13 18
  22852822.313    -2820783.167 5  -1018274.438 6         8.000          17.000
  21722193.435     2750602.695 7   2143330.965 9        21.000          99.000
  19812468.854   -20022581.831 7 -15354902.905 9        23.000         160.000
  20350131.086   -18245283.789 6 -13917135.736 9        18.000          77.000
  23560176.765     -427438.264 3   -164270.854 5         5.000           9.000
 90  6 16 21 33 30.1080000  0  5 12 11 09 13 18
  22842799.920    -2873454.039 5  -1059316.593 6         8.000          21.000
  21729420.673     2788583.734 7   2172926.552 9        20.000         104.000
  19806278.269   -20055107.585 7 -15380247.629 9        23.000         154.000
  20342359.874   -18286134.359 6 -13948967.258 9        19.000          74.000
  23554491.127     -457306.548 3   -187544.778 6         6.000          14.000
 90  6 16 21 33 45.2120000  0  5 12 11 09 13 18
  22832777.077    -2926122.594 5  -1100356.904 6         8.000          20.000
  21736659.567     2826625.337 7   2202569.320 9        20.000         103.000
  19800109.362   -20087535.975 7 -15405516.488 9        24.000         162.000
  20334607.581   -18326865.289 6 -13980705.562 9        19.000          76.000
  23548830.209     -487055.119 3   -210725.437 5         5.000          11.000
 90  6 16 21 34  0.0600000  0  5 12 11 09 13 18
  22822925.727    -2977894.797 5  -1140698.794 6         8.000          23.000
  21743787.473     2864082.109 7   2231756.389 9        20.000          96.000
  19794060.932   -20119318.440 7 -15430282.024 9        24.000         156.000
  20327011.520   -18366787.515 6 -14011813.700 9        19.000          79.000
  23543287.511     -516181.768 3   -233421.459 6         6.000          12.000
 90  6 16 21 34 15.1640000  0  5 12 11 09 13 18
  22812905.163    -3030554.358 5  -1181732.108 6         8.000          22.000
  21751050.250     2902246.491 7   2261494.832 9        20.000          93.000
  19787926.531   -20151549.357 7 -15455397.007 9        24.000         163.000
  20319308.617   -18407276.542 7 -14043363.490 9        20.000          73.000
  23537673.839     -545689.416 3   -256414.397 6         5.000          12.000
 90  6 16 21 34 30.0120000  0  5 12 11 09 13 18
  22803055.968    -3082314.805 5  -1222064.799 6         8.000          17.000
  21758201.916     2939825.523 7   2290777.171 9        20.000         102.000
  19781916.414   -20183134.677 7 -15480008.925 9        24.000         159.000
  20311756.185   -18446958.637 6 -14074284.511 9        19.000          80.000
  23532176.599     -574575.259 3   -278922.809 6         5.000          14.000
 90  6 16 21 34 45.1160000  0  5 12 11 09 13 18
  22793034.300    -3134964.810 5  -1263090.694 6         8.000          17.000
  21765486.859     2978110.790 7   2320609.813 9        20.000         103.000
  19775821.198   -20215167.241 7 -15504969.343 9        24.000         158.000
  20304095.471   -18487206.037 6 -14105646.043 9        19.000          84.000
  23526605.217     -603838.636 3   -301725.354 6         5.000          17.000
 90  6 16 21 35  0.2200000  0  5 12 11 09 13 18
  22783017.893    -3187612.108 5  -1304114.451 6         8.000          24.000
  21772782.498     3016454.021 7   2350487.630 9        20.000          95.000
  19769743.582   -20247101.778 7 -15529853.385 9        24.000         159.000
  20296461.910   -18527333.697 7 -14136914.272 9        20.000          79.000
  23521059.383     -632980.676 3   -324433.399 6         5.000          16.000
 90  6 16 21 35 15.0680000  0  5 12 11 09 13 18
  22773172.907    -3239364.775 5  -1344441.111 6         8.000          22.000
  21779966.056     3054202.967 7   2379902.359 9        20.000          91.000
  19763787.895   -20278399.811 7 -15554241.445 9        24.000         156.000
  20288978.920   -18566664.873 7 -14167561.863 9        20.000          83.000
  23515630.330     -661511.348 3   -346665.013 6         5.000          15.000
 90  6 16 21 35 30.1720000  0  5 12 11 09 13 18
  22763152.986    -3292004.683 5  -1385459.108 6         9.000          25.000
  21787284.668     3092661.536 6   2409870.044 9        19.000          94.000
  19757749.372   -20310137.653 7 -15578972.217 9        24.000         161.000
  20281383.063   -18606553.286 7 -14198643.661 9        20.000          87.000
  23510130.076     -690412.561 3   -369185.390 5         5.000          11.000
 90  6 16 21 35 45.0200000  0  5 12 11 09 13 18
  22753305.231    -3343746.528 5  -1425777.343 6         8.000          20.000
  21794490.046     3130526.318 6   2439375.041 9        19.000          94.000
  19751831.543   -20341238.531 7 -15603206.649 9        24.000         162.000
  20273946.818   -18645645.903 7 -14229105.361 9        20.000          85.000
  23504752.170     -718703.534 3   -391230.230 5         5.000           5.000
 90  6 16 21 36  0.1240000  0  5 12 11 09 13 18
  22743290.326    -3396375.034 5  -1466786.472 6         8.000          23.000
  21801831.274     3169101.995 7   2469433.973 9        20.000          91.000
  19745828.048   -20372775.219 7 -15627780.676 9        24.000         168.000
  20266402.976   -18685291.345 7 -14259997.846 9        20.000          93.000
  23499295.444     -747359.451 3   -413559.482 5         5.000           5.000
 90  6 16 21 36 15.2280000  0  5 12 11 09 13 18
  22733278.168    -3449000.435 5  -1507793.177 7         8.000          27.000
  21809181.492     3207733.099 7   2499536.111 9        20.000          86.000
  19739845.740   -20404213.003 7 -15652277.631 9        24.000         164.000
  20258881.660   -18724817.163 7 -14290797.112 9        20.000          87.000
  23493869.026     -775893.481 3   -435793.760 6         5.000          12.000
 90  6 16 21 36 30.0760000  0  5 12 11 09 13 18
  22723432.232    -3500730.627 5  -1548102.309 7         8.000          29.000
  21816419.262     3245763.059 7   2529169.819 9        20.000          93.000
  19733984.686   -20435021.319 7 -15676284.097 9        24.000         171.000
  20251508.023   -18763556.329 7 -14320983.412 9        20.000          89.000
  23488548.958     -803824.169 3   -457557.848 6         5.000          18.000
 90  6 16 21 36 45.1800000  0  5 12 11 09 13 18
  22713420.167    -3553346.063 5  -1589101.252 6         8.000          20.000
  21823792.055     3284506.186 7   2559359.234 9        20.000          87.000
  19728040.021   -20466259.050 7 -15700625.167 9        24.000         168.000
  20244033.870   -18802841.309 7 -14351595.016 9        20.000          89.000
  23483166.149     -832110.832 3   -479599.346 5         5.000           6.000
 90  6 16 21 37  0.0280000  0  5 12 11 09 13 18
  22703579.747    -3605065.922 5  -1629402.350 7         8.000          28.000
  21831049.448     3322645.706 7   2589078.311 9        20.000          91.000
  19722215.385   -20496869.971 7 -15724477.810 9        24.000         169.000
  20236705.549   -18841343.299 7 -14381596.493 9        20.000          92.000
  23477898.720     -859798.077 3   -501173.777 5         5.000           7.000
 90  6 16 21 37 15.1320000  0  5 12 11 09 13 18
  22693565.965    -3657673.625 5  -1670395.267 7         8.000          26.000
  21838441.915     3361496.232 7   2619351.418 9        20.000          82.000
  19716307.321   -20527909.566 7 -15748664.494 9        24.000         172.000
  20229276.884   -18880390.093 7 -14412022.498 9        20.000          94.000
  23472566.384     -887841.444 3   -523025.705 5         6.000           7.000
 90  6 16 21 37 30.2360000  0  5 12 11 09 13 18
  22683556.944    -3710275.339 5  -1711383.516 6         8.000          18.000
  21845845.149     3400402.147 7   2649667.687 9        20.000          83.000
  19710419.891   -20558847.361 7 -15772771.841 9        24.000         173.000
  20221869.518   -18919314.911 7 -14442353.446 9        20.000          92.000
  23467250.392     -915760.391 3   -544780.666 6         6.000          14.000
 90  6 16 21 37 45.0840000  0  5 12 11 09 13 18
  22673720.406    -3761977.157 5  -1751670.556 7         8.000          26.000
  21853134.740     3438704.478 7   2679513.620 9        20.000          86.000
  19704652.368   -20589158.501 7 -15796390.895 9        24.000         168.000
  20214611.058   -18957458.397 7 -14472075.567 9        20.000          91.000
  23462054.765     -943082.262 3   -566070.399 6         6.000          16.000
 90  6 16 21 38  0.1880000  0  5 12 11 09 13 18
  22663712.774    -3814571.243 5  -1792652.865 6         8.000          25.000
  21860558.006     3477714.158 6   2709910.744 9        19.000          83.000
  19698802.439   -20619897.733 7 -15820343.525 9        24.000         165.000
  20207247.341   -18996145.259 7 -14502221.105 9        20.000          94.000
  23456783.526     -970757.727 3   -587635.605 5         5.000          10.000
 90  6 16 21 38 15.0360000  0  5 12 11 09 13 18
  22653873.641    -3866273.797 5  -1832940.468 6         8.000          22.000
  21867864.330     3516109.192 6   2739828.923 9        19.000          81.000
  19693071.537   -20650021.734 7 -15843816.752 9        24.000         170.000
  20200032.613   -19034063.567 7 -14531767.761 9        20.000          88.000
  23451631.059     -997848.067 3   -608744.921 5         6.000           9.000
 90  6 16 21 38 30.1400000  0  5 12 11 09 13 18
  22643862.914    -3918862.318 5  -1873918.442 6         8.000          24.000
  21875304.941     3555218.392 6   2770303.589 9        19.000          84.000
  19687259.209   -20680564.167 7 -15867616.034 9        24.000         170.000
  20192714.661   -19072515.434 7 -14561730.186 9        20.000          90.000
  23446405.594    -1025282.966 3   -630122.715 6         5.000          12.000
 90  6 16 21 38 45.2440000  0  5 12 11 09 13 18
  22633859.276    -3971443.367 5  -1914890.588 6         8.000          22.000
  21882759.812     3594381.536 7   2800820.293 9        20.000          89.000
  19681466.914   -20711002.586 7 -15891334.269 9        24.000         169.000
  20185421.347   -19110844.433 6 -14591596.862 9        19.000          94.000
  23441212.971    -1052593.758 3   -651403.771 6         6.000          19.000
 90  6 16 21 39  0.0920000  0  5 12 11 09 13 18
  22624024.781    -4023124.379 5  -1955161.413 7         8.000          29.000
  21890095.733     3632934.278 7   2830861.367 9        20.000          80.000
  19675792.808   -20740822.078 7 -15914570.219 9        24.000         165.000
  20178273.549   -19148402.483 6 -14620862.796 9        19.000          89.000
  23436127.454    -1079319.395 3   -672228.909 5         6.000          11.000
 90  6 16 21 39 15.1960000  0  5 12 11 09 13 18
  22614022.522    -4075683.606 5  -1996116.563 7         8.000          29.000
  21897569.105     3672209.437 6   2861465.346 9        19.000          77.000
  19670040.291   -20771047.038 7 -15938122.115 9        24.000         166.000
  20171028.308   -19186480.645 7 -14650534.014 9        20.000          91.000
  23430978.185    -1106378.070 3   -693313.554 5         6.000          10.000
 90  6 16 21 39 30.0440000  0  5 12 11 09 13 18
  22604195.024    -4127337.349 5  -2036366.144 7         9.000          35.000
  21904927.903     3710877.115 6   2891595.980 9        19.000          78.000
  19664406.586   -20800650.675 7 -15961189.873 9        23.000         162.000
  20163929.001   -19223786.425 7 -14679603.379 9        20.000          89.000
  23425939.494    -1132849.552 3   -713940.613 6         6.000          19.000
 90  6 16 21 39 45.1480000  0  5 12 11 09 13 18
  22594194.236    -4179874.035 5  -2077303.724 7         8.000          30.000
  21912422.145     3750262.998 6   2922286.241 9        19.000          81.000
  19658696.820   -20830661.192 7 -15984574.671 9        24.000         170.000
  20156731.598   -19261613.521 7 -14709078.957 9        20.000          84.000
  23420838.726    -1159654.235 4   -734827.325 5         7.000          10.000
 90  6 16 21 40  0.2520000  0  5 12 11 09 13 18
  22584197.810    -4232406.859 5  -2118238.294 7         8.000          30.000
  21919926.632     3789696.217 6   2953013.385 9        19.000          80.000
  19653005.277   -20860570.963 7 -16007880.970 9        24.000         156.000
  20149553.849   -19299321.678 6 -14738461.863 9        19.000          90.000
  23415761.463    -1186338.601 4   -755620.270 6         7.000          14.000
 90  6 16 21 40 15.1000000  0  5 12 11 09 13 18
  22574370.006    -4284051.056 5  -2158480.435 6         8.000          25.000
  21927311.438     3828501.024 6   2983250.865 9        19.000          77.000
  19647426.305   -20889881.057 7 -16030719.995 9        23.000         163.000
  20142522.259   -19336280.536 6 -14767260.903 9        19.000          87.000
  23410790.632    -1212458.863 4   -775973.704 6         7.000          13.000
 90  6 16 21 40 30.2040000  0  5 12 11 09 13 18
  22564371.659    -4336573.614 5  -2199407.007 6         8.000          25.000
  21934831.738     3868028.800 6   3014051.695 9        19.000          82.000
  19641772.446   -20919588.234 7 -16053868.428 9        23.000         161.000
  20135391.612   -19373750.888 6 -14796458.508 9        19.000          82.000
  23405756.651    -1238902.799 3   -796579.309 6         6.000          15.000
 90  6 16 21 40 45.0520000  0  5 12 11 09 13 18
  22554550.189    -4388199.028 5  -2239634.511 7         8.000          34.000
  21942237.261     3906934.039 6   3044367.435 9        19.000          84.000
  19636235.255   -20948690.555 7 -16076545.538 9        22.000         159.000
  20128406.419   -19410467.543 7 -14825068.819 9        20.000          90.000
  23400837.795    -1264778.676 3   -816742.264 6         6.000          12.000
 90  6 16 21 41  0.1560000  0  5 12 11 09 13 18
  22544559.381    -4440706.235 5  -2280549.114 7         8.000          31.000
  21949776.203     3946559.092 6   3075244.069 9        18.000          83.000
  19630621.542   -20978190.039 7 -16099532.128 9        23.000         154.000
  20121321.067   -19447695.279 7 -14854077.366 9        20.000          89.000
  23395852.990    -1290977.229 4   -837156.676 6         7.000          13.000
 90  6 16 21 41 15.0040000  0  5 12 11 09 13 18
  22534739.749    -4492302.008 5  -2320753.521 7         8.000          28.000
  21957200.032     3985573.460 6   3105644.839 9        18.000          74.000
  19625125.425   -21007073.241 7 -16122038.506 9        23.000         157.000
  20114380.678   -19484159.098 7 -14882490.665 9        20.000          95.000
  23390974.310    -1316596.021 3   -857119.367 6         6.000          18.000
 90  6 16 21 41 30.1080000  0  5 12 11 09 13 18
  22524756.307    -4544774.383 5  -2361640.986 7         8.000          27.000
  21964762.775     4025313.155 6   3136610.802 9        18.000          77.000
  19619555.770   -21036345.063 7 -16144847.706 9        23.000         161.000
  20107347.566   -19521125.066 7 -14911295.243 9        21.000          89.000
  23386041.183    -1342527.199 3   -877325.401 6         6.000          13.000
 90  6 16 21 41 45.2120000  0  5 12 11 09 13 18
  22514771.281    -4597234.570 5  -2402518.958 7         8.000          30.000
  21972335.795     4065104.422 6   3167616.952 9        18.000          76.000
  19614006.688   -21065507.398 7 -16167571.586 9        23.000         156.000
  20100336.365   -19557964.543 7 -14940001.256 9        20.000          91.000
  23381131.110    -1368328.883 3   -897430.577 6         6.000          19.000
 90  6 16 21 42  0.0600000  0  5 12 11 09 13 18
  22504960.424    -4648793.741 5  -2442694.857 7         8.000          32.000
  21979789.319     4104270.828 6   3198136.197 9        18.000          77.000
  19608570.811   -21094068.569 7 -16189827.035 9        23.000         157.000
  20093467.003   -19594056.438 7 -14968124.740 9        20.000          97.000
  23376325.610    -1393567.402 3   -917096.898 6         6.000          13.000
 90  6 16 21 42 15.1640000  0  5 12 11 09 13 18
  22494979.188    -4701232.494 5  -2483556.131 7         8.000          26.000
  21987378.949     4144159.674 6   3229218.381 9        18.000          78.000
  19603063.193   -21123016.312 7 -16212383.694 9        23.000         154.000
  20086504.457   -19630648.456 7 -14996637.934 9        20.000          94.000
  23371466.766    -1419114.208 3   -937003.442 6         6.000          12.000
 90  6 16 21 42 30.0120000  0  5 12 11 09 13 18
  22485174.746    -4752769.533 5  -2523714.755 7         9.000          26.000
  21994850.900     4183421.940 6   3259812.318 9        18.000          84.000
  19597668.329   -21151365.547 7 -16234473.992 9        23.000         160.000
  20079683.411   -19666496.472 7 -15024571.384 9        20.000          92.000
  23366710.667    -1444099.704 3   -956472.636 5         6.000           9.000
 90  6 16 21 42 45.1160000  0  5 12 11 09 13 18
  22475201.106    -4805183.115 5  -2564556.430 6         9.000          20.000
  22002460.511     4223409.617 6   3290971.511 9        18.000          83.000
  19592201.040   -21180094.806 7 -16256860.405 9        23.000         152.000
  20072766.649   -19702837.912 7 -15052889.322 9        20.000          99.000
  23361897.516    -1469386.930 3   -976176.918 6         6.000          13.000
 90  6 16 21 43  0.2200000  0  5 12 11 09 13 18
  22465228.900    -4857582.361 5  -2605386.914 6         9.000          22.000
  22010079.008     4263447.989 6   3322170.200 9        18.000          77.000
  19586755.633   -21208712.153 7 -16279159.624 9        23.000         161.000
  20065875.731   -19739051.613 7 -15081107.714 9        20.000         103.000
  23357109.668    -1494541.520 3   -995777.871 6         6.000          13.000
 90  6 16 21 43 15.0680000  0  5 12 11 09 13 18
  22455430.832    -4909080.950 5  -2645515.611 7         9.000          28.000
  22017578.193     4302855.053 6   3352876.976 9        18.000          78.000
  19581420.732   -21236736.712 7 -16300996.927 9        23.000         151.000
  20059125.997   -19774528.686 7 -15108752.116 9        20.000         103.000
  23352431.756    -1519143.113 3  -1014947.885 5         6.000          10.000
 90  6 16 21 43 30.1720000  0  5 12 11 09 13 18
  22445463.663    -4961455.351 5  -2686326.732 6         9.000          24.000
  22025215.977     4342988.536 6   3384149.785 9        18.000          82.000
  19576017.156   -21265135.492 7 -16323125.829 9        23.000         154.000
  20052284.898   -19810493.054 7 -15136776.232 9        21.000         101.000
  23347695.025    -1544041.492 4  -1034349.158 6         7.000          14.000
 90  6 16 21 43 45.0200000  0  5 12 11 09 13 18
  22435667.413    -5012928.823 5  -2726435.854 6         9.000          24.000
  22032732.303     4382488.597 6   3414929.022 9        18.000          73.000
  19570725.476   -21292944.506 7 -16344795.177 9        23.000         154.000
  20045576.617   -19845724.482 7 -15164229.220 9        20.000         100.000
  23343057.963    -1568392.788 3  -1053324.171 5         6.000           8.000
 90  6 16 21 44  0.1240000  0  5 12 11 09 13 18
  22425705.514    -5065278.372 5  -2767227.621 6         9.000          24.000
  22040386.125     4422714.642 6   3446273.958 9        17.000          73.000
  19565363.986   -21321124.637 7 -16366753.706 9        23.000         155.000
  20038781.477   -19881440.036 7 -15192059.456 9        21.000         109.000
  23338366.802    -1593040.186 4  -1072529.907 6         7.000          16.000
 90  6 16 21 44 15.2280000  0  5 12 11 09 13 18
  22415747.589    -5117616.129 5  -2808010.216 7         9.000          27.000
  22048050.172     4462985.579 6   3477653.874 9        17.000          77.000
  19560021.966   -21349195.418 7 -16388627.024 9        23.000         152.000
  20032008.708   -19917031.301 7 -15219792.835 9        21.000         106.000
  23333701.863    -1617563.780 4  -1091639.163 6         7.000          15.000
 90  6 16 21 44 30.0760000  0  5 12 11 09 13 18
  22405955.763    -5169054.515 5  -2848092.003 7        10.000          28.000
  22055590.850     4502618.087 6   3508536.307 9        18.000          73.000
  19554792.650   -21376682.672 7 -16410045.651 9        23.000         142.000
  20025372.414   -19951897.456 7 -15246961.193 9        21.000          99.000
  23329135.736    -1641551.425 4  -1110330.797 6         7.000          16.000
 90  6 16 21 44 45.1800000  0  5 12 11 09 13 18
  22396002.159    -5221366.394 5  -2888854.408 6         9.000          24.000
  22063272.038     4542979.154 6   3539986.456 9        18.000          72.000
  19549492.461   -21404533.274 7 -16431747.396 9        23.000         151.000
  20018647.513   -19987239.839 7 -15274500.648 9        20.000         105.000
  23324518.471    -1665830.438 4  -1129249.447 6         7.000          14.000
 90  6 16 21 45  0.0280000  0  5 12 11 09 13 18
  22386219.455    -5272777.635 5  -2928915.037 7         9.000          29.000
  22070830.328     4582700.790 6   3570938.354 9        18.000          74.000
  19544301.871   -21431802.371 7 -16452996.036 9        23.000         146.000
  20012059.098   -20021859.966 7 -15301477.306 9        20.000         102.000
  23319995.922    -1689577.415 3  -1147753.534 5         6.000          11.000
 90  6 16 21 45 15.1320000  0  5 12 11 09 13 18
  22376269.835    -5325062.276 5  -2969656.242 7        10.000          32.000
  22078528.186     4623151.029 6   3602457.993 9        18.000          73.000
  19539044.034   -21459431.364 7 -16474525.102 9        23.000         146.000
  20005383.342   -20056952.612 7 -15328822.150 9        21.000         106.000
  23315427.261    -1713612.458 3  -1166482.092 5         6.000           7.000
 90  6 16 21 45 30.2360000  0  5 12 11 09 13 18
  22366324.383    -5377330.956 5  -3010385.002 7        10.000          31.000
  22086234.432     4663647.563 6   3634013.701 9        17.000          68.000
  19533809.570   -21486946.244 7 -16495965.255 9        23.000         144.000
  19998727.629   -20091917.274 7 -15356067.275 9        20.000          99.000
  23310871.809    -1737521.853 3  -1185112.742 6         6.000          17.000
 90  6 16 21 45 45.0840000  0  5 12 11 09 13 18
  22356549.422    -5428700.847 5  -3050413.410 7        10.000          39.000
  22093817.085     4703499.545 6   3665067.165 9        17.000          69.000
  19528683.213   -21513886.238 7 -16516957.447 9        23.000         143.000
  19992208.973   -20126167.296 7 -15382755.539 9        21.000          93.000
  23306424.024    -1760905.096 3  -1203333.435 6         6.000          15.000
 90  6 16 21 46  0.1880000  0  5 12 11 09 13 18
  22346609.036    -5480941.088 5  -3091120.011 7        10.000          26.000
  22101539.776     4744082.854 6   3696690.490 9        18.000          64.000
  19523488.751   -21541178.046 7 -16538223.779 9        23.000         144.000
  19985604.510   -20160882.000 7 -15409805.887 9        21.000          94.000
  23301924.735    -1784565.762 3  -1221770.253 5         6.000           7.000
 90  6 16 21 46 15.0360000  0  5 12 11 09 13 18
  22336836.363    -5532282.983 5  -3131126.620 7        10.000          31.000
  22109140.959     4784018.911 6   3727809.469 9        18.000          77.000
  19518402.765   -21567898.696 7 -16559045.049 9        23.000         144.000
  19979132.639   -20194886.651 7 -15436302.950 9        20.000          94.000
  23297517.320    -1807701.940 4  -1239798.401 6         7.000          14.000
 90  6 16 21 46 30.1400000  0  5 12 11 09 13 18
  22326903.302    -5584489.257 5  -3171806.765 7        10.000          26.000
  22116880.536     4824691.915 6   3759502.691 9        17.000          73.000
  19513252.637   -21594961.989 7 -16580133.320 9        23.000         145.000
  19972576.596   -20229346.596 7 -15463154.792 9        21.000          93.000
  23293062.569    -1831101.205 3  -1258031.550 5         6.000          11.000
 90  6 16 21 46 45.2440000  0  5 12 11 09 13 18
  22316971.171    -5636675.159 5  -3212471.045 7        10.000          30.000
  22124628.858     4865412.369 6   3791232.885 9        17.000          71.000
  19508126.495   -21621906.799 7 -16601129.260 9        23.000         150.000
  19966043.015   -20263675.243 7 -15489904.314 9        20.000          96.000
  23288636.431    -1854362.700 3  -1276157.379 5         6.000          11.000
 90  6 16 21 47  0.0920000  0  5 12 11 09 13 18
  22307213.187    -5687962.132 5  -3252434.848 7        10.000          31.000
  22132254.843     4905483.087 6   3822456.785 9        17.000          72.000
  19503106.917   -21648284.574 7 -16621683.361 9        23.000         145.000
  19959643.479   -20297299.403 7 -15516104.900 9        20.000          93.000
  23284307.592    -1877100.196 3  -1293874.843 6         6.000          14.000
 90  6 16 21 47 15.1960000  0  5 12 11 09 13 18
  22297289.749    -5740118.106 5  -3293075.774 7        11.000          28.000
  22140018.947     4946285.802 6   3854251.073 9        17.000          69.000
  19498021.492   -21675004.519 7 -16642504.078 9        23.000         150.000
  19953159.953   -20331378.247 7 -15542659.777 9        21.000          88.000
  23279937.003    -1900096.921 4  -1311794.347 6         7.000          16.000
 90  6 16 21 47 30.0440000  0  5 12 11 09 13 18
  22287536.812    -5791373.436 5  -3333014.926 6        11.000          22.000
  22147659.120     4986438.373 6   3885538.762 9        17.000          66.000
  19493044.655   -21701159.048 7 -16662884.223 9        23.000         145.000
  19946808.612   -20364755.218 7 -15568667.744 9        21.000          93.000
  23275659.986    -1922571.848 3  -1329307.236 5         6.000          10.000
 90  6 16 21 47 45.1480000  0  5 12 11 09 13 18
  22277618.277    -5843495.951 5  -3373629.791 7        11.000          26.000
  22155439.272     5027324.284 6   3917397.875 9        17.000          68.000
  19488005.586   -21727650.591 7 -16683526.973 9        23.000         154.000
  19940370.084   -20398581.582 7 -15595025.883 9        21.000          89.000
  23271335.406    -1945299.672 4  -1347017.208 6         7.000          17.000
 90  6 16 21 48  0.2520000  0  5 12 11 09 13 18
  22267703.317    -5895602.291 5  -3414232.055 6        11.000          20.000
  22163228.903     5068250.525 6   3949288.427 9        17.000          68.000
  19482985.656   -21754027.487 7 -16704080.381 9        23.000         150.000
  19933956.655   -20432281.605 7 -15621285.579 9        21.000          94.000
  23267033.648    -1967893.335 4  -1364622.619 6         7.000          14.000
 90  6 16 21 48 15.1000000  0  5 12 11 09 13 18
  22257956.540    -5946806.612 5  -3454131.439 7        11.000          36.000
  22170893.450     5108524.916 6   3980671.042 9        17.000          65.000
  19478071.559   -21779842.648 7 -16724196.079 9        24.000         151.000
  19927676.901   -20465284.653 7 -15647002.181 9        20.000          89.000
  23262832.621    -1989971.257 4  -1381826.148 6         7.000          15.000
 90  6 16 21 48 30.2040000  0  5 12 11 09 13 18
  22248050.212    -5998875.608 5  -3494704.598 6        11.000          23.000
  22178696.300     5149534.707 6   4012626.691 9        17.000          60.000
  19473097.550   -21805987.162 7 -16744568.423 9        24.000         154.000
  19921314.109   -20498729.672 7 -15673063.177 9        21.000          87.000
  23258587.812    -2012297.034 4  -1399222.848 6         7.000          14.000
 90  6 16 21 48 45.0520000  0  5 12 11 09 13 18
  22238312.209    -6050045.110 5  -3534576.859 7        11.000          26.000
  22186374.358     5189888.254 6   4044070.986 9        17.000          65.000
  19468229.033   -21831575.423 7 -16764507.312 9        24.000         152.000
  19915077.893   -20531484.030 7 -15698585.990 9        21.000          95.000
  23254429.291    -2034118.016 3  -1416226.185 6         6.000          12.000
 90  6 16 21 49  0.1560000  0  5 12 11 09 13 18
  22228410.550    -6102074.794 5  -3575119.383 7        11.000          28.000
  22194195.330     5230981.288 6   4076091.492 9        17.000          72.000
  19463296.916   -21857485.116 7 -16784696.678 9        24.000         148.000
  19908765.134   -20564672.443 7 -15724447.035 9        22.000          98.000
  23250238.663    -2056183.963 4  -1433420.374 6         7.000          12.000
 90  6 16 21 49 15.0040000  0  5 12 11 09 13 18
  22218681.169    -6153204.323 5  -3614960.498 6        11.000          23.000
  22201890.594     5271416.887 6   4107599.722 9        16.000          71.000
  19458472.314   -21882841.254 7 -16804454.701 9        24.000         147.000
  19902580.362   -20597173.642 7 -15749772.578 9        22.000          89.000
  23246127.009    -2077752.237 4  -1450226.823 6         7.000          12.000
 90  6 16 21 49 30.1080000  0  5 12 11 09 13 18
  22208786.588    -6205196.899 6  -3655474.119 6        12.000          25.000
  22209724.243     5312588.522 6   4139681.469 9        16.000          72.000
  19453586.697   -21908518.522 7 -16824462.952 9        24.000         150.000
  19896311.447   -20630108.394 7 -15775435.962 9        22.000          94.000
  23241982.708    -2099568.260 5  -1467226.272 6         8.000          19.000
 90  6 16 21 49 45.2120000  0  5 12 11 09 13 18
  22198898.014    -6257171.692 6  -3695973.891 7        12.000          31.000
  22217565.369     5353797.913 6   4171792.642 9        16.000          73.000
  19448721.888   -21934079.339 7 -16844380.466 9        24.000         147.000
  19890070.042   -20662916.486 7 -15801000.647 9        22.000          94.000
  23237849.071    -2121259.728 5  -1484128.684 6         8.000          16.000
 90  6 16 21 50  0.0600000  0  5 12 11 09 13 18
  22189175.243    -6308250.045 5  -3735775.131 7        11.000          33.000
  22225281.054     5394343.271 6   4203386.391 9        15.000          69.000
  19443960.896   -21959095.264 7 -16863873.384 9        23.000         148.000
  19883956.479   -20695046.985 7 -15826037.334 9        22.000          94.000
  23233817.902    -2142464.658 5  -1500651.991 6         8.000          20.000
 90  6 16 21 50 15.1640000  0  5 12 11 09 13 18
  22179292.829    -6360188.370 5  -3776246.481 6        11.000          24.000
  22233136.563     5435626.890 6   4235555.413 9        15.000          70.000
  19439143.557   -21984424.176 7 -16883610.183 9        24.000         139.000
  19877756.834   -20727603.255 7 -15851405.799 9        22.000          91.000
  23229734.473    -2163910.243 5  -1517362.793 6         8.000          18.000
 90  6 16 21 50 30.0120000  0  5 12 11 09 13 18
  22169580.559    -6411222.848 6  -3816013.527 6        12.000          25.000
  22240868.356     5476252.013 6   4267211.312 9        16.000          68.000
  19434424.427   -22009203.970 7 -16902919.108 9        23.000         144.000
  19871694.266   -20759478.657 7 -15876243.717 9        21.000          94.000
  23225749.109    -2184864.856 5  -1533691.019 6         8.000          19.000
 90  6 16 21 50 45.1160000  0  5 12 11 09 13 18
  22159707.440    -6463116.625 6  -3856450.181 7        12.000          30.000
  22248740.751     5517615.512 6   4299442.576 9        16.000          71.000
  19429651.555   -22034292.721 7 -16922468.770 9        23.000         153.000
  19865548.924   -20791776.059 7 -15901410.463 9        22.000          94.000
  23221712.301    -2206053.381 5  -1550201.548 6         8.000          13.000
 90  6 16 21 51  0.2200000  0  5 12 11 09 13 18
  22149835.312    -6514987.414 5  -3896868.895 7        11.000          33.000
  22256617.865     5559019.005 6   4331704.999 9        16.000          71.000
  19424902.024   -22059259.719 7 -16941923.567 9        23.000         147.000
  19859426.781   -20823942.488 7 -15926475.154 9        22.000          94.000
  23217708.806    -2227108.949 4  -1566608.467 6         7.000          19.000
 90  6 16 21 51 15.0680000  0  5 12 11 09 13 18
  22140137.323    -6565954.596 6  -3936583.511 8        12.000          40.000
  22264372.152     5599761.129 6   4363452.073 9        16.000          64.000
  19420253.011   -22083683.003 7 -16960954.691 9        23.000         151.000
  19853435.342   -20855434.122 7 -15951014.032 9        22.000          98.000
  23213795.142    -2247674.644 5  -1582633.655 6         8.000          14.000
 90  6 16 21 51 30.1720000  0  5 12 11 09 13 18
  22130275.553    -6617776.580 6  -3976964.202 7        12.000          29.000
  22272266.274     5641245.307 6   4395777.371 9        16.000          70.000
  19415548.611   -22108405.577 7 -16980219.018 9        23.000         155.000
  19847363.151   -20887338.271 7 -15975874.346 9        22.000         103.000
  23209837.615    -2268460.164 4  -1598830.124 6         7.000          14.000
 90  6 16 21 51 45.0200000  0  5 12 11 09 13 18
  22120584.980    -6668698.529 6  -4016643.589 7        12.000          30.000
  22280032.227     5682062.853 6   4427583.224 9        15.000          71.000
  19410946.761   -22132591.147 7 -16999064.898 9        24.000         151.000
  19841419.171   -20918575.605 7 -16000215.069 9        22.000          98.000
  23205976.049    -2288761.220 5  -1614649.101 5         8.000          10.000
 90  6 16 21 52  0.1240000  0  5 12 11 09 13 18
  22110729.707    -6720475.366 5  -4056989.104 7        11.000          35.000
  22287940.364     5723621.568 6   4459966.595 9        16.000          61.000
  19406286.062   -22157072.760 7 -17018141.483 9        23.000         150.000
  19835397.535   -20950222.498 7 -16024874.926 9        22.000         105.000
  23202072.948    -2309276.305 4  -1630634.856 6         7.000          22.000
 90  6 16 21 52 15.2280000  0  5 12 11 09 13 18
  22100882.648    -6772230.271 6  -4097317.527 7        12.000          35.000
  22295856.551     5765216.005 6   4492377.820 9        15.000          62.000
  19401653.424   -22181433.824 7 -17037124.115 9        24.000         153.000
  19829396.729   -20981740.656 7 -16049434.478 9        22.000          93.000
  23198197.642    -2329657.006 4  -1646515.884 6         7.000          16.000
 90  6 16 21 52 30.0760000  0  5 12 11 09 13 18
  22091205.374    -6823084.833 6  -4136944.393 7        12.000          39.000
  22303643.516     5806141.749 6   4524267.980 9        15.000          58.000
  19397116.604   -22205262.341 7 -17055691.786 9        23.000         150.000
  19823526.850   -21012597.486 7 -16073478.705 9        22.000          93.000
  23194401.607    -2349560.014 4  -1662024.667 6         7.000          21.000
 90  6 16 21 52 45.1800000  0  5 12 11 09 13 18
  22081367.652    -6874794.956 6  -4177237.930 7        12.000          35.000
  22311573.381     5847806.897 6   4556734.282 9        15.000          66.000
  19392527.084   -22229382.664 7 -17074486.828 9        23.000         149.000
  19817578.130   -21043859.562 7 -16097838.708 9        22.000          96.000
  23190581.555    -2369674.860 4  -1677698.556 6         7.000          19.000
 90  6 16 21 53  0.0280000  0  5 12 11 09 13 18
  22071697.549    -6925602.531 6  -4216828.180 7        12.000          36.000
  22319374.647     5888803.633 6   4588679.766 9        15.000          69.000
  19388040.461   -22252971.811 7 -17092867.973 9        23.000         148.000
  19811752.309   -21074462.286 7 -16121684.923 9        22.000          96.000
  23186837.841    -2389316.804 4  -1693003.955 6         7.000          13.000
 90  6 16 21 53 15.1320000  0  5 12 11 09 13 18
  22061869.858    -6977254.735 6  -4257076.583 8        12.000          40.000
  22327318.568     5930549.874 6   4621209.264 9        16.000          68.000
  19383495.725   -22276838.377 7 -17111465.289 9        23.000         156.000
  19805858.486   -21105456.210 7 -16145835.978 9        23.000         104.000
  23183064.034    -2409160.778 5  -1708466.755 6         8.000          17.000
 90  6 16 21 53 30.2360000  0  5 12 11 09 13 18
  22052042.769    -7028887.272 6  -4297309.677 8        12.000          40.000
  22335269.271     5972326.633 6   4653762.551 9        15.000          61.000
  19378978.406   -22300586.449 7 -17129970.271 9        23.000         149.000
  19799982.519   -21136324.610 7 -16169889.221 9        23.000         100.000
  23179313.354    -2428880.697 5  -1723832.906 6         8.000          21.000
 90  6 16 21 53 45.0840000  0  5 12 11 09 13 18
  22042386.856    -7079621.774 6  -4336842.987 8        12.000          42.000
  22343090.100     6013428.255 6   4685789.762 9        15.000          58.000
  19374557.599   -22323812.976 7 -17148068.855 9        23.000         147.000
  19794230.329   -21166543.965 7 -16193436.709 9        22.000         103.000
  23175645.089    -2448141.883 5  -1738841.604 6         8.000          16.000
 90  6 16 21 54  0.1880000  0  5 12 11 09 13 18
  22032572.342    -7131206.705 6  -4377038.981 8        12.000          45.000
  22351051.785     6055272.382 6   4718395.539 9        15.000          69.000
  19370084.431   -22347317.660 7 -17166384.185 9        22.000         152.000
  19788406.409   -21197155.780 7 -16217290.013 9        22.000          96.000
  23171943.432    -2467607.875 4  -1754009.875 6         7.000          15.000
 90  6 16 21 54 15.0360000  0  5 12 11 09 13 18
  22022926.971    -7181895.761 6  -4416536.892 8        12.000          40.000
  22358887.353     6096437.682 6   4750472.361 9        16.000          61.000
  19365710.900   -22370306.042 7 -17184297.195 9        23.000         150.000
  19782701.633   -21227124.941 7 -16240642.552 9        22.000         100.000
  23168323.036    -2486622.653 4  -1768826.559 5         7.000          10.000
 90  6 16 21 54 30.1400000  0  5 12 11 09 13 18
  22013119.189    -7233438.150 6  -4456699.725 8        12.000          47.000
  22366861.776     6138341.646 6   4783124.773 9        16.000          66.000
  19361282.413   -22393572.430 7 -17202426.844 9        22.000         144.000
  19776926.580   -21257486.375 7 -16264300.762 9        23.000         101.000
  23164668.429    -2505843.097 4  -1783803.507 6         7.000          16.000
 90  6 16 21 54 45.2440000  0  5 12 11 09 13 18
  22003314.553    -7284955.680 6  -4496843.188 8        12.000          47.000
  22374839.826     6180278.286 6   4815802.642 9        15.000          61.000
  19356880.055   -22416715.095 7 -17220460.084 9        23.000         143.000
  19771171.560   -21287718.404 7 -16287858.128 9        22.000          98.000
  23161035.816    -2524934.415 5  -1798679.841 6         8.000          17.000
 90  6 16 21 55  0.0920000  0  5 12 11 09 13 18
  21993682.360    -7335575.631 6  -4536287.238 8        12.000          52.000
  22382692.229     6221535.684 6   4847951.229 9        15.000          67.000
  19352572.730   -22439344.685 7 -17238093.522 9        23.000         149.000
  19765541.644   -21317311.819 7 -16310917.880 9        22.000         103.000
  23157486.794    -2543575.209 5  -1813205.122 6         8.000          15.000
 90  6 16 21 55 15.1960000  0  5 12 11 09 13 18
  21983887.071    -7387041.769 6  -4576390.655 8        12.000          50.000
  22390683.987     6263537.627 6   4880679.972 9        15.000          55.000
  19348217.004   -22462240.006 7 -17255934.017 9        23.000         151.000
  19759836.423   -21347285.567 7 -16334273.996 9        22.000         107.000
  23153901.834    -2562406.088 5  -1827878.510 6         8.000          12.000
 90  6 16 21 55 30.0440000  0  5 12 11 09 13 18
  21974263.877    -7437611.914 6  -4615795.893 8        12.000          44.000
  22398548.230     6304857.160 6   4912876.985 9        15.000          55.000
  19343956.209   -22484627.385 7 -17273378.720 9        23.000         148.000
  19754254.692   -21376626.586 7 -16357137.069 9        22.000         103.000
  23150403.142    -2580790.614 5  -1842204.080 6         8.000          20.000
 90  6 16 21 55 45.1480000  0  5 12 11 09 13 18
  21964480.530    -7489032.938 6  -4655864.166 8        13.000          50.000
  22406550.969     6346915.369 6   4945649.598 9        15.000          55.000
  19339645.390   -22507281.793 7 -17291031.494 9        23.000         149.000
  19748598.248   -21406349.869 7 -16380298.016 9        22.000         108.000
  23146869.983    -2599363.319 5  -1856676.308 6         8.000          14.000
 90  6 16 21 56  0.2520000  0  5 12 11 09 13 18
  21954698.143    -7540429.759 6  -4695913.570 8        12.000          49.000
  22414559.848     6389002.377 6   4978444.633 9        14.000          58.000
  19335357.555   -22529813.490 7 -17308588.654 9        23.000         148.000
  19742965.237   -21435945.678 7 -16403359.627 9        22.000         110.000
  23143361.107    -2617802.436 5  -1871044.421 6         8.000          17.000
 90  6 16 21 56 15.1000000  0  5 12 11 09 13 18
  21945090.210    -7590930.341 6  -4735264.597 8        13.000          53.000
  22422437.564     6430405.015 6   5010706.388 9        14.000          60.000
  19331165.109   -22551842.037 7 -17325753.744 9        23.000         145.000
  19737453.777   -21464914.436 7 -16425932.635 9        22.000         100.000
  23139934.727    -2635797.735 4  -1885066.722 6         7.000          16.000
 90  6 16 21 56 30.2040000  0  5 12 11 09 13 18
  21935319.652    -7642270.781 6  -4775270.063 8        13.000          51.000
  22430460.345     6472555.863 6   5043551.168 9        14.000          64.000
  19326926.276   -22574121.731 7 -17343114.534 9        23.000         145.000
  19731869.401   -21494249.626 7 -16448791.170 9        22.000         102.000
  23136478.561    -2653964.565 4  -1899222.667 6         7.000          15.000
 90  6 16 21 56 45.0520000  0  5 12 11 09 13 18
  21925721.506    -7692718.160 6  -4814579.649 8        13.000          50.000
  22438349.890     6514018.076 6   5075859.340 9        14.000          58.000
  19322779.748   -22595904.614 7 -17360088.204 9        23.000         151.000
  19726407.045   -21522964.853 7 -16471166.619 9        22.000         108.000
  23133108.478    -2671694.754 5  -1913038.399 6         8.000          13.000
 90  6 16 21 57  0.1560000  0  5 12 11 09 13 18
  21915959.437    -7744009.958 6  -4854547.235 8        13.000          45.000
  22446379.843     6556223.000 6   5108746.263 9        14.000          55.000
  19318588.640   -22617939.736 7 -17377258.410 9        23.000         149.000
  19720870.773   -21552048.134 7 -16493828.855 9        22.000         102.000
  23129696.859    -2689599.047 5  -1926989.810 6         8.000          17.000
 90  6 16 21 57 15.0040000  0  5 12 11 09 13 18
  21906367.247    -7794408.870 6  -4893819.048 8        12.000          50.000
  22454279.164     6597737.889 6   5141095.494 8        14.000          53.000
  19314487.937   -22639481.545 7 -17394044.227 9        23.000         151.000
  19715455.478   -21580515.253 7 -16516010.971 9        22.000         106.000
  23126370.517    -2707073.029 5  -1940605.853 6         8.000          20.000
 90  6 16 21 57 30.1080000  0  5 12 11 09 13 18
  21896616.813    -7845651.531 6  -4933748.328 8        13.000          47.000
  22462321.048     6639994.743 6   5174022.884 8        14.000          51.000
  19310342.461   -22661271.837 7 -17411023.667 9        23.000         154.000
  19709965.930   -21609347.036 7 -16538477.243 9        22.000         106.000
  23123016.074    -2724719.363 5  -1954356.186 6         8.000          18.000
 90  6 16 21 57 45.2120000  0  5 12 11 09 13 18
  21886868.749    -7896865.754 6  -4973655.452 8        12.000          44.000
  22470368.263     6682280.535 6   5206972.822 9        14.000          57.000
  19306219.141   -22682935.083 7 -17427904.104 9        24.000         159.000
  19704507.528   -21638048.589 7 -16560842.032 9        23.000         102.000
  23119680.589    -2742232.885 4  -1968003.116 6         7.000          15.000
 90  6 16 21 58  0.0600000  0  5 12 11 09 13 18
  21877295.928    -7947183.335 6  -5012863.896 8        12.000          44.000
  22478284.756     6723878.133 6   5239386.503 9        14.000          54.000
  19302190.813   -22704106.436 7 -17444401.264 9        23.000         158.000
  19699161.717   -21666136.237 7 -16582728.457 9        23.000         103.000
  23116427.418    -2759320.691 4  -1981318.248 6         7.000          17.000
 90  6 16 21 58 15.1640000  0  5 12 11 09 13 18
  21867558.834    -7998338.900 6  -5052725.305 8        12.000          52.000
  22486342.200     6766221.869 6   5272381.576 9        14.000          57.000
  19298115.923   -22725515.327 7 -17461083.501 9        23.000         157.000
  19693749.814   -21694578.484 7 -16604891.192 9        23.000         107.000
  23113148.240    -2776574.036 4  -1994762.393 6         7.000          13.000
 90  6 16 21 58 30.0120000  0  5 12 11 09 13 18
  21857994.296    -8048602.488 6  -5091891.687 8        12.000          49.000
  22494267.968     6807871.598 6   5304835.886 9        14.000          56.000
  19294135.422   -22746440.559 7 -17477388.870 9        23.000         146.000
  19688451.300   -21722415.530 7 -16626582.345 9        23.000         115.000
  23109942.948    -2793413.764 4  -2007884.237 6         7.000          14.000
 90  6 16 21 58 45.1160000  0  5 12 11 09 13 18
  21848270.758    -8099705.737 6  -5131712.346 8        13.000          48.000
  22502335.196     6850264.421 6   5337869.224 9        14.000          61.000
  19290108.299   -22767601.979 7 -17493878.282 9        22.000         150.000
  19683086.500   -21750605.917 7 -16648548.829 9        23.000         105.000
  23106707.879    -2810419.248 4  -2021135.227 6         7.000          14.000
 90  6 16 21 59  0.2200000  0  5 12 11 09 13 18
  21838552.134    -8150783.213 6  -5171512.910 8        13.000          51.000
  22510405.549     6892680.388 6   5370920.582 9        14.000          58.000
  19286104.630   -22788639.183 7 -17510270.897 9        23.000         155.000
  19677748.218   -21778670.240 7 -16670417.080 9        23.000         118.000
  23103495.661    -2827299.628 4  -2034288.737 7         7.000          30.000
 90  6 16 21 59 15.0680000  0  5 12 11 09 13 18
  21829002.837    -8200966.532 6  -5210616.745 8        13.000          47.000
  22518346.232     6934402.739 6   5403431.467 8        14.000          52.000
  19282191.917   -22809195.484 7 -17526288.787 9        22.000         152.000
  19672520.566   -21806133.055 7 -16691816.620 9        23.000         100.000
  23100360.179    -2843767.799 4  -2047121.051 6         7.000          24.000
 90  6 16 21 59 30.1720000  0  5 12 11 09 13 18
  21819290.455    -8251985.984 6  -5250372.105 8        13.000          46.000
  22526428.128     6976869.747 6   5436522.605 8        14.000          53.000
  19278237.852   -22829979.530 7 -17542484.132 9        22.000         146.000
  19667229.478   -21833941.393 7 -16713485.405 9        23.000         111.000
  23097194.941    -2860391.795 5  -2060074.789 6         8.000          24.000
 90  6 16 21 59 45.0200000  0  5 12 11 09 13 18
  21809753.068    -8302114.137 6  -5289432.945 8        13.000          50.000
  22534376.400     7018639.137 6   5469070.166 9        14.000          57.000
  19274373.426   -22850288.926 7 -17558309.631 9        22.000         147.000
  19662048.347   -21861155.033 7 -16734690.788 9        22.000         107.000
  23094111.046    -2876611.429 5  -2072713.452 6         8.000          22.000
 90  6 16 22  0  0.1240000  0  5 12 11 09 13 18
  21800056.693    -8353083.595 6  -5329149.342 7        13.000          36.000
  22542464.334     7061146.644 6   5502192.857 8        14.000          51.000
  19270463.481   -22870827.811 7 -17574313.956 9        22.000         138.000
  19656806.016   -21888716.702 7 -16756167.366 9        23.000         118.000
  23090995.340    -2892989.366 5  -2085475.460 6         8.000          25.000
 90  6 16 22  0 15.2280000  0  5 12 11 09 13 18
  21790361.973    -8404022.905 6  -5368842.250 8        13.000          40.000
  22550558.376     7103678.581 6   5535334.581 8        14.000          51.000
  19266580.913   -22891238.555 7 -17590218.407 9        22.000         143.000
  19651583.452   -21916149.549 7 -16777543.558 9        23.000         110.000
  23087900.577    -2909237.535 5  -2098136.340 6         8.000          18.000
 90  6 16 22  0 30.0760000  0  5 12 11 09 13 18
  21780839.041    -8454072.191 6  -5407841.648 8        13.000          44.000
  22558520.204     7145510.135 6   5567930.565 9        14.000          58.000
  19262783.437   -22911180.744 7 -17605757.768 9        22.000         144.000
  19646476.646   -21942994.712 7 -16798461.821 9        22.000         115.000
  23084888.658    -2925084.468 5  -2110484.571 7         8.000          27.000
 90  6 16 22  0 45.1800000  0  5 12 11 09 13 18
  21771155.659    -8504954.745 6  -5447490.324 8        13.000          43.000
  22566621.489     7188085.873 6   5601106.435 9        14.000          54.000
  19258951.138   -22931339.702 7 -17621466.032 9        22.000         143.000
  19641304.075   -21970175.373 7 -16819641.507 9        23.000         112.000
  23081843.893    -2941072.777 4  -2122942.971 6         7.000          25.000
 90  6 16 22  1  0.0280000  0  5 12 11 09 13 18
  21761642.371    -8554941.094 6  -5486440.673 8        14.000          45.000
  22574588.832     7229966.553 6   5633740.692 9        14.000          57.000
  19255201.949   -22951027.436 7 -17636807.117 9        22.000         143.000
  19636246.077   -21996765.854 7 -16840361.311 9        23.000         114.000
  23078878.166    -2956655.288 4  -2135085.151 7         7.000          27.000
 90  6 16 22  1 15.1320000  0  5 12 11 09 13 18
  21751972.422    -8605758.556 6  -5526038.646 7        14.000          35.000
  22582702.927     7272592.090 6   5666955.362 9        14.000          54.000
  19251417.569   -22970926.700 7 -17652313.022 9        22.000         142.000
  19631121.282   -22023687.111 7 -16861338.862 9        23.000         118.000
  23075886.430    -2972373.758 3  -2147333.312 7         6.000          27.000
 90  6 16 22  1 30.2360000  0  5 12 11 09 13 18
  21742306.549    -8656546.503 6  -5565613.617 7        14.000          37.000
  22590816.429     7315238.462 6   5700186.254 9        14.000          60.000
  19247652.057   -22990698.184 7 -17667719.366 9        22.000         142.000
  19626023.006   -22050481.644 7 -16882217.667 9        23.000         112.000
  23072923.185    -2987961.821 4  -2159479.825 6         7.000          24.000
 90  6 16 22  1 45.0840000  0  5 12 11 09 13 18
  21732813.548    -8706438.850 6  -5604490.703 7        14.000          34.000
  22598800.464     7357187.771 6   5732873.995 8        14.000          50.000
  19243981.321   -23010004.253 7 -17682763.045 9        22.000         140.000
  19621034.216   -22076692.605 7 -16902641.748 9        24.000         119.000
  23070028.800    -3003152.617 3  -2171316.797 7         6.000          26.000
 90  6 16 22  2  0.1880000  0  5 12 11 09 13 18
  21723162.099    -8757162.322 6  -5644015.437 8        14.000          50.000
  22606924.304     7399879.604 6   5766140.318 9        14.000          56.000
  19240266.220   -23029516.939 7 -17697967.727 9        22.000         136.000
  19615984.616   -22103230.247 7 -16923320.381 9        24.000         119.000
  23067117.468    -3018474.410 3  -2183255.809 6         6.000          17.000
 90  6 16 22  2 15.0360000  0  5 12 11 09 13 18
  21713676.882    -8806997.098 6  -5682847.680 8        13.000          45.000
  22614913.876     7441866.508 6   5798857.362 8        14.000          52.000
  19236641.391   -23048574.455 7 -17712817.729 9        22.000         143.000
  19611043.868   -22129195.083 7 -16943552.673 9        24.000         115.000
  23064274.691    -3033405.874 4  -2194890.722 6         7.000          20.000
 90  6 16 22  2 30.1400000  0  5 12 11 09 13 18
  21704037.732    -8857660.823 6  -5722325.831 8        13.000          46.000
  22623043.027     7484596.558 6   5832153.465 9        13.000          57.000
  19232975.722   -23067833.182 7 -17727824.516 9        22.000         136.000
  19606042.503   -22155481.765 7 -16964035.754 9        24.000         120.000
  23061406.978    -3048462.211 4  -2206622.887 6         7.000          25.000
 90  6 16 22  2 45.2440000  0  5 12 11 09 13 18
  21694402.689    -8908296.227 6  -5761781.931 8        14.000          44.000
  22631178.767     7527343.246 6   5865462.541 8        14.000          53.000
  19229334.844   -23086965.527 7 -17742732.831 9        22.000         134.000
  19601063.612   -22181644.083 7 -16984421.927 9        24.000         125.000
  23058567.540    -3063388.342 4  -2218253.640 7         7.000          27.000
 90  6 16 22  3  0.0920000  0  5 12 11 09 13 18
  21684935.563    -8958041.339 6  -5800544.308 8        14.000          46.000
  22639179.535     7569385.371 6   5898222.605 8        13.000          49.000
  19225779.754   -23105646.235 7 -17757289.214 9        22.000         128.000
  19596192.235   -22207237.554 7 -17004364.851 9        24.000         113.000
  23055800.273    -3077932.248 4  -2229586.543 6         7.000          19.000
 90  6 16 22  3 15.1960000  0  5 12 11 09 13 18
  21675311.900    -9008607.559 6  -5839946.499 8        13.000          44.000
  22647321.261     7612176.028 6   5931565.938 9        13.000          56.000
  19222188.819   -23124515.400 7 -17771992.460 9        22.000         136.000
  19591263.756   -22233141.081 7 -17024549.371 9        23.000         119.000
  23053009.215    -3092593.526 4  -2241010.915 6         7.000          24.000
 90  6 16 22  3 30.0440000  0  5 12 11 09 13 18
  21665859.351    -9058285.194 6  -5878656.290 7        13.000          39.000
  22655330.814     7654259.734 6   5964358.399 8        13.000          50.000
  19218683.773   -23142938.028 7 -17786347.744 9        22.000         138.000
  19586440.013   -22258481.388 7 -17044295.014 9        23.000         118.000
  23050290.429    -3106880.455 4  -2252143.565 6         7.000          22.000
 90  6 16 22  3 45.1480000  0  5 12 11 09 13 18
  21656248.579    -9108786.542 6  -5918007.932 8        13.000          43.000
  22663480.375     7697087.826 6   5997730.889 8        13.000          48.000
  19215140.379   -23161548.576 7 -17800849.459 9        22.000         138.000
  19581560.914   -22284131.738 7 -17064282.259 9        23.000         121.000
  23047552.500    -3121283.323 4  -2263366.546 6         7.000          24.000
 90  6 16 22  4  0.2520000  0  5 12 11 09 13 18
  21646648.032    -9159251.621 6  -5957331.311 8        14.000          42.000
  22671634.932     7739937.429 6   6031120.164 8        13.000          52.000
  19211626.753   -23180025.188 7 -17815246.806 9        22.000         137.000
  19576700.886   -22309651.449 7 -17084167.700 9        22.000         118.000
  23044837.177    -3135551.650 5  -2274484.726 7         8.000          27.000
 90  6 16 22  4 15.1000000  0  5 12 11 09 13 18
  21637212.032    -9208827.858 6  -5995962.092 8        14.000          50.000
  22679653.668     7782079.107 6   6063957.800 8        13.000          47.000
  19208192.549   -23198060.260 7 -17829300.105 9        22.000         135.000
  19571956.188   -22334613.528 7 -17103618.635 9        24.000         122.000
  23042190.673    -3149449.920 4  -2285314.550 6         7.000          22.000
 90  6 16 22  4 30.2040000  0  5 12 11 09 13 18
  21627621.578    -9259224.842 6  -6035232.401 8        14.000          45.000
  22687815.344     7824965.544 6   6097375.753 8        13.000          40.000
  19204728.435   -23216275.601 7 -17843493.864 9        22.000         125.000
  19567144.663   -22359878.946 7 -17123305.917 9        23.000         123.000
  23039524.352    -3163459.140 4  -2296230.791 6         7.000          18.000
 90  6 16 22  4 45.0520000  0  5 12 11 09 13 18
  21618200.124    -9308736.187 6  -6073812.621 8        14.000          49.000
  22695840.455     7867140.503 6   6130239.325 8        13.000          43.000
  19201343.244   -23234055.799 7 -17857348.556 9        22.000         126.000
  19562444.575   -22384593.397 7 -17142563.892 9        23.000         117.000
  23036929.027    -3177107.681 4  -2306866.016 6         7.000          14.000
 90  6 16 22  5  0.1560000  0  5 12 11 09 13 18
  21608623.185    -9359067.020 6  -6113031.384 9        14.000          56.000
  22704009.353     7910059.610 6   6163682.746 8        13.000          43.000
  19197928.142   -23252011.859 7 -17871340.281 9        22.000         131.000
  19557681.806   -22409607.280 7 -17162055.195 9        23.000         125.000
  23034310.676    -3190863.378 4  -2317584.736 6         7.000          21.000
 90  6 16 22  5 15.0040000  0  5 12 11 09 13 18
  21599212.703    -9408510.800 6  -6151558.946 8        14.000          46.000
  22712041.267     7952267.856 6   6196572.258 7        13.000          38.000
  19194592.280   -23269534.647 7 -17884994.391 9        23.000         131.000
  19553027.083   -22434072.505 7 -17181118.960 9        23.000         126.000
  23031759.685    -3204259.354 4  -2328023.141 6         7.000          20.000
 90  6 16 22  5 30.1080000  0  5 12 11 09 13 18
  21589647.368    -9458776.909 6  -6190727.281 8        13.000          47.000
  22720212.750     7995215.811 6   6230038.168 7        13.000          36.000
  19191225.057   -23287233.011 7 -17898785.316 9        22.000         124.000
  19548313.491   -22458837.610 7 -17200416.402 9        23.000         125.000
  23029192.216    -3217760.367 4  -2338543.406 6         7.000          20.000
 90  6 16 22  5 45.2120000  0  5 12 11 09 13 18
  21580088.591    -9509010.451 6  -6229870.239 8        14.000          47.000
  22728388.267     8038177.213 6   6263514.551 7        13.000          35.000
  19187881.922   -23304801.596 7 -17912475.119 9        23.000         125.000
  19543624.690   -22483478.056 7 -17219616.707 9        23.000         127.000
  23026648.702    -3231131.737 4  -2348962.643 6         7.000          24.000
 90  6 16 22  6  0.0600000  0  5 12 11 09 13 18
  21570699.090    -9558358.328 6  -6268323.076 8        15.000          47.000
  22736428.751     8080425.493 6   6296435.258 7        12.000          36.000
  19184619.440   -23321943.492 7 -17925832.434 9        23.000         123.000
  19539039.706   -22507576.966 7 -17238395.045 9        23.000         126.000
  23024168.685    -3244148.407 3  -2359105.508 6         6.000          22.000
 90  6 16 22  6 15.1640000  0  5 12 11 09 13 18
  21561152.776    -9608524.138 6  -6307413.260 8        15.000          47.000
  22744609.254     8123414.969 6   6329933.506 7        12.000          36.000
  19181327.399   -23339251.816 7 -17939319.433 9        23.000         121.000
  19534395.924   -22531967.502 7 -17257400.608 9        23.000         126.000
  23021673.857    -3257263.142 3  -2369324.764 6         6.000          22.000
 90  6 16 22  6 30.0120000  0  5 12 11 09 13 18
  21551774.654    -9657804.307 6  -6345813.348 8        14.000          53.000
  22752652.895     8165690.885 6   6362875.738 8        13.000          44.000
  19178112.585   -23356136.816 7 -17952476.565 9        23.000         126.000
  19529860.985   -22555820.274 7 -17275987.145 9        24.000         127.000
  23019247.470    -3270029.149 4  -2379272.298 6         7.000          14.000
 90  6 16 22  6 45.1160000  0  5 12 11 09 13 18
  21542240.721    -9707899.509 6  -6384848.512 8        14.000          53.000
  22760838.270     8208709.003 6   6396396.317 7        12.000          35.000
  19174870.894   -23373182.185 7 -17965758.665 9        23.000         123.000
  19525264.223   -22579959.266 7 -17294796.704 9        23.000         125.000
  23016800.755    -3282888.772 4  -2389292.818 6         7.000          16.000
 90  6 16 22  7  0.2200000  0  5 12 11 09 13 18
  21532716.339    -9757959.527 6  -6423856.259 9        15.000          57.000
  22769027.793     8251740.134 6   6429927.040 8        12.000          41.000
  19171650.309   -23390095.704 7 -17978938.031 9        22.000         118.000
  19520696.095   -22603972.460 7 -17313508.244 9        24.000         123.000
  23014375.522    -3295620.516 3  -2399213.628 6         6.000          20.000
 90  6 16 22  7 15.0680000  0  5 12 11 09 13 18
  21523356.768    -9807136.036 6  -6462175.573 8        14.000          53.000
  22777080.218     8294054.698 6   6462899.392 7        12.000          39.000
  19168511.822   -23406593.376 7 -17991793.348 9        23.000         113.000
  19516227.656   -22627455.710 7 -17331806.834 9        24.000         127.000
  23012016.075    -3308012.714 4  -2408869.867 6         7.000          24.000
 90  6 16 22  7 30.1720000  0  5 12 11 09 13 18
  21513845.196    -9857125.462 6  -6501128.313 9        14.000          58.000
  22785272.919     8337110.661 6   6496449.462 7        12.000          37.000
  19165342.936   -23423244.553 7 -18004768.286 9        23.000         124.000
  19511704.117   -22651219.546 7 -17350324.077 9        24.000         132.000
  23009643.410    -3320494.616 3  -2418596.024 6         6.000          19.000
 90  6 16 22  7 45.0200000  0  5 12 11 09 13 18
  21504500.070    -9906229.413 6  -6539391.067 9        14.000          58.000
  22793329.901     8379451.714 6   6529442.448 8        12.000          40.000
  19162252.236   -23439481.045 7 -18017420.095 9        23.000         123.000
  19507284.824   -22674454.954 7 -17368429.547 9        24.000         132.000
  23007329.624    -3332639.424 4  -2428059.512 6         7.000          13.000
 90  6 16 22  8  0.1240000  0  5 12 11 09 13 18
  21495001.869    -9956144.327 6  -6578285.757 9        14.000          57.000
  22801530.221     8422534.166 6   6563013.144 8        12.000          42.000
  19159136.570   -23455866.170 7 -18030187.722 9        23.000         118.000
  19502807.825   -22697966.831 7 -17386750.452 9        24.000         132.000
  23005005.021    -3344869.647 4  -2437589.556 6         7.000          21.000
 90  6 16 22  8 15.2280000  0  5 12 11 09 13 18
  21485509.420   -10006024.058 6  -6617153.023 9        14.000          61.000
  22809729.122     8465626.720 6   6596591.723 7        12.000          33.000
  19156041.539   -23472119.708 7 -18042852.810 9        23.000         123.000
  19498359.112   -22721354.557 7 -17404974.613 9        24.000         127.000
  23002701.370    -3356977.179 4  -2447023.975 6         7.000          24.000
 90  6 16 22  8 30.0760000  0  5 12 11 09 13 18
  21476186.971   -10055018.408 6  -6655330.390 9        14.000          63.000
  22817794.817     8508003.782 6   6629612.776 7        12.000          33.000
  19153027.954   -23487963.954 7 -18055198.968 9        23.000         121.000
  19494007.300   -22744219.359 7 -17422791.307 9        24.000         129.000
  23000456.057    -3368754.250 4  -2456200.878 6         7.000          16.000
 90  6 16 22  8 45.1800000  0  5 12 11 09 13 18
  21466709.170   -10104818.284 6  -6694135.429 9        14.000          60.000
  22825998.140     8551124.494 5   6663213.292 7        11.000          31.000
  19149986.185   -23503946.756 7 -18067653.096 9        23.000         124.000
  19489604.617   -22767351.709 7 -17440816.475 9        24.000         129.000
  22998201.264    -3380607.808 4  -2465437.375 6         7.000          18.000
 90  6 16 22  9  0.0280000  0  5 12 11 09 13 18
  21457399.613   -10153737.981 6  -6732254.622 9        14.000          61.000
  22834066.593     8593524.128 6   6696251.931 7        12.000          33.000
  19147019.242   -23519528.994 7 -18079795.096 9        23.000         116.000
  19485302.719   -22789970.359 7 -17458441.367 9        24.000         138.000
  22996007.221    -3392137.918 3  -2474421.859 6         6.000          13.000
 90  6 16 22  9 15.1320000  0  5 12 11 09 13 18
  21447938.862   -10203462.382 6  -6771000.848 9        14.000          60.000
  22842277.680     8636666.095 6   6729869.004 7        12.000          34.000
  19144031.511   -23535245.890 7 -18092042.023 9        23.000         124.000
  19480944.736   -22812853.536 7 -17476272.370 9        24.000         136.000
  22993797.988    -3403739.793 3  -2483462.287 6         6.000          17.000
 90  6 16 22  9 30.2360000  0  5 12 11 09 13 18
  21438483.913   -10253145.041 6  -6809714.562 9        14.000          57.000
  22850488.144     8679821.436 6   6763496.521 7        12.000          34.000
  19141064.374   -23550825.106 7 -18104181.666 9        23.000         115.000
  19476616.632   -22835607.732 7 -17494002.877 9        24.000         134.000
  22991618.941    -3415209.893 3  -2492400.029 6         6.000          17.000
 90  6 16 22  9 45.0840000  0  5 12 11 09 13 18
  21429195.215   -10301947.725 6  -6847742.578 9        13.000          65.000
  22858565.576     8722255.231 6   6796561.785 7        12.000          32.000
  19138175.424   -23566008.684 7 -18116013.024 9        23.000         113.000
  19472384.816   -22857853.434 7 -17511337.155 9        24.000         133.000
  22989501.175    -3426358.570 4  -2501087.314 6         7.000          22.000
 90  6 16 22 10  0.1880000  0  5 12 11 09 13 18
  21419756.620   -10351553.213 6  -6886396.147 9        14.000          56.000
  22866780.647     8765430.020 5   6830204.433 7        11.000          37.000
  19135262.938   -23581320.524 7 -18127944.323 9        23.000         120.000
  19468099.841   -22880358.208 7 -17528873.305 9        24.000         140.000
  22987360.710    -3437570.804 4  -2509824.138 6         7.000          19.000
 90  6 16 22 10 15.0360000  0  5 12 11 09 13 18
  21410484.420   -10400281.087 6  -6924365.880 9        14.000          60.000
  22874857.988     8807880.544 5   6863282.732 7        11.000          39.000
  19132421.222   -23596242.887 7 -18139572.132 9        23.000         117.000
  19463914.963   -22902360.866 7 -17546018.193 9        24.000         137.000
  22985291.936    -3448469.231 4  -2518316.390 6         7.000          24.000
 90  6 16 22 10 30.1400000  0  5 12 11 09 13 18
  21401059.708   -10449805.810 6  -6962956.526 9        14.000          67.000
  22883078.779     8851076.002 5   6896941.477 7        11.000          34.000
  19129559.843   -23611284.295 7 -18151292.710 9        23.000         118.000
  19459678.939   -22924614.240 7 -17563358.452 9        24.000         132.000
  22983202.996    -3459422.628 3  -2526851.556 6         6.000          16.000
 90  6 16 22 10 45.2440000  0  5 12 11 09 13 18
  21391643.454   -10499284.221 6  -7001511.081 9        14.000          70.000
  22891301.287     8894286.523 5   6930611.975 7        11.000          38.000
  19126726.044   -23626183.957 7 -18162902.833 9        23.000         116.000
  19455467.554   -22946735.688 7 -17580595.910 9        24.000         139.000
  22981144.417    -3470237.656 3  -2535278.800 6         6.000          18.000
 90  6 16 22 11  0.0920000  0  5 12 11 09 13 18
  21382395.106   -10547883.442 6  -7039380.557 9        15.000          69.000
  22899386.870     8936774.060 6   6963719.108 7        12.000          35.000
  19123961.985   -23640697.670 7 -18174212.217 9        23.000         120.000
  19451356.052   -22968358.757 7 -17597445.015 9        24.000         137.000
  22979149.018    -3480741.013 4  -2543463.247 6         7.000          16.000
 90  6 16 22 11 15.1960000  0  5 12 11 09 13 18
  21372997.148   -10597276.929 6  -7077868.937 9        15.000          66.000
  22907612.207     8980005.780 6   6997406.131 7        12.000          39.000
  19121180.427   -23655323.369 7 -18185608.854 9        23.000         116.000
  19447194.997   -22990226.762 7 -17614484.987 9        24.000         132.000
  22977139.501    -3491293.582 4  -2551686.025 6         7.000          14.000
 90  6 16 22 11 30.0440000  0  5 12 11 09 13 18
  21363766.095   -10645791.055 6  -7115672.104 9        15.000          66.000
  22915701.918     9022514.752 6   7030529.958 7        12.000          34.000
  19118470.201   -23669566.107 7 -18196707.095 9        23.000         115.000
  19443125.194   -23011599.586 7 -17631139.100 9        24.000         133.000
  22975192.951    -3501539.231 5  -2559669.624 6         8.000          17.000
 90  6 16 22 11 45.1480000  0  5 12 11 09 13 18
  21354382.917   -10695100.339 6  -7154094.872 9        15.000          60.000
  22923932.874     9065764.521 6   7064231.039 7        12.000          29.000
  19115736.614   -23683918.880 7 -18207891.068 9        23.000         121.000
  19439013.540   -23033216.364 7 -17647983.308 9        24.000         139.000
  22973232.693    -3511835.411 4  -2567692.633 6         7.000          18.000
 90  6 16 22 12  0.2520000  0  5 12 11 09 13 18
  21345007.013   -10744366.478 6  -7192484.023 9        15.000          66.000
  22932163.553     9109023.172 6   7097939.040 7        12.000          36.000
  19113032.119   -23698133.524 7 -18218967.408 9        23.000         112.000
  19434923.480   -23054706.235 7 -17664728.623 9        23.000         132.000
  22971295.183    -3522004.670 4  -2575616.721 6         7.000          24.000
 90  6 16 22 12 15.1000000  0  5 12 11 09 13 18
  21335799.568   -10792760.127 6  -7230193.312 9        15.000          57.000
  22940256.901     9151552.159 5   7131078.478 7        11.000          36.000
  19110400.049   -23711977.415 7 -18229754.852 9        23.000         116.000
  19430924.897   -23075713.020 7 -17681097.514 9        24.000         134.000
  22969415.604    -3531882.934 4  -2583314.050 6         7.000          20.000
 90  6 16 22 12 30.2040000  0  5 12 11 09 13 18
  21326439.089   -10841941.683 6  -7268516.557 9        15.000          62.000
  22948491.370     9194825.668 5   7164798.036 7        11.000          35.000
  19107745.313   -23725919.499 7 -18240618.814 9        23.000         112.000
  19426882.665   -23096953.529 7 -17697648.526 9        24.000         134.000
  22967528.087    -3541802.281 4  -2591043.419 6         7.000          25.000
 90  6 16 22 12 45.0520000  0  5 12 11 09 13 18
  21317246.864   -10890246.394 6  -7306156.551 9        15.000          65.000
  22956587.577     9237373.791 5   7197952.371 7        11.000          29.000
  19105162.950   -23739489.700 7 -18251192.986 9        23.000         118.000
  19422935.220   -23117710.271 7 -17713822.575 9        24.000         135.000
  22965698.389    -3551429.467 5  -2598545.111 6         8.000          14.000
 90  6 16 22 13  0.1560000  0  5 12 11 09 13 18
  21307905.855   -10939339.587 6  -7344410.948 9        15.000          65.000
  22964826.991     9280663.510 5   7231684.551 7        11.000          36.000
  19102563.937   -23753155.844 7 -18261841.922 9        23.000         112.000
  19418939.589   -23138698.890 7 -17730177.301 9        24.000         138.000
  22963858.812    -3561098.867 5  -2606079.730 6         8.000          17.000
 90  6 16 22 13 15.0040000  0  5 12 11 09 13 18
  21298727.512   -10987557.071 6  -7381982.967 9        15.000          60.000
  22972927.622     9323226.769 5   7264850.669 7        11.000          26.000
  19100033.836   -23766454.582 7 -18272204.581 9        23.000         112.000
  19415036.048   -23159208.150 7 -17746158.509 9        24.000         135.000
  22962070.239    -3570482.559 5  -2613391.687 6         8.000          16.000
 90  6 16 22 13 30.1080000  0  5 12 11 09 13 18
  21289403.226   -11036560.212 6  -7420167.193 9        15.000          65.000
  22981167.096     9366531.870 5   7298594.900 7        11.000          26.000
  19097482.487   -23779843.649 7 -18282637.621 9        22.000         109.000
  19411091.923   -23179944.884 7 -17762316.974 9        24.000         133.000
  22960280.727    -3579900.935 5  -2620730.696 6         8.000          18.000
 90  6 16 22 13 45.2120000  0  5 12 11 09 13 18
  21280087.789   -11085518.057 6  -7458316.103 9        16.000          67.000
  22989409.707     9409843.908 5   7332344.504 7        11.000          32.000
  19094962.539   -23793093.190 7 -18292961.929 9        23.000         114.000
  19407169.668   -23200555.304 7 -17778376.997 9        24.000         138.000
  22958509.878    -3589191.040 4  -2627969.746 6         7.000          18.000
 90  6 16 22 14  0.0600000  0  5 12 11 09 13 18
  21270936.680   -11133606.672 6  -7495787.718 9        16.000          56.000
  22997511.114     9452423.233 5   7365523.141 7        11.000          39.000
  19092509.940   -23805987.061 7 -18303009.108 9        22.000         119.000
  19403335.294   -23220698.290 7 -17794072.791 9        24.000         141.000
  22956795.611    -3598202.567 4  -2634991.716 6         7.000          20.000
 90  6 16 22 14 15.1640000  0  5 12 11 09 13 18
  21261636.827   -11182477.820 6  -7533869.086 9        15.000          59.000
  23005755.308     9495743.870 5   7399279.430 7        11.000          33.000
  19090040.986   -23818963.480 7 -18313120.596 9        22.000         107.000
  19399459.672   -23241062.206 7 -17809940.742 9        24.000         135.000
  22955074.581    -3607238.107 4  -2642032.400 6         7.000          20.000
 90  6 16 22 14 30.0120000  0  5 12 11 09 13 18
  21252502.001   -11230472.887 6  -7571267.800 9        15.000          64.000
  23013859.371     9538338.721 5   7432470.171 7        11.000          29.000
  19087637.757   -23831580.807 7 -18322952.273 9        22.000         108.000
  19395676.445   -23260955.229 7 -17825441.768 9        24.000         140.000
  22953411.645    -3615988.726 5  -2648851.053 6         8.000          22.000
 90  6 16 22 14 45.1160000  0  5 12 11 09 13 18
  21243222.988   -11279244.371 6  -7609271.495 9        16.000          61.000
  23022106.671     9581678.479 5   7466241.362 7        11.000          35.000
  19085222.750   -23844271.633 7 -18332841.227 9        22.000         110.000
  19391848.497   -23281061.213 7 -17841108.733 9        24.000         133.000
  22951741.864    -3624753.761 5  -2655680.964 6         8.000          24.000
 90  6 16 22 15  0.2200000  0  5 12 11 09 13 18
  21233951.554   -11327967.555 6  -7647237.574 9        17.000          67.000
  23030357.464     9625025.030 5   7500017.846 7        11.000          26.000
  19082835.630   -23856820.605 7 -18342619.642 9        22.000         109.000
  19388047.854   -23301039.807 7 -17856676.431 9        24.000         136.000
  22950101.381    -3633384.485 5  -2662406.206 6         8.000          17.000
 90  6 16 22 15 15.0680000  0  5 12 11 09 13 18
  21224846.965   -11375819.698 6  -7684524.926 9        17.000          59.000
  23038466.910     9667641.059 5   7533225.106 7        11.000          30.000
  19080514.868   -23869020.706 7 -18352126.214 9        22.000         116.000
  19384331.792   -23320557.762 7 -17871885.194 9        24.000         133.000
  22948511.309    -3641740.052 5  -2668917.013 6         8.000          15.000
 90  6 16 22 15 30.1720000  0  5 12 11 09 13 18
  21215591.273   -11424444.612 6  -7722414.425 9        16.000          64.000
  23046715.477     9711001.816 5   7567012.678 7        10.000          35.000
  19078180.469   -23881286.337 7 -18361683.840 9        22.000         109.000
  19380578.271   -23340282.078 7 -17887254.753 9        24.000         132.000
  22946918.071    -3650102.150 5  -2675432.997 6         8.000          22.000
 90  6 16 22 15 45.0200000  0  5 12 11 09 13 18
  21206504.969   -11472197.598 6  -7759624.502 9        17.000          66.000
  23054830.388     9753633.103 5   7600231.814 7        10.000          30.000
  19075910.078   -23893205.489 7 -18370971.490 9        22.000         106.000
  19376912.744   -23359548.423 7 -17902267.452 9        24.000         132.000
  22945381.047    -3658193.128 5  -2681737.640 6         8.000          21.000
 90  6 16 22 16  0.1240000  0  5 12 11 09 13 18
  21197269.676   -11520727.570 6  -7797440.025 9        17.000          64.000
  23063081.682     9797002.103 5   7634025.777 7        10.000          29.000
  19073629.870   -23905191.644 7 -18380311.348 9        22.000         109.000
  19373207.970   -23379023.629 7 -17917442.906 9        24.000         125.000
  22943840.110    -3666296.373 5  -2688051.857 7         9.000          26.000
 90  6 16 22 16 15.2280000  0  5 12 11 09 13 18
  21188045.917   -11569205.742 6  -7835215.171 9        17.000          65.000
  23071337.041     9840378.370 5   7667825.431 7        10.000          30.000
  19071377.376   -23917033.074 7 -18389538.429 9        22.000         105.000
  19369526.426   -23398369.743 7 -17932517.762 9        24.000         127.000
  22942323.874    -3674266.500 5  -2694262.359 6         9.000          15.000
 90  6 16 22 16 30.0760000  0  5 12 11 09 13 18
  21178985.928   -11616812.390 6  -7872311.223 9        17.000          70.000
  23079453.536     9883025.149 5   7701056.633 7        10.000          27.000
  19069189.799   -23928533.487 7 -18398499.788 9        22.000         109.000
  19365930.352   -23417263.142 7 -17947239.855 9        25.000         126.000
  22940854.760    -3681972.996 5  -2700267.449 6         9.000          20.000
 90  6 16 22 16 45.1800000  0  5 12 11 09 13 18
  21169777.614   -11665190.915 6  -7910008.723 9        17.000          78.000
  23087708.247     9926410.873 5   7734863.643 6        10.000          25.000
  19066990.996   -23940091.429 7 -18407505.978 9        22.000         108.000
  19362296.727   -23436357.467 7 -17962118.515 9        24.000         133.000
  22939387.445    -3689685.140 5  -2706276.910 6         9.000          21.000
 90  6 16 22 17  0.0280000  0  5 12 11 09 13 18
  21160739.985   -11712699.430 6  -7947028.297 9        17.000          68.000
  23095825.160     9969066.211 5   7768101.535 6        10.000          23.000
  19064855.108   -23951313.295 7 -18416250.284 9        22.000         115.000
  19358746.856   -23455004.106 7 -17976648.331 9        24.000         131.000
  22937969.080    -3697140.682 5  -2712086.428 6         9.000          21.000
 90  6 16 22 17 15.1320000  0  5 12 11 09 13 18
  21151552.285   -11760975.725 6  -7984646.159 9        17.000          77.000
  23104084.381    10012461.641 5   7801916.113 7        10.000          28.000
  19062709.393   -23962585.836 7 -18425034.078 9        22.000         109.000
  19355163.081   -23473846.181 7 -17991330.433 9        24.000         130.000
  22936550.123    -3704598.219 4  -2717897.522 6         7.000          23.000
 90  6 16 22 17 30.2360000  0  5 12 11 09 13 18
  21142374.341   -11809201.955 6  -8022224.990 9        18.000          70.000
  23112342.560    10055859.497 5   7835732.586 6        10.000          25.000
  19060590.564   -23973716.258 7 -18433707.129 9        22.000         114.000
  19351601.708   -23492563.276 7 -18005915.148 9        24.000         136.000
  22935155.549    -3711930.755 4  -2723611.161 6         7.000          19.000
 90  6 16 22 17 45.0840000  0  5 12 11 09 13 18
  21133362.751   -11856563.855 6  -8059130.334 9        17.000          73.000
  23120459.402    10098521.862 5   7868975.957 7        10.000          32.000
  19058534.610   -23984521.415 7 -18442126.728 9        22.000         108.000
  19348122.618   -23510843.140 7 -18020159.166 9        24.000         131.000
  22933803.307    -3719018.884 5  -2729134.414 7         8.000          26.000
 90  6 16 22 18  0.1880000  0  5 12 11 09 13 18
  21124204.707   -11904693.778 6  -8096634.124 9        18.000          73.000
  23128718.418    10141919.897 5   7902792.563 7        10.000          30.000
  19056469.329   -23995373.193 7 -18450582.661 9        22.000         104.000
  19344609.450   -23529315.641 7 -18034553.294 9        25.000         133.000
  22932459.697    -3726105.757 5  -2734656.660 6         8.000          18.000
 90  6 16 22 18 15.0360000  0  5 12 11 09 13 18
  21115209.052   -11951959.965 6  -8133464.879 9        18.000          70.000
  23136837.079    10184582.274 5   7936035.936 7        10.000          32.000
  19054465.503   -24005903.635 7 -18458788.197 9        21.000         109.000
  19341174.939   -23547354.877 7 -18048609.807 9        24.000         130.000
  22931152.391    -3732951.747 5  -2739991.232 6         8.000          14.000
 90  6 16 22 18 30.1400000  0  5 12 11 09 13 18
  21106069.303   -11999989.887 6  -8170890.757 9        18.000          75.000
  23145096.687    10227981.975 5   7969853.855 7        10.000          27.000
  19052453.698   -24016473.529 7 -18467024.470 9        21.000         109.000
  19337707.250   -23565580.803 7 -18062811.789 9        25.000         130.000
  22929853.615    -3739790.673 5  -2745320.264 6         8.000          22.000
 90  6 16 22 18 45.2440000  0  5 12 11 09 13 18
  21096937.746   -12047970.496 6  -8208278.196 9        18.000          75.000
  23153354.468    10271380.525 5   8003670.871 6         9.000          23.000
  19050469.362   -24026902.535 7 -18475150.967 9        21.000         109.000
  19334262.370   -23583684.092 7 -18076918.213 9        25.000         136.000
  22928575.709    -3746507.630 5  -2750554.276 7         8.000          27.000
 90  6 16 22 19  0.0920000  0  5 12 11 09 13 18
  21087975.138   -12095085.953 6  -8244991.491 9        18.000          77.000
  23161472.352    10314045.671 5   8036916.407 7         9.000          29.000
  19048545.817   -24037013.987 7 -18483030.020 9        21.000         107.000
  19330898.548   -23601357.715 7 -18090689.832 9        25.000         134.000
  22927340.022    -3752987.789 5  -2755603.762 7         8.000          26.000
 90  6 16 22 19 15.1960000  0  5 12 11 09 13 18
  21078862.490   -12142961.475 6  -8282297.060 9        18.000          76.000
  23169732.145    10357447.450 5   8070735.936 7         9.000          34.000
  19046615.366   -24047157.072 7 -18490933.719 9        21.000         106.000
  19327500.352   -23619211.971 7 -18104602.210 9        25.000         130.000
  22926112.211    -3759454.786 5  -2760642.997 6         8.000          21.000
 90  6 16 22 19 30.0440000  0  5 12 11 09 13 18
  21069917.299   -12189970.715 6  -8318927.590 9        18.000          80.000
  23177850.938    10400117.334 5   8103985.159 7         9.000          26.000
  19044746.472   -24056984.756 7 -18498591.649 9        21.000         101.000
  19324185.206   -23636638.859 7 -18118181.571 9        25.000         138.000
  22924923.493    -3765685.099 5  -2765497.788 6         8.000          21.000
 90  6 16 22 19 45.1480000  0  5 12 11 09 13 18
  21060827.828   -12237737.113 6  -8356148.116 9        19.000          79.000
  23186110.904    10443523.802 5   8137808.324 6         9.000          23.000
  19042870.917   -24066838.597 7 -18506269.971 9        21.000         104.000
  19320834.265   -23654242.024 7 -18131898.289 9        25.000         132.000
  22923743.754    -3771894.707 5  -2770336.459 7         8.000          26.000
 90  6 16 22 20  0.2520000  0  5 12 11 09 13 18
  21051749.003   -12285444.418 6  -8393322.599 9        19.000          77.000
  23194372.546    10486935.737 5   8171635.773 6         9.000          25.000
  19041023.342   -24076542.699 7 -18513831.607 9        21.000         103.000
  19317510.916   -23671714.970 7 -18145513.535 9        25.000         139.000
  22922590.544    -3777969.977 5  -2775070.452 6         8.000          17.000
 90  6 16 22 20 15.1000000  0  5 12 11 09 13 18
  21042837.042   -12332287.617 6  -8429823.756 9        19.000          80.000
  23202494.955    10529614.565 5   8204891.955 7         9.000          28.000
  19039235.301   -24085938.640 7 -18521153.125 9        21.000         105.000
  19314264.436   -23688767.356 7 -18158801.074 9        26.000         141.000
  22921476.407    -3783814.723 4  -2779624.832 6         7.000          20.000
 90  6 16 22 20 30.2040000  0  5 12 11 09 13 18
  21033778.452   -12379882.422 6  -8466910.581 9        19.000          82.000
  23210757.516    10573031.081 5   8238722.958 7         9.000          34.000
  19037444.134   -24095350.854 7 -18528487.303 9        21.000          99.000
  19310988.597   -23705987.907 7 -18172219.658 9        25.000         133.000
  22920367.746    -3789631.136 4  -2784157.111 6         7.000          23.000
 90  6 16 22 20 45.0520000  0  5 12 11 09 13 18
  21024885.369   -12426616.379 6  -8503326.617 9        19.000          84.000
  23218878.332    10615711.851 5   8271980.661 7         9.000          28.000
  19035710.733   -24104461.555 7 -18535586.555 9        21.000          99.000
  19307790.128   -23722794.230 7 -18185315.461 9        25.000         134.000
  22919309.006    -3795222.853 5  -2788514.314 6         8.000          20.000
 90  6 16 22 21  0.1560000  0  5 12 11 09 13 18
  21015850.101   -12474102.933 6  -8540329.084 9        19.000          81.000
  23227140.464    10659126.214 5   8305809.984 7         9.000          31.000
  19033973.512   -24113586.805 7 -18542697.134 9        21.000         102.000
  19304560.871   -23739768.230 7 -18198541.918 9        25.000         133.000
  22918247.150    -3800785.803 5  -2792849.089 7         8.000          30.000
 90  6 16 22 21 15.0040000  0  5 12 11 09 13 18
  21006974.312   -12520729.770 6  -8576661.647 9        19.000          84.000
  23235260.616    10701804.536 5   8339065.769 7         9.000          29.000
  19032293.905   -24122415.085 7 -18549576.322 9        21.000          94.000
  19301408.186   -23756332.345 7 -18211448.991 9        25.000         131.000
  22917229.863    -3806128.604 4  -2797012.337 6         7.000          23.000
 90  6 16 22 21 30.1080000  0  5 12 11 09 13 18
  20997959.913   -12568105.635 6  -8613577.867 9        19.000          87.000
  23243522.492    10745216.871 5   8372893.518 7         9.000          36.000
  19030612.183   -24131251.817 7 -18556462.080 9        21.000         109.000
  19298225.459   -23773059.187 7 -18224482.861 9        25.000         133.000
  22916218.603    -3811438.849 4  -2801150.193 6         7.000          22.000
 90  6 16 22 21 45.2120000  0  5 12 11 09 13 18
  20988957.007   -12615421.861 6  -8650447.609 9        19.000          88.000
  23251783.807    10788631.336 5   8406722.936 7         9.000          36.000
  19028958.870   -24139939.284 7 -18563231.530 9        21.000         104.000
  19295064.980   -23789658.171 7 -18237417.100 9        25.000         126.000
  22915236.252    -3816620.213 4  -2805187.622 6         7.000          24.000
 90  6 16 22 22  0.0600000  0  5 12 11 09 13 18
  20980115.033   -12661883.638 6  -8686651.553 9        19.000          91.000
  23259906.686    10831305.576 5   8439975.542 7         9.000          34.000
  19027361.668   -24148340.159 7 -18569777.665 9        21.000         104.000
  19291983.465   -23805857.601 7 -18250040.001 9        25.000         135.000
  22914286.845    -3821597.359 4  -2809065.932 6         7.000          13.000
 90  6 16 22 22 15.1640000  0  5 12 11 09 13 18
  20971131.259   -12709091.610 6  -8723436.950 9        19.000          87.000
  23268164.978    10874711.922 5   8473798.631 7         9.000          33.000
  19025762.587   -24156742.691 7 -18576325.088 9        21.000         105.000
  19288868.413   -23822214.718 7 -18262785.777 9        25.000         132.000
  22913344.966    -3826541.442 4  -2812918.514 6         7.000          16.000
 90  6 16 22 22 30.0120000  0  5 12 11 09 13 18
  20962309.916   -12755443.743 6  -8759555.445 9        19.000          82.000
  23276283.924    10917380.271 5   8507046.655 7         9.000          33.000
  19024219.138   -24164860.424 7 -18582650.590 9        21.000         105.000
  19285833.428   -23838173.783 7 -18275221.384 9        25.000         131.000
  22912443.223    -3831282.549 4  -2816612.903 6         7.000          19.000
 90  6 16 22 22 45.1160000  0  5 12 11 09 13 18
  20953349.586   -12802534.431 6  -8796249.468 9        19.000          88.000
  23284544.084    10960785.383 5   8540868.776 7         9.000          32.000
  19022674.534   -24172969.469 7 -18588969.323 9        21.000         106.000
  19282768.809   -23854281.498 7 -18287772.817 9        26.000         133.000
  22911549.110    -3835979.988 4  -2820273.265 6         7.000          16.000
 90  6 16 22 23  0.2200000  0  5 12 11 09 13 18
  20944399.450   -12849567.454 6  -8832898.545 9        19.000          93.000
  23292802.447    11004187.372 5   8574688.480 7         9.000          37.000
  19021158.093   -24180932.360 7 -18595174.170 9        21.000         106.000
  19279726.203   -23870265.535 7 -18300227.879 9        25.000         126.000
  22910678.360    -3840554.982 4  -2823838.213 6         7.000          22.000
 90  6 16 22 23 15.0680000  0  5 12 11 09 13 18
  20935611.849   -12895747.616 6  -8868883.045 9        19.000          95.000
  23300921.721    11046849.625 5   8607931.758 7         9.000          38.000
  19019695.507   -24188618.505 7 -18601163.373 9        21.000         101.000
  19276759.046   -23885859.343 7 -18312378.868 9        25.000         127.000
  22909843.403    -3844932.820 4  -2827249.517 6         7.000          19.000
 90  6 16 22 23 30.1720000  0  5 12 11 09 13 18
  20926684.493   -12942665.097 6  -8905442.078 9        19.000          97.000
  23309179.674    11090245.096 5   8641746.360 8         9.000          43.000
  19018236.292   -24196290.804 7 -18607141.783 9        21.000         101.000
  19273763.992   -23901598.757 7 -18324643.316 9        26.000         126.000
  22909022.267    -3849262.047 4  -2830622.965 7         7.000          28.000
 90  6 16 22 23 45.0200000  0  5 12 11 09 13 18
  20917917.955   -12988735.047 6  -8941340.703 9        19.000          90.000
  23317294.525    11132896.406 5   8674981.105 7         9.000          39.000
  19016829.123   -24203695.027 7 -18612911.308 9        21.000         104.000
  19270841.639   -23916956.006 7 -18336609.973 9        26.000         130.000
  22908233.289    -3853401.422 4  -2833848.472 7         7.000          27.000
 90  6 16 22 24  0.1240000  0  5 12 11 09 13 18
  20909009.335   -13035544.584 6  -8977815.631 9        19.000          89.000
  23325551.662    11176275.326 5   8708782.818 7         9.000          39.000
  19015422.036   -24211085.039 7 -18618669.753 9        21.000         103.000
  19267890.899   -23932459.529 7 -18348690.614 9        26.000         126.000
  22907458.510    -3857490.948 4  -2837035.121 6         7.000          22.000
 90  6 16 22 24 15.2280000  0  5 12 11 09 13 18
  20900112.339   -13082293.153 6  -9014243.054 9        18.000          92.000
  23333805.560    11219651.663 5   8742582.524 7         9.000          38.000
  19014042.407   -24218326.451 7 -18624312.408 9        21.000         106.000
  19264965.921   -23947838.482 7 -18360674.182 9        26.000         124.000
  22906703.078    -3861451.206 3  -2840121.059 6         6.000          23.000
 90  6 16 22 24 30.0760000  0  5 12 11 09 13 18
  20891378.653   -13128192.954 6  -9050009.087 9        19.000          88.000
  23341919.369    11262286.659 5   8775804.551 7        10.000          31.000
  19012715.866   -24225303.559 7 -18629749.116 9        22.000         107.000
  19262110.957   -23962838.463 7 -18372362.446 9        26.000         124.000
  22905987.067    -3865220.262 4  -2843057.979 7         7.000          30.000
 90  6 16 22 24 45.1800000  0  5 12 11 09 13 18
  20882505.459   -13174825.326 6  -9086345.963 9        19.000          88.000
  23350170.427    11305651.299 5   8809595.142 7        10.000          32.000
  19011394.484   -24232255.584 7 -18635166.279 9        22.000         110.000
  19259229.057   -23977975.700 7 -18384157.662 9        26.000         123.000
  22905280.597    -3868926.296 3  -2845945.827 7         6.000          29.000
 90  6 16 22 25  0.0280000  0  5 12 11 09 13 18
  20873793.980   -13220608.334 6  -9122021.009 9        19.000          84.000
  23358279.915    11348276.214 5   8842809.329 7         9.000          32.000
  19010119.499   -24238945.889 7 -18640379.501 9        22.000         115.000
  19256421.175   -23992736.567 7 -18395659.609 9        26.000         132.000
  22904610.165    -3872442.713 3  -2848685.911 7         6.000          28.000
 90  6 16 22 25 15.1320000  0  5 12 11 09 13 18
  20864941.104   -13267122.000 6  -9158265.382 9        18.000          95.000
  23366531.352    11391629.326 5   8876590.928 7         9.000          35.000
  19008851.522   -24245606.677 7 -18645569.724 9        21.000         104.000
  19253586.070   -24007631.925 7 -18407266.352 9        26.000         123.000
  22903954.076    -3875893.387 4  -2851374.774 6         7.000          23.000
 90  6 16 22 25 30.2360000  0  5 12 11 09 13 18
  20856102.039   -13313572.156 6  -9194460.273 9        18.000          96.000
  23374778.978    11434979.193 5   8910370.012 7         9.000          31.000
  19007614.425   -24252117.377 7 -18650642.997 9        22.000         109.000
  19250775.002   -24022402.283 7 -18418775.694 9        26.000         130.000
  22903320.665    -3879213.586 4  -2853961.971 6         7.000          24.000
 90  6 16 22 25 45.0840000  0  5 12 11 09 13 18
  20847424.210   -13359178.216 6  -9229997.432 9        19.000          85.000
  23382888.057    11477585.674 5   8943569.812 7         9.000          36.000
  19006422.817   -24258376.570 7 -18655520.285 9        22.000         108.000
  19248034.581   -24036805.878 7 -18429999.250 9        26.000         128.000
  22902722.699    -3882357.230 4  -2856411.573 7         7.000          27.000
 90  6 16 22 26  0.1880000  0  5 12 11 09 13 18
  20838607.046   -13405508.100 6  -9266098.615 9        19.000          96.000
  23391134.564    11520922.152 5   8977338.455 7         9.000          35.000
  19005238.154   -24264595.827 7 -18660366.466 9        21.000         104.000
  19245270.390   -24051335.181 7 -18441320.759 9        26.000         128.000
  22902140.813    -3885427.621 4  -2858804.119 6         7.000          24.000
 90  6 16 22 26 15.0360000  0  5 12 11 09 13 18
  20829950.617   -13450990.447 6  -9301539.367 9        18.000          96.000
  23399242.049    11563519.742 5   9010531.328 8         9.000          40.000
  19004103.434   -24270563.463 7 -18665016.568 9        21.000          99.000
  19242573.567   -24065497.378 7 -18452356.205 9        26.000         129.000
  22901586.017    -3888320.488 3  -2861058.347 6         6.000          19.000
 90  6 16 22 26 30.1400000  0  5 12 11 09 13 18
  20821159.042   -13497194.214 6  -9337542.266 9        18.000          93.000
  23407484.885    11606846.275 5   9044292.233 7         9.000          31.000
  19002975.394   -24276486.046 7 -18669631.568 9        21.000          98.000
  19239857.541   -24079781.672 7 -18463486.803 9        26.000         127.000
  22901053.981    -3891137.432 4  -2863253.371 6         7.000          23.000
 90  6 16 22 26 45.2440000  0  5 12 11 09 13 18
  20812379.899   -13543331.536 6  -9373493.397 9        18.000          95.000
  23415728.977    11650169.834 5   9078050.826 7         9.000          39.000
  19001878.787   -24282256.419 7 -18674127.958 9        21.000         101.000
  19237161.250   -24093940.187 7 -18474519.373 9        26.000         127.000
  22900536.920    -3893825.921 3  -2865348.305 7         6.000          26.000
 90  6 16 22 27  0.0920000  0  5 12 11 09 13 18
  20803761.155   -13588622.785 6  -9408785.243 9        19.000          89.000
  23423833.960    11692754.943 5   9111233.978 7         9.000          37.000
  19000826.114   -24287781.527 7 -18678433.239 9        21.000          96.000
  19234536.577   -24107737.196 7 -18485270.275 9        26.000         132.000
  22900061.516    -3896346.492 3  -2867312.428 6         6.000          21.000
 90  6 16 22 27 15.1960000  0  5 12 11 09 13 18
  20795006.406   -13634633.634 6  -9444637.822 9        19.000          93.000
  23432075.406    11736065.414 5   9144982.365 7         8.000          33.000
  18999783.494   -24293256.152 7 -18682699.181 9        21.000         101.000
  19231888.471   -24121652.910 7 -18496113.660 9        26.000         130.000
  22899594.070    -3898792.021 3  -2869218.047 6         6.000          25.000
 90  6 16 22 27 30.0440000  0  5 12 11 09 13 18
  20786411.565   -13679799.597 6  -9479832.053 9        19.000          92.000
  23440178.049    11778637.280 5   9178155.211 7         8.000          34.000
  18998788.792   -24298490.146 7 -18686777.615 9        21.000          93.000
  19229308.735   -24135211.371 7 -18506678.671 9        26.000         128.000
  22899166.157    -3901075.551 3  -2870997.425 6         6.000          15.000
 90  6 16 22 27 45.1480000  0  5 12 11 09 13 18
  20777680.659   -13725677.963 6  -9515581.390 9        19.000          98.000
  23448415.951    11821937.977 5   9211895.968 7         9.000          32.000
  18997804.357   -24303664.202 7 -18690809.348 9        22.000          96.000
  19226707.394   -24148880.398 7 -18517329.836 9        26.000         132.000
  22898743.433    -3903276.543 3  -2872712.508 6         6.000          20.000
 90  6 16 22 28  0.2520000  0  5 12 11 09 13 18
  20768962.551   -13771490.976 6  -9551279.799 9        19.000         104.000
  23456653.505    11865231.757 5   9245631.343 7         8.000          35.000
  18996848.320   -24308688.227 7 -18694724.175 9        22.000         100.000
  19224128.373   -24162427.034 7 -18527885.630 9        26.000         130.000
  22898348.934    -3905355.609 4  -2874332.573 6         7.000          17.000
 90  6 16 22 28 15.1000000  0  5 12 11 09 13 18
  20760404.996   -13816468.972 7  -9586327.556 9        20.000          94.000
  23464752.093    11907779.275 5   9278785.207 8         8.000          40.000
  18995934.431   -24313486.298 7 -18698462.928 9        21.000         103.000
  19221617.671   -24175630.558 7 -18538174.064 9        26.000         124.000
  22897980.840    -3907286.880 4  -2875837.490 6         7.000          14.000
 90  6 16 22 28 30.2040000  0  5 12 11 09 13 18
  20751709.138   -13862158.821 7  -9621930.007 9        20.000          95.000
  23472984.356    11951051.132 5   9312503.502 7         8.000          33.000
  18995034.639   -24318219.838 7 -18702151.403 9        21.000          96.000
  19219084.414   -24188942.742 7 -18548547.168 9        27.000         125.000
  22897630.613    -3909134.470 4  -2877277.213 3         7.000           3.000
 90  6 16 22 28 45.0520000  0  5 12 11 09 13 18
  20743174.475   -13907007.646 7  -9656877.112 9        20.000          92.000
  23481079.910    11993584.009 5   9345645.964 7         8.000          35.000
  18994177.219   -24322724.820 7 -18705661.780 9        21.000         102.000
  19216615.584   -24201908.536 7 -18558650.358 9        26.000         127.000
  22897304.943    -3910832.114 4  -2878600.064 6         7.000          21.000
 90  6 16 22 29  0.1560000  0  5 12 11 09 13 18
  20734506.800   -13952559.900 7  -9692372.338 9        20.000         103.000
  23489312.357    12036846.014 5   9379356.572 7         8.000          32.000
  18993333.631   -24327154.752 7 -18709113.676 9        22.000          95.000
  19214131.503   -24214973.295 7 -18568830.664 9        27.000         131.000
  22897003.075    -3912436.623 4  -2879850.362 6         7.000          17.000
 90  6 16 22 29 15.0040000  0  5 12 11 09 13 18
  20725997.910   -13997273.481 6  -9727214.050 9        19.000          96.000
  23497404.703    12079367.945 4   9412490.506 7         7.000          28.000
  18992534.652   -24331361.481 7 -18712391.647 9        22.000          97.000
  19211708.958   -24227696.680 7 -18578744.968 9        27.000         131.000
  22896724.047    -3913895.925 3  -2880987.510 6         6.000          13.000
 90  6 16 22 29 30.1080000  0  5 12 11 09 13 18
  20717355.692   -14042688.172 6  -9762602.088 9        19.000         100.000
  23505636.067    12122617.725 4   9446191.582 7         7.000          28.000
  18991747.747   -24335488.301 7 -18715607.353 9        22.000         104.000
  19209270.713   -24240515.909 7 -18588733.952 9        26.000         133.000
  22896468.617    -3915256.369 4  -2882047.645 5         7.000          10.000
 90  6 16 22 29 45.2120000  0  5 12 11 09 13 18
  20708726.784   -14088036.172 6  -9797938.163 9        19.000          98.000
  23513860.659    12165857.705 4   9479885.005 7         7.000          28.000
  18990992.081   -24339465.436 7 -18718706.422 9        22.000         103.000
  19206853.337   -24253214.701 7 -18598629.081 9        26.000         129.000
  22896233.402    -3916494.732 4  -2883012.644 5         7.000          10.000
 90  6 16 22 30  0.0600000  0  5 12 11 09 13 18
  20700256.661   -14132544.207 7  -9832619.711 9        20.000          97.000
  23521950.390    12208361.034 4   9513004.444 7         7.000          28.000
  18990276.141   -24343223.009 7 -18721634.404 9        22.000         101.000
  19204501.450   -24265575.112 7 -18608260.548 9        26.000         129.000
  22896018.352    -3917586.132 4  -2883863.096 6         7.000          12.000
 90  6 16 22 30 15.1640000  0  5 12 11 09 13 18
  20691654.251   -14177750.054 7  -9867845.012 9        20.000         100.000
  23530176.432    12251589.807 4   9546689.163 7         7.000          30.000
  18989577.301   -24346893.982 7 -18724494.902 9        22.000         101.000
  19202132.320   -24278026.742 7 -18617963.096 9        26.000         131.000
  22895834.367    -3918570.628 3  -2884630.281 6         6.000          22.000
 90  6 16 22 30 30.0120000  0  5 12 11 09 13 18
  20683209.642   -14222126.054 7  -9902423.686 9        20.000         101.000
  23538262.547    12294073.305 4   9579793.156 6         7.000          20.000
  18988919.108   -24350358.852 7 -18727194.805 9        22.000         103.000
  19199823.858   -24290152.713 7 -18627411.882 9        26.000         128.000
  22895670.474    -3919419.653 3  -2885291.894 6         6.000          14.000
 90  6 16 22 30 45.1160000  0  5 12 11 09 13 18
  20674632.759   -14267198.486 7  -9937545.027 9        20.000         108.000
  23546483.665    12337279.792 4   9613460.494 6         7.000          15.000
  18988276.196   -24353733.485 7 -18729824.393 9        22.000         101.000
  19197498.286   -24302367.792 7 -18636930.100 9        26.000         136.000
  22895531.292    -3920158.026 3  -2885867.260 5         6.000           8.000
 90  6 16 22 31  0.2200000  0  5 12 11 09 13 18
  20666067.787   -14312200.439 6  -9972611.443 9        19.000          99.000
  23554704.580    12380477.433 4   9647120.940 6         7.000          24.000
  18987661.969   -24356955.715 7 -18732335.223 9        21.000         101.000
  19195198.732   -24314460.983 7 -18646353.337 9        27.000         128.000
  22895414.124    -3920768.404 3  -2886342.897 6         6.000          13.000
 90  6 16 22 31 15.0680000  0  5 12 11 09 13 18
  20657664.154   -14356374.381 7 -10007032.663 9        20.000         107.000
  23562782.707    12422930.211 4   9680200.980 6         7.000          19.000
  18987088.091   -24359978.466 7 -18734690.620 9        21.000          92.000
  19192957.393   -24326234.548 7 -18655527.517 9        26.000         122.000
  22895324.781    -3921247.212 3  -2886716.034 6         6.000          17.000
 90  6 16 22 31 30.1720000  0  5 12 11 09 13 18
  20649124.168   -14401242.460 6 -10041994.773 9        19.000         111.000
  23570997.604    12466102.429 4   9713841.629 6         7.000          16.000
  18986531.814   -24362905.337 7 -18736971.297 9        22.000          92.000
  19190700.201   -24338094.006 7 -18664768.622 9        26.000         126.000
  22895256.145    -3921609.418 4  -2886998.268 6         7.000          19.000
 90  6 16 22 31 45.0200000  0  5 12 11 09 13 18
  20640744.673   -14445278.716 6 -10076308.702 9        19.000         111.000
  23579071.992    12508535.216 4   9746906.100 6         7.000          18.000
  18986011.351   -24365632.191 7 -18739096.123 9        21.000         101.000
  19188505.945   -24349632.513 7 -18673759.644 9        26.000         129.000
  22895211.218    -3921838.934 5                         8.000
 90  6 16 22 32  0.1240000  0  5 12 11 09 13 18
  20632233.352   -14490002.074 7 -10111158.035 9        20.000         106.000
  23587286.603    12551690.740 4   9780533.749 7         7.000          32.000
  18985511.779   -24368253.736 7 -18741138.890 9        22.000         104.000
  19186294.795   -24361248.956 7 -18682811.389 9        26.000         136.000
  22895192.371    -3921945.568 4                         7.000
 90  6 16 22 32 15.2280000  0  5 12 11 09 13 18
  20623737.956   -14534654.803 6 -10145952.339 9        19.000         105.000
  23595497.159    12594834.727 4   9814152.397 6         7.000          15.000
  18985042.545   -24370724.084 7 -18743063.841 9        22.000          91.000
  19184108.046   -24372745.747 7 -18691769.903 9        27.000         133.000
  22895192.166    -3921928.358 5                         8.000
 90  6 16 22 32 30.0760000  0  5 12 11 09 13 18
  20615397.851   -14578477.278 6 -10180099.701 9        19.000         101.000
  23603562.385    12637240.134 4   9847195.529 7         7.000          31.000
  18984609.779   -24373000.634 7 -18744837.776 9        22.000          88.000
  19181980.002   -24383927.007 7 -18700482.545 9        27.000         126.000
  22895223.352    -3921789.206 4                         7.000
 90  6 16 22 32 45.1800000  0  5 12 11 09 13 18
  20606927.533   -14622982.906 6 -10214779.379 9        19.000         105.000
  23611771.306    12680366.482 4   9880800.428 6         7.000          25.000
  18984199.027   -24375164.523 7 -18746523.926 9        22.000          98.000
  19179837.821   -24395181.111 7 -18709251.951 9        27.000         129.000
  22895271.067    -3921526.670 5                         8.000
 90  6 16 22 33  0.0280000  0  5 12 11 09 13 18
  20598617.604   -14666661.980 6 -10248814.985 9        19.000         109.000
  23619837.522    12722752.090 4   9913828.138 7         7.000          28.000
  18983823.242   -24377141.852 7 -18748064.712 9        22.000          95.000
  19177754.510   -24406126.315 7 -18717780.655 9        26.000         130.000
  22895341.857    -3921149.432 5  -2886640.02016         8.000          18.000
 90  6 16 22 33 15.1320000  0  5 12 11 09 13 18
  20590174.050   -14711022.510 6 -10283381.612 9        19.000         105.000
  23628040.274    12765856.184 4   9947415.685 6         7.000          19.000
  18983468.960   -24379002.591 7 -18749514.637 9        22.000          96.000
  19175658.686   -24417141.993 7 -18726364.274 9        27.000         126.000
  22895437.756    -3920647.295 4  -2886248.772 6         7.000          18.000
 90  6 16 22 33 30.2360000  0  5 12 11 09 13 18
  20581747.964   -14755306.407 6 -10317888.509 9        19.000         115.000
  23636239.930    12808951.725 4   9980996.589 6         7.000          16.000
  18983144.485   -24380707.429 7 -18750843.086 9        22.000         100.000
  19173585.008   -24428034.676 7 -18734852.050 9        27.000         126.000
  22895559.868    -3920022.814 4  -2885762.185 6         7.000          13.000
 90  6 16 22 33 45.0840000  0  5 12 11 09 13 18
  20573478.538   -14798763.569 6 -10351751.206 9        19.000         103.000
  23644299.466    12851309.452 4  10014002.549 6         7.000          24.000
  18982854.302   -24382230.130 7 -18752029.611 9        22.000          93.000
  19171571.487   -24438622.014 7 -18743101.902 9        27.000         130.000
  22895696.791    -3919289.644 4  -2885190.911 6         7.000          16.000
 90  6 16 22 34  0.1880000  0  5 12 11 09 13 18
  20565081.249   -14842892.837 7 -10386137.630 9        20.000         112.000
  23652499.950    12894389.214 5  10047571.160 6         8.000          21.000
  18982588.115   -24383623.716 7 -18753115.526 9        22.000          96.000
  19169545.370   -24449269.830 7 -18751398.875 9        27.000         133.000
  22895863.022    -3918423.783 4  -2884516.247 6         7.000          14.000
 90  6 16 22 34 15.0360000  0  5 12 11 09 13 18
  20556840.844   -14886195.465 7 -10419879.908 9        20.000         109.000
  23660556.615    12936732.925 5  10080566.204 6         8.000          17.000
  18982356.885   -24384838.205 7 -18754061.884 9        22.000          90.000
  19167577.143   -24459614.777 7 -18759459.842 9        27.000         132.000
  22896046.056    -3917451.373 4  -2883758.580 6         7.000          18.000
 90  6 16 22 34 30.1400000  0  5 12 11 09 13 18
  20548474.354   -14930167.075 7 -10454143.467 9        20.000         109.000
  23668753.155    12979797.682 5  10114123.125 6         8.000          19.000
  18982150.773   -24385918.436 7 -18754903.634 9        22.000          91.000
  19165596.862   -24470016.629 7 -18767565.157 9        27.000         129.000
  22896261.136    -3916340.489 4  -2882893.005 6         7.000          16.000
 90  6 16 22 34 45.2440000  0  4 12 09 13 18
  20540121.225   -14974061.873 7 -10488347.188 9        20.000         112.000
  18981977.299   -24386843.843 7 -18755624.725 9        22.000          92.000
  19163638.810   -24480297.690 7 -18775576.349 9        26.000         125.000
  22896491.630    -3915107.313 4  -2881932.108 6         7.000          17.000
 90  6 16 22 35  0.0920000  0  4 12 09 13 18
  20531922.345   -15017136.302 6 -10521911.651 9        19.000         112.000
  18981832.171   -24387601.340 7 -18756214.990 9        22.000          92.000
  19161739.494   -24490285.770 7 -18783359.239 9        27.000         127.000
  22896749.572    -3913772.794 5  -2880892.265 6         8.000          17.000
 90  6 16 22 35 15.1960000  0  4 12 09 13 18
  20523599.576   -15060880.747 7 -10555998.199 9        20.000         107.000
  18981713.501   -24388222.237 7 -18756698.808 9        22.000         102.000
  19159826.613   -24500330.707 7 -18791186.435 9        26.000         132.000
  22897025.319    -3912297.152 4  -2879742.451 6         7.000          14.000
 90  6 16 22 35 30.0440000  0  4 12 09 13 18
  20515432.915   -15103806.403 7 -10589446.746 9        21.000         104.000
  18981627.315   -24388680.003 7 -18757055.518 9        22.000          98.000
  19157971.519   -24510086.644 7 -18798788.439 9        27.000         127.000
  22897326.676    -3910725.512 4  -2878517.834 6         7.000          16.000
 90  6 16 22 35 45.1480000  0  4 12 09 13 18
  20507136.133   -15147394.828 7 -10623411.737 9        20.000         114.000
  18981566.514   -24388991.910 7 -18757298.560 9        22.000         102.000
  19156104.647   -24519891.904 7 -18806428.877 9        26.000         126.000
  22897651.588    -3909004.839 4  -2877177.078 6         7.000          16.000
 90  6 16 22 36  0.2520000  0  4 12 09 13 18
  20498857.422   -15190901.636 7 -10657313.110 9        20.000         111.000
  18981538.105   -24389145.465 7                        22.000
  19154263.916   -24529574.117 7 -18813973.436 9        27.000         128.000
  22898009.823    -3907156.948 4  -2875737.207 6         7.000          17.000
 90  6 16 22 36 15.1000000  0  4 12 09 13 18
  20490733.236   -15233596.030 7 -10690581.455 9        21.000         109.000
  18981537.849   -24389146.816 7                        22.000
  19152473.187   -24538977.438 7 -18821300.673 9        26.000         131.000
  22898371.387    -3905221.867 4  -2874229.382 6         7.000          16.000
 90  6 16 22 36 30.2040000  0  4 12 09 13 18
  20482484.343   -15276946.064 7 -10724360.673 9        21.000         114.000
  18981565.603   -24388992.258 7                        22.000
  19150676.647   -24548422.226 7 -18828660.222 9        27.000         121.000
  22898773.128    -3903130.629 4  -2872599.895 6         7.000          15.000
 90  6 16 22 36 45.0520000  0  4 12 09 13 18
  20474390.486   -15319480.048 7 -10757504.015 9        21.000         110.000
  18981625.790   -24388684.841 7                        22.000
  19148933.123   -24557586.515 7 -18835801.198 9        27.000         126.000
  22899186.923    -3900953.935 4  -2870903.816 6         7.000          13.000
